<?xml version='1.0' encoding='UTF-8'?><gpx version="1.1" creator="JPX - https://github.com/jenetics/jpx" xmlns="http://www.topografix.com/GPX/1/1"><trk><trkseg><trkpt lat="46.044603" lon="12.0961923"><ele>501.99999999999994</ele><time>2026-04-24T16:23:04.375Z</time></trkpt><trkpt lat="46.0446068" lon="12.096288"><ele>502.0</ele><time>2026-04-24T16:23:07.38Z</time></trkpt><trkpt lat="46.0446118" lon="12.0963887"><ele>501.99999999999994</ele><time>2026-04-24T16:23:10.38Z</time></trkpt><trkpt lat="46.0446215" lon="12.0964877"><ele>501.99999999999994</ele><time>2026-04-24T16:23:13.382Z</time></trkpt><trkpt lat="46.0446175" lon="12.0965946"><ele>502.0</ele><time>2026-04-24T16:23:16.378Z</time></trkpt><trkpt lat="46.0446041" lon="12.096706"><ele>501.99999999999994</ele><time>2026-04-24T16:23:19.378Z</time></trkpt><trkpt lat="46.0445861" lon="12.0968148"><ele>501.99999999999994</ele><time>2026-04-24T16:23:22.384Z</time></trkpt><trkpt lat="46.0445584" lon="12.0969254"><ele>503.50000000000006</ele><time>2026-04-24T16:23:25.386Z</time></trkpt><trkpt lat="46.0445205" lon="12.0970323"><ele>505.0</ele><time>2026-04-24T16:23:28.388Z</time></trkpt><trkpt lat="46.0444949" lon="12.0971446"><ele>506.5</ele><time>2026-04-24T16:23:31.386Z</time></trkpt><trkpt lat="46.0444744" lon="12.0972523"><ele>508.0</ele><time>2026-04-24T16:23:34.384Z</time></trkpt><trkpt lat="46.0444391" lon="12.0973601"><ele>509.50000000000006</ele><time>2026-04-24T16:23:37.384Z</time></trkpt><trkpt lat="46.0443949" lon="12.0974567"><ele>511.0</ele><time>2026-04-24T16:23:40.38Z</time></trkpt><trkpt lat="46.0443392" lon="12.0975302"><ele>512.3333333333334</ele><time>2026-04-24T16:23:43.397Z</time></trkpt><trkpt lat="46.0442723" lon="12.0975841"><ele>513.6666666666667</ele><time>2026-04-24T16:23:46.377Z</time></trkpt><trkpt lat="46.0441925" lon="12.0976006"><ele>515.0</ele><time>2026-04-24T16:23:49.381Z</time></trkpt><trkpt lat="46.0441078" lon="12.0976018"><ele>516.3333333333334</ele><time>2026-04-24T16:23:52.373Z</time></trkpt><trkpt lat="46.0440223" lon="12.0976073"><ele>517.6666666666666</ele><time>2026-04-24T16:23:55.374Z</time></trkpt><trkpt lat="46.0439351" lon="12.0976102"><ele>519.0</ele><time>2026-04-24T16:23:58.375Z</time></trkpt><trkpt lat="46.043846" lon="12.097613"><ele>519.8333333333334</ele><time>2026-04-24T16:24:01.376Z</time></trkpt><trkpt lat="46.0437628" lon="12.097613"><ele>520.6666666666666</ele><time>2026-04-24T16:24:04.373Z</time></trkpt><trkpt lat="46.0436796" lon="12.0976182"><ele>521.5</ele><time>2026-04-24T16:24:07.368Z</time></trkpt><trkpt lat="46.0436007" lon="12.0976184"><ele>522.3333333333333</ele><time>2026-04-24T16:24:10.372Z</time></trkpt><trkpt lat="46.0435247" lon="12.0976191"><ele>523.1666666666666</ele><time>2026-04-24T16:24:13.378Z</time></trkpt><trkpt lat="46.0434486" lon="12.0976365"><ele>524.0</ele><time>2026-04-24T16:24:16.375Z</time></trkpt><trkpt lat="46.0433778" lon="12.0976382"><ele>524.0</ele><time>2026-04-24T16:24:19.374Z</time></trkpt><trkpt lat="46.0433117" lon="12.0977108"><ele>524.0</ele><time>2026-04-24T16:24:22.378Z</time></trkpt><trkpt lat="46.0432591" lon="12.0977969"><ele>524.0</ele><time>2026-04-24T16:24:25.382Z</time></trkpt><trkpt lat="46.0432121" lon="12.0978973"><ele>524.0</ele><time>2026-04-24T16:24:28.377Z</time></trkpt><trkpt lat="46.0431709" lon="12.0980024"><ele>524.0</ele><time>2026-04-24T16:24:31.38Z</time></trkpt><trkpt lat="46.0431311" lon="12.098116"><ele>524.0</ele><time>2026-04-24T16:24:34.377Z</time></trkpt><trkpt lat="46.0431012" lon="12.0982343"><ele>525.0</ele><time>2026-04-24T16:24:37.385Z</time></trkpt><trkpt lat="46.0430718" lon="12.0983493"><ele>526.0</ele><time>2026-04-24T16:24:40.381Z</time></trkpt><trkpt lat="46.0430523" lon="12.0984657"><ele>527.0</ele><time>2026-04-24T16:24:43.468Z</time></trkpt><trkpt lat="46.0430423" lon="12.0985816"><ele>528.0</ele><time>2026-04-24T16:24:46.387Z</time></trkpt><trkpt lat="46.0430358" lon="12.0986962"><ele>529.0</ele><time>2026-04-24T16:24:49.381Z</time></trkpt><trkpt lat="46.0430312" lon="12.0988097"><ele>530.0</ele><time>2026-04-24T16:24:52.378Z</time></trkpt><trkpt lat="46.0430266" lon="12.0989259"><ele>530.0</ele><time>2026-04-24T16:24:55.378Z</time></trkpt><trkpt lat="46.0430163" lon="12.0990369"><ele>530.0</ele><time>2026-04-24T16:24:58.375Z</time></trkpt><trkpt lat="46.0430103" lon="12.0991454"><ele>530.0</ele><time>2026-04-24T16:25:01.374Z</time></trkpt><trkpt lat="46.0430025" lon="12.0992557"><ele>530.0</ele><time>2026-04-24T16:25:04.374Z</time></trkpt><trkpt lat="46.0429949" lon="12.0993672"><ele>530.0</ele><time>2026-04-24T16:25:07.375Z</time></trkpt><trkpt lat="46.0429908" lon="12.0994783"><ele>530.0</ele><time>2026-04-24T16:25:10.402Z</time></trkpt><trkpt lat="46.042997" lon="12.0995818"><ele>530.8333333333333</ele><time>2026-04-24T16:25:13.386Z</time></trkpt><trkpt lat="46.0429995" lon="12.0996855"><ele>531.6666666666666</ele><time>2026-04-24T16:25:16.386Z</time></trkpt><trkpt lat="46.042997" lon="12.0997953"><ele>532.5</ele><time>2026-04-24T16:25:19.378Z</time></trkpt><trkpt lat="46.0430004" lon="12.0999085"><ele>533.3333333333334</ele><time>2026-04-24T16:25:22.384Z</time></trkpt><trkpt lat="46.0430024" lon="12.1000227"><ele>534.1666666666667</ele><time>2026-04-24T16:25:25.384Z</time></trkpt><trkpt lat="46.043" lon="12.1001327"><ele>535.0</ele><time>2026-04-24T16:25:28.386Z</time></trkpt><trkpt lat="46.0429979" lon="12.1002429"><ele>536.0</ele><time>2026-04-24T16:25:31.388Z</time></trkpt><trkpt lat="46.0429962" lon="12.1003459"><ele>537.0</ele><time>2026-04-24T16:25:34.382Z</time></trkpt><trkpt lat="46.0429641" lon="12.1004275"><ele>538.0</ele><time>2026-04-24T16:25:37.389Z</time></trkpt><trkpt lat="46.0428984" lon="12.1004948"><ele>539.0</ele><time>2026-04-24T16:25:43.378Z</time></trkpt><trkpt lat="46.0428393" lon="12.1005648"><ele>540.0</ele><time>2026-04-24T16:25:46.389Z</time></trkpt><trkpt lat="46.0427819" lon="12.1006266"><ele>541.0</ele><time>2026-04-24T16:25:49.396Z</time></trkpt><trkpt lat="46.04272" lon="12.1006816"><ele>542.0</ele><time>2026-04-24T16:25:52.385Z</time></trkpt><trkpt lat="46.0426615" lon="12.1007377"><ele>543.0</ele><time>2026-04-24T16:25:55.379Z</time></trkpt><trkpt lat="46.0426036" lon="12.1008002"><ele>544.0</ele><time>2026-04-24T16:25:58.381Z</time></trkpt><trkpt lat="46.0425471" lon="12.1008541"><ele>545.0</ele><time>2026-04-24T16:26:01.383Z</time></trkpt><trkpt lat="46.0424896" lon="12.100922"><ele>546.0</ele><time>2026-04-24T16:26:04.372Z</time></trkpt><trkpt lat="46.0424373" lon="12.1009941"><ele>547.0</ele><time>2026-04-24T16:26:07.383Z</time></trkpt><trkpt lat="46.0423908" lon="12.1010705"><ele>548.0</ele><time>2026-04-24T16:26:10.374Z</time></trkpt><trkpt lat="46.0423527" lon="12.1011476"><ele>549.0</ele><time>2026-04-24T16:26:13.377Z</time></trkpt><trkpt lat="46.0423117" lon="12.1012515"><ele>549.2857142857142</ele><time>2026-04-24T16:26:17.386Z</time></trkpt><trkpt lat="46.0422889" lon="12.1013404"><ele>549.5714285714286</ele><time>2026-04-24T16:26:20.382Z</time></trkpt><trkpt lat="46.0422627" lon="12.1014319"><ele>549.8571428571429</ele><time>2026-04-24T16:26:23.378Z</time></trkpt><trkpt lat="46.042238" lon="12.101523"><ele>550.1428571428571</ele><time>2026-04-24T16:26:26.388Z</time></trkpt><trkpt lat="46.0422155" lon="12.1016167"><ele>550.4285714285714</ele><time>2026-04-24T16:26:29.37Z</time></trkpt><trkpt lat="46.0421938" lon="12.1017094"><ele>550.7142857142857</ele><time>2026-04-24T16:26:32.382Z</time></trkpt><trkpt lat="46.0421727" lon="12.101806"><ele>551.0</ele><time>2026-04-24T16:26:35.379Z</time></trkpt><trkpt lat="46.0421573" lon="12.1018991"><ele>551.2857142857142</ele><time>2026-04-24T16:26:38.379Z</time></trkpt><trkpt lat="46.0421429" lon="12.1019942"><ele>551.5714285714286</ele><time>2026-04-24T16:26:41.375Z</time></trkpt><trkpt lat="46.0421297" lon="12.1020908"><ele>551.8571428571429</ele><time>2026-04-24T16:26:44.373Z</time></trkpt><trkpt lat="46.0421268" lon="12.1021911"><ele>552.1428571428571</ele><time>2026-04-24T16:26:47.385Z</time></trkpt><trkpt lat="46.0421256" lon="12.1022859"><ele>552.4285714285714</ele><time>2026-04-24T16:26:50.38Z</time></trkpt><trkpt lat="46.0421291" lon="12.1023781"><ele>552.7142857142857</ele><time>2026-04-24T16:26:53.377Z</time></trkpt><trkpt lat="46.0421314" lon="12.1024748"><ele>553.0</ele><time>2026-04-24T16:26:56.38Z</time></trkpt><trkpt lat="46.0421339" lon="12.1025715"><ele>553.6666666666667</ele><time>2026-04-24T16:26:59.41Z</time></trkpt><trkpt lat="46.0421373" lon="12.1026714"><ele>554.3333333333334</ele><time>2026-04-24T16:27:02.378Z</time></trkpt><trkpt lat="46.0421343" lon="12.1027741"><ele>555.0</ele><time>2026-04-24T16:27:05.382Z</time></trkpt><trkpt lat="46.0421415" lon="12.1028854"><ele>555.6666666666666</ele><time>2026-04-24T16:27:08.377Z</time></trkpt><trkpt lat="46.0421506" lon="12.1030139"><ele>556.3333333333333</ele><time>2026-04-24T16:27:11.38Z</time></trkpt><trkpt lat="46.0421569" lon="12.1031447"><ele>557.0</ele><time>2026-04-24T16:27:14.375Z</time></trkpt><trkpt lat="46.0421664" lon="12.1032789"><ele>557.5714285714286</ele><time>2026-04-24T16:27:17.378Z</time></trkpt><trkpt lat="46.0421756" lon="12.1033705"><ele>558.1428571428571</ele><time>2026-04-24T16:27:19.379Z</time></trkpt><trkpt lat="46.0421856" lon="12.1034634"><ele>558.7142857142857</ele><time>2026-04-24T16:27:21.387Z</time></trkpt><trkpt lat="46.0421945" lon="12.1035561"><ele>559.2857142857142</ele><time>2026-04-24T16:27:23.408Z</time></trkpt><trkpt lat="46.0421963" lon="12.1036504"><ele>559.8571428571428</ele><time>2026-04-24T16:27:25.378Z</time></trkpt><trkpt lat="46.0421893" lon="12.1037464"><ele>560.4285714285714</ele><time>2026-04-24T16:27:27.381Z</time></trkpt><trkpt lat="46.0421643" lon="12.1038714"><ele>561.0</ele><time>2026-04-24T16:27:30.379Z</time></trkpt><trkpt lat="46.0421023" lon="12.1039548"><ele>561.0</ele><time>2026-04-24T16:27:33.377Z</time></trkpt><trkpt lat="46.0420278" lon="12.1040103"><ele>561.0</ele><time>2026-04-24T16:27:36.377Z</time></trkpt><trkpt lat="46.0419529" lon="12.1040638"><ele>561.0</ele><time>2026-04-24T16:27:39.377Z</time></trkpt><trkpt lat="46.0418775" lon="12.1041112"><ele>561.0</ele><time>2026-04-24T16:27:42.379Z</time></trkpt><trkpt lat="46.0418063" lon="12.1041575"><ele>561.0</ele><time>2026-04-24T16:27:45.383Z</time></trkpt><trkpt lat="46.0417428" lon="12.1042027"><ele>561.0</ele><time>2026-04-24T16:27:48.372Z</time></trkpt><trkpt lat="46.0416797" lon="12.1042499"><ele>562.8571428571429</ele><time>2026-04-24T16:27:51.406Z</time></trkpt><trkpt lat="46.0416174" lon="12.1042949"><ele>564.7142857142857</ele><time>2026-04-24T16:27:54.387Z</time></trkpt><trkpt lat="46.041552" lon="12.1043376"><ele>566.5714285714286</ele><time>2026-04-24T16:27:57.461Z</time></trkpt><trkpt lat="46.0414887" lon="12.1043811"><ele>568.4285714285714</ele><time>2026-04-24T16:28:00.382Z</time></trkpt><trkpt lat="46.0414178" lon="12.1044044"><ele>570.2857142857142</ele><time>2026-04-24T16:28:03.384Z</time></trkpt><trkpt lat="46.0413566" lon="12.1044362"><ele>572.1428571428571</ele><time>2026-04-24T16:28:06.383Z</time></trkpt><trkpt lat="46.0412918" lon="12.1044624"><ele>574.0</ele><time>2026-04-24T16:28:09.382Z</time></trkpt><trkpt lat="46.0412265" lon="12.1044942"><ele>574.0</ele><time>2026-04-24T16:28:12.383Z</time></trkpt><trkpt lat="46.0411587" lon="12.1045223"><ele>574.0</ele><time>2026-04-24T16:28:15.379Z</time></trkpt><trkpt lat="46.0410915" lon="12.104548"><ele>574.0</ele><time>2026-04-24T16:28:18.376Z</time></trkpt><trkpt lat="46.0410231" lon="12.1045792"><ele>574.0</ele><time>2026-04-24T16:28:21.387Z</time></trkpt><trkpt lat="46.0409555" lon="12.1046072"><ele>574.0</ele><time>2026-04-24T16:28:24.384Z</time></trkpt><trkpt lat="46.0408915" lon="12.1046407"><ele>574.0</ele><time>2026-04-24T16:28:27.379Z</time></trkpt><trkpt lat="46.0408302" lon="12.1046867"><ele>574.0</ele><time>2026-04-24T16:28:30.387Z</time></trkpt><trkpt lat="46.0407702" lon="12.1047452"><ele>573.8333333333334</ele><time>2026-04-24T16:28:33.377Z</time></trkpt><trkpt lat="46.040708" lon="12.1048015"><ele>573.6666666666667</ele><time>2026-04-24T16:28:36.382Z</time></trkpt><trkpt lat="46.0406473" lon="12.1048614"><ele>573.5</ele><time>2026-04-24T16:28:39.382Z</time></trkpt><trkpt lat="46.0405846" lon="12.1049225"><ele>573.3333333333334</ele><time>2026-04-24T16:28:42.385Z</time></trkpt><trkpt lat="46.0405196" lon="12.1049827"><ele>573.1666666666666</ele><time>2026-04-24T16:28:45.386Z</time></trkpt><trkpt lat="46.0404506" lon="12.1050266"><ele>573.0</ele><time>2026-04-24T16:28:48.382Z</time></trkpt><trkpt lat="46.0403775" lon="12.1050516"><ele>575.2857142857143</ele><time>2026-04-24T16:28:51.385Z</time></trkpt><trkpt lat="46.0403045" lon="12.1050578"><ele>577.5714285714287</ele><time>2026-04-24T16:28:54.388Z</time></trkpt><trkpt lat="46.0402331" lon="12.1050613"><ele>579.8571428571429</ele><time>2026-04-24T16:28:57.382Z</time></trkpt><trkpt lat="46.0401632" lon="12.1050614"><ele>582.1428571428571</ele><time>2026-04-24T16:29:00.385Z</time></trkpt><trkpt lat="46.0400945" lon="12.1050672"><ele>584.4285714285713</ele><time>2026-04-24T16:29:03.382Z</time></trkpt><trkpt lat="46.0400303" lon="12.1050598"><ele>586.7142857142857</ele><time>2026-04-24T16:29:06.377Z</time></trkpt><trkpt lat="46.0399588" lon="12.1050721"><ele>589.0</ele><time>2026-04-24T16:29:09.386Z</time></trkpt><trkpt lat="46.0398865" lon="12.1050873"><ele>589.0</ele><time>2026-04-24T16:29:12.382Z</time></trkpt><trkpt lat="46.0398166" lon="12.1051086"><ele>589.0</ele><time>2026-04-24T16:29:15.386Z</time></trkpt><trkpt lat="46.0397435" lon="12.1051429"><ele>589.0</ele><time>2026-04-24T16:29:18.374Z</time></trkpt><trkpt lat="46.0396748" lon="12.1051756"><ele>589.0</ele><time>2026-04-24T16:29:21.383Z</time></trkpt><trkpt lat="46.039608" lon="12.1052102"><ele>589.0</ele><time>2026-04-24T16:29:24.381Z</time></trkpt><trkpt lat="46.0395374" lon="12.1052524"><ele>589.0</ele><time>2026-04-24T16:29:27.379Z</time></trkpt><trkpt lat="46.0394769" lon="12.1053096"><ele>589.0</ele><time>2026-04-24T16:29:30.379Z</time></trkpt><trkpt lat="46.0394315" lon="12.1053852"><ele>589.0</ele><time>2026-04-24T16:29:33.381Z</time></trkpt><trkpt lat="46.0394015" lon="12.1054778"><ele>589.0</ele><time>2026-04-24T16:29:36.377Z</time></trkpt><trkpt lat="46.0393935" lon="12.1055823"><ele>589.0</ele><time>2026-04-24T16:29:39.382Z</time></trkpt><trkpt lat="46.0394015" lon="12.1056801"><ele>589.0</ele><time>2026-04-24T16:29:42.375Z</time></trkpt><trkpt lat="46.0394004" lon="12.1057753"><ele>589.0</ele><time>2026-04-24T16:29:45.386Z</time></trkpt><trkpt lat="46.039362" lon="12.1058755"><ele>589.0</ele><time>2026-04-24T16:29:48.377Z</time></trkpt><trkpt lat="46.0393158" lon="12.1059625"><ele>589.0</ele><time>2026-04-24T16:29:50.384Z</time></trkpt><trkpt lat="46.0392593" lon="12.1060525"><ele>590.1666666666667</ele><time>2026-04-24T16:29:52.385Z</time></trkpt><trkpt lat="46.0391963" lon="12.1061397"><ele>591.3333333333334</ele><time>2026-04-24T16:29:54.381Z</time></trkpt><trkpt lat="46.0391351" lon="12.1062299"><ele>592.5</ele><time>2026-04-24T16:29:56.378Z</time></trkpt><trkpt lat="46.0390742" lon="12.1063263"><ele>593.6666666666666</ele><time>2026-04-24T16:29:58.377Z</time></trkpt><trkpt lat="46.0390134" lon="12.1064183"><ele>594.8333333333333</ele><time>2026-04-24T16:30:00.373Z</time></trkpt><trkpt lat="46.0389506" lon="12.1065199"><ele>596.0</ele><time>2026-04-24T16:30:02.381Z</time></trkpt><trkpt lat="46.0388684" lon="12.1065969"><ele>596.0</ele><time>2026-04-24T16:30:04.378Z</time></trkpt><trkpt lat="46.0387897" lon="12.1066292"><ele>596.0</ele><time>2026-04-24T16:30:06.372Z</time></trkpt><trkpt lat="46.0387202" lon="12.1066558"><ele>596.0</ele><time>2026-04-24T16:30:08.371Z</time></trkpt><trkpt lat="46.0386302" lon="12.1066922"><ele>596.0</ele><time>2026-04-24T16:30:11.378Z</time></trkpt><trkpt lat="46.0385671" lon="12.1067163"><ele>596.0</ele><time>2026-04-24T16:30:13.379Z</time></trkpt><trkpt lat="46.0384974" lon="12.1067473"><ele>596.0</ele><time>2026-04-24T16:30:15.371Z</time></trkpt><trkpt lat="46.0384203" lon="12.1067671"><ele>596.0</ele><time>2026-04-24T16:30:17.379Z</time></trkpt><trkpt lat="46.0383435" lon="12.1067949"><ele>596.0</ele><time>2026-04-24T16:30:19.38Z</time></trkpt><trkpt lat="46.0382655" lon="12.1068146"><ele>596.0</ele><time>2026-04-24T16:30:21.371Z</time></trkpt><trkpt lat="46.0381872" lon="12.1068346"><ele>596.0</ele><time>2026-04-24T16:30:23.378Z</time></trkpt><trkpt lat="46.0381145" lon="12.1068702"><ele>596.0</ele><time>2026-04-24T16:30:25.377Z</time></trkpt><trkpt lat="46.0380519" lon="12.1069252"><ele>596.0</ele><time>2026-04-24T16:30:27.378Z</time></trkpt><trkpt lat="46.037996" lon="12.1069935"><ele>595.8333333333333</ele><time>2026-04-24T16:30:29.376Z</time></trkpt><trkpt lat="46.0379455" lon="12.1070687"><ele>595.6666666666666</ele><time>2026-04-24T16:30:31.402Z</time></trkpt><trkpt lat="46.0379036" lon="12.1071519"><ele>595.5</ele><time>2026-04-24T16:30:33.374Z</time></trkpt><trkpt lat="46.0378618" lon="12.1072539"><ele>595.3333333333334</ele><time>2026-04-24T16:30:35.373Z</time></trkpt><trkpt lat="46.037814" lon="12.1073685"><ele>595.1666666666667</ele><time>2026-04-24T16:30:37.375Z</time></trkpt><trkpt lat="46.0377436" lon="12.1074482"><ele>595.0</ele><time>2026-04-24T16:30:39.389Z</time></trkpt><trkpt lat="46.0376528" lon="12.1074851"><ele>596.3333333333334</ele><time>2026-04-24T16:30:41.382Z</time></trkpt><trkpt lat="46.0375717" lon="12.1074944"><ele>597.6666666666667</ele><time>2026-04-24T16:30:43.374Z</time></trkpt><trkpt lat="46.0375019" lon="12.1074952"><ele>599.0</ele><time>2026-04-24T16:30:45.375Z</time></trkpt><trkpt lat="46.0374285" lon="12.1075029"><ele>600.3333333333334</ele><time>2026-04-24T16:30:47.378Z</time></trkpt><trkpt lat="46.037362" lon="12.1075193"><ele>601.6666666666666</ele><time>2026-04-24T16:30:49.41Z</time></trkpt><trkpt lat="46.0372745" lon="12.1075654"><ele>603.0</ele><time>2026-04-24T16:30:52.37Z</time></trkpt><trkpt lat="46.0371961" lon="12.1076197"><ele>603.0</ele><time>2026-04-24T16:30:55.375Z</time></trkpt><trkpt lat="46.0371248" lon="12.1076758"><ele>603.0</ele><time>2026-04-24T16:30:58.371Z</time></trkpt><trkpt lat="46.0370621" lon="12.1077425"><ele>603.0</ele><time>2026-04-24T16:31:01.373Z</time></trkpt><trkpt lat="46.0369928" lon="12.1078063"><ele>603.0</ele><time>2026-04-24T16:31:04.376Z</time></trkpt><trkpt lat="46.036921" lon="12.1078714"><ele>603.0</ele><time>2026-04-24T16:31:07.373Z</time></trkpt><trkpt lat="46.0368557" lon="12.1079302"><ele>603.0</ele><time>2026-04-24T16:31:10.374Z</time></trkpt><trkpt lat="46.0367947" lon="12.1079856"><ele>603.0</ele><time>2026-04-24T16:31:13.461Z</time></trkpt><trkpt lat="46.0367303" lon="12.1080406"><ele>603.0</ele><time>2026-04-24T16:31:16.377Z</time></trkpt><trkpt lat="46.0366545" lon="12.1080912"><ele>603.0</ele><time>2026-04-24T16:31:19.373Z</time></trkpt><trkpt lat="46.0365764" lon="12.1081472"><ele>603.0</ele><time>2026-04-24T16:31:22.376Z</time></trkpt><trkpt lat="46.0364958" lon="12.1082036"><ele>603.0</ele><time>2026-04-24T16:31:25.386Z</time></trkpt><trkpt lat="46.0364355" lon="12.108253"><ele>603.0</ele><time>2026-04-24T16:31:27.379Z</time></trkpt><trkpt lat="46.0363499" lon="12.1083116"><ele>603.1666666666666</ele><time>2026-04-24T16:31:30.381Z</time></trkpt><trkpt lat="46.0362824" lon="12.1083697"><ele>603.3333333333334</ele><time>2026-04-24T16:31:33.378Z</time></trkpt><trkpt lat="46.0362208" lon="12.1084329"><ele>603.5</ele><time>2026-04-24T16:31:36.384Z</time></trkpt><trkpt lat="46.0361652" lon="12.1084984"><ele>603.6666666666667</ele><time>2026-04-24T16:31:39.379Z</time></trkpt><trkpt lat="46.0361189" lon="12.108573"><ele>603.8333333333334</ele><time>2026-04-24T16:31:42.379Z</time></trkpt><trkpt lat="46.0360896" lon="12.1086734"><ele>604.0</ele><time>2026-04-24T16:31:45.392Z</time></trkpt><trkpt lat="46.0360949" lon="12.1087977"><ele>604.0</ele><time>2026-04-24T16:31:48.376Z</time></trkpt><trkpt lat="46.0360971" lon="12.10892"><ele>604.0</ele><time>2026-04-24T16:31:51.374Z</time></trkpt><trkpt lat="46.0361054" lon="12.1090419"><ele>604.0</ele><time>2026-04-24T16:31:54.379Z</time></trkpt><trkpt lat="46.0361092" lon="12.109162"><ele>604.0</ele><time>2026-04-24T16:31:57.375Z</time></trkpt><trkpt lat="46.036102" lon="12.1092748"><ele>604.0</ele><time>2026-04-24T16:32:00.375Z</time></trkpt><trkpt lat="46.0360812" lon="12.1093894"><ele>604.0</ele><time>2026-04-24T16:32:03.379Z</time></trkpt><trkpt lat="46.0360596" lon="12.1094995"><ele>605.3333333333334</ele><time>2026-04-24T16:32:06.387Z</time></trkpt><trkpt lat="46.0360385" lon="12.1096057"><ele>606.6666666666667</ele><time>2026-04-24T16:32:09.383Z</time></trkpt><trkpt lat="46.0360149" lon="12.1097167"><ele>608.0</ele><time>2026-04-24T16:32:12.381Z</time></trkpt><trkpt lat="46.0359958" lon="12.1098312"><ele>609.3333333333334</ele><time>2026-04-24T16:32:15.379Z</time></trkpt><trkpt lat="46.035973" lon="12.1099506"><ele>610.6666666666666</ele><time>2026-04-24T16:32:18.378Z</time></trkpt><trkpt lat="46.0359385" lon="12.1100745"><ele>612.0</ele><time>2026-04-24T16:32:21.381Z</time></trkpt><trkpt lat="46.0359175" lon="12.1101621"><ele>611.1666666666666</ele><time>2026-04-24T16:32:23.381Z</time></trkpt><trkpt lat="46.0358849" lon="12.1102456"><ele>610.3333333333334</ele><time>2026-04-24T16:32:25.379Z</time></trkpt><trkpt lat="46.0358487" lon="12.1103291"><ele>609.5</ele><time>2026-04-24T16:32:27.373Z</time></trkpt><trkpt lat="46.0358098" lon="12.1104196"><ele>608.6666666666667</ele><time>2026-04-24T16:32:29.377Z</time></trkpt><trkpt lat="46.0357736" lon="12.1105212"><ele>607.8333333333334</ele><time>2026-04-24T16:32:31.378Z</time></trkpt><trkpt lat="46.0357285" lon="12.1106238"><ele>607.0</ele><time>2026-04-24T16:32:33.38Z</time></trkpt><trkpt lat="46.0356822" lon="12.1107377"><ele>609.2</ele><time>2026-04-24T16:32:35.38Z</time></trkpt><trkpt lat="46.0356287" lon="12.1108541"><ele>611.4000000000001</ele><time>2026-04-24T16:32:37.372Z</time></trkpt><trkpt lat="46.0355576" lon="12.11094"><ele>613.5999999999999</ele><time>2026-04-24T16:32:39.38Z</time></trkpt><trkpt lat="46.035469" lon="12.1110098"><ele>615.8</ele><time>2026-04-24T16:32:41.375Z</time></trkpt><trkpt lat="46.0353637" lon="12.1110329"><ele>618.0</ele><time>2026-04-24T16:32:43.379Z</time></trkpt><trkpt lat="46.0352697" lon="12.1110519"><ele>618.0</ele><time>2026-04-24T16:32:45.377Z</time></trkpt><trkpt lat="46.0351802" lon="12.1110735"><ele>618.0</ele><time>2026-04-24T16:32:47.381Z</time></trkpt><trkpt lat="46.0351016" lon="12.1111005"><ele>618.0</ele><time>2026-04-24T16:32:49.4Z</time></trkpt><trkpt lat="46.0350332" lon="12.1111407"><ele>618.0</ele><time>2026-04-24T16:32:51.375Z</time></trkpt><trkpt lat="46.0349611" lon="12.1111918"><ele>618.0</ele><time>2026-04-24T16:32:54.385Z</time></trkpt><trkpt lat="46.0348798" lon="12.1112283"><ele>618.0</ele><time>2026-04-24T16:32:57.383Z</time></trkpt><trkpt lat="46.034798" lon="12.1112675"><ele>617.6666666666666</ele><time>2026-04-24T16:33:00.379Z</time></trkpt><trkpt lat="46.0347382" lon="12.1113092"><ele>617.3333333333334</ele><time>2026-04-24T16:33:02.379Z</time></trkpt><trkpt lat="46.034674" lon="12.111363"><ele>617.0</ele><time>2026-04-24T16:33:04.382Z</time></trkpt><trkpt lat="46.0345952" lon="12.1114174"><ele>616.6666666666667</ele><time>2026-04-24T16:33:06.374Z</time></trkpt><trkpt lat="46.034496" lon="12.1114356"><ele>616.3333333333334</ele><time>2026-04-24T16:33:08.374Z</time></trkpt><trkpt lat="46.0343883" lon="12.1114494"><ele>616.0</ele><time>2026-04-24T16:33:10.387Z</time></trkpt><trkpt lat="46.0342663" lon="12.1114765"><ele>616.0</ele><time>2026-04-24T16:33:12.376Z</time></trkpt><trkpt lat="46.0342019" lon="12.1114915"><ele>616.0</ele><time>2026-04-24T16:33:13.402Z</time></trkpt><trkpt lat="46.0341343" lon="12.1114768"><ele>616.0</ele><time>2026-04-24T16:33:14.381Z</time></trkpt><trkpt lat="46.0340719" lon="12.1114397"><ele>616.0</ele><time>2026-04-24T16:33:15.38Z</time></trkpt><trkpt lat="46.0339693" lon="12.1113418"><ele>616.0</ele><time>2026-04-24T16:33:17.386Z</time></trkpt><trkpt lat="46.0339137" lon="12.1112958"><ele>616.0</ele><time>2026-04-24T16:33:18.38Z</time></trkpt><trkpt lat="46.033854" lon="12.1112664"><ele>614.3333333333334</ele><time>2026-04-24T16:33:19.377Z</time></trkpt><trkpt lat="46.0337886" lon="12.1112586"><ele>612.6666666666667</ele><time>2026-04-24T16:33:20.379Z</time></trkpt><trkpt lat="46.0337244" lon="12.1112705"><ele>611.0</ele><time>2026-04-24T16:33:21.384Z</time></trkpt><trkpt lat="46.0336137" lon="12.1113236"><ele>609.3333333333334</ele><time>2026-04-24T16:33:23.388Z</time></trkpt><trkpt lat="46.0335195" lon="12.1113779"><ele>607.6666666666666</ele><time>2026-04-24T16:33:25.387Z</time></trkpt><trkpt lat="46.0334344" lon="12.1114325"><ele>606.0</ele><time>2026-04-24T16:33:27.385Z</time></trkpt><trkpt lat="46.0333505" lon="12.1114843"><ele>606.5</ele><time>2026-04-24T16:33:29.379Z</time></trkpt><trkpt lat="46.0332684" lon="12.1115412"><ele>607.0</ele><time>2026-04-24T16:33:31.388Z</time></trkpt><trkpt lat="46.0331867" lon="12.1116011"><ele>607.5</ele><time>2026-04-24T16:33:33.384Z</time></trkpt><trkpt lat="46.0331019" lon="12.1116643"><ele>608.0</ele><time>2026-04-24T16:33:35.394Z</time></trkpt><trkpt lat="46.0330269" lon="12.1117042"><ele>608.5</ele><time>2026-04-24T16:33:37.386Z</time></trkpt><trkpt lat="46.0329448" lon="12.1117216"><ele>609.0</ele><time>2026-04-24T16:33:39.378Z</time></trkpt><trkpt lat="46.0328731" lon="12.1117389"><ele>609.0</ele><time>2026-04-24T16:33:41.375Z</time></trkpt><trkpt lat="46.0328102" lon="12.1117713"><ele>609.0</ele><time>2026-04-24T16:33:43.393Z</time></trkpt><trkpt lat="46.0327501" lon="12.1118045"><ele>609.0</ele><time>2026-04-24T16:33:45.397Z</time></trkpt><trkpt lat="46.0326895" lon="12.1118517"><ele>609.0</ele><time>2026-04-24T16:33:47.391Z</time></trkpt><trkpt lat="46.0326101" lon="12.1119059"><ele>609.0</ele><time>2026-04-24T16:33:49.392Z</time></trkpt><trkpt lat="46.0325193" lon="12.1119437"><ele>609.0</ele><time>2026-04-24T16:33:51.38Z</time></trkpt><trkpt lat="46.0324533" lon="12.1119706"><ele>605.6666666666666</ele><time>2026-04-24T16:33:53.392Z</time></trkpt><trkpt lat="46.0323907" lon="12.112047"><ele>602.3333333333334</ele><time>2026-04-24T16:33:56.386Z</time></trkpt><trkpt lat="46.0323679" lon="12.1121418"><ele>599.0</ele><time>2026-04-24T16:33:58.378Z</time></trkpt><trkpt lat="46.0323673" lon="12.1122688"><ele>595.6666666666667</ele><time>2026-04-24T16:34:00.386Z</time></trkpt><trkpt lat="46.0323618" lon="12.1123885"><ele>592.3333333333334</ele><time>2026-04-24T16:34:02.371Z</time></trkpt><trkpt lat="46.0323196" lon="12.1124779"><ele>589.0</ele><time>2026-04-24T16:34:04.391Z</time></trkpt><trkpt lat="46.0322888" lon="12.1125602"><ele>589.0</ele><time>2026-04-24T16:34:06.38Z</time></trkpt><trkpt lat="46.0322379" lon="12.112614"><ele>589.0</ele><time>2026-04-24T16:34:08.385Z</time></trkpt><trkpt lat="46.0321859" lon="12.1126989"><ele>589.0</ele><time>2026-04-24T16:34:11.392Z</time></trkpt><trkpt lat="46.0321184" lon="12.1127682"><ele>589.0</ele><time>2026-04-24T16:34:14.381Z</time></trkpt><trkpt lat="46.0320353" lon="12.1128156"><ele>589.0</ele><time>2026-04-24T16:34:17.378Z</time></trkpt><trkpt lat="46.0319732" lon="12.1128878"><ele>589.0</ele><time>2026-04-24T16:34:21.379Z</time></trkpt><trkpt lat="46.0319856" lon="12.1130223"><ele>589.0</ele><time>2026-04-24T16:34:25.377Z</time></trkpt><trkpt lat="46.0320534" lon="12.1131502"><ele>589.0</ele><time>2026-04-24T16:34:27.375Z</time></trkpt><trkpt lat="46.0320879" lon="12.1132348"><ele>589.0</ele><time>2026-04-24T16:34:28.376Z</time></trkpt><trkpt lat="46.0321253" lon="12.1133256"><ele>589.0</ele><time>2026-04-24T16:34:29.375Z</time></trkpt><trkpt lat="46.0321588" lon="12.1134179"><ele>589.0</ele><time>2026-04-24T16:34:30.375Z</time></trkpt><trkpt lat="46.0321864" lon="12.113516"><ele>589.0</ele><time>2026-04-24T16:34:31.377Z</time></trkpt><trkpt lat="46.0322024" lon="12.11361"><ele>589.75</ele><time>2026-04-24T16:34:32.378Z</time></trkpt><trkpt lat="46.0322116" lon="12.113782"><ele>590.5</ele><time>2026-04-24T16:34:34.378Z</time></trkpt><trkpt lat="46.0321876" lon="12.1139511"><ele>591.25</ele><time>2026-04-24T16:34:36.379Z</time></trkpt><trkpt lat="46.0321369" lon="12.1141071"><ele>592.0</ele><time>2026-04-24T16:34:38.377Z</time></trkpt><trkpt lat="46.0320802" lon="12.1142316"><ele>592.0</ele><time>2026-04-24T16:34:40.395Z</time></trkpt><trkpt lat="46.032041" lon="12.1143583"><ele>592.0</ele><time>2026-04-24T16:34:42.381Z</time></trkpt><trkpt lat="46.0320505" lon="12.1144864"><ele>592.0</ele><time>2026-04-24T16:34:44.381Z</time></trkpt><trkpt lat="46.0320814" lon="12.1146234"><ele>592.0</ele><time>2026-04-24T16:34:46.378Z</time></trkpt><trkpt lat="46.0321197" lon="12.1147722"><ele>592.0</ele><time>2026-04-24T16:34:48.396Z</time></trkpt><trkpt lat="46.0321724" lon="12.1149271"><ele>591.8000000000001</ele><time>2026-04-24T16:34:50.382Z</time></trkpt><trkpt lat="46.0322302" lon="12.1150741"><ele>591.6</ele><time>2026-04-24T16:34:52.374Z</time></trkpt><trkpt lat="46.0322684" lon="12.1152325"><ele>591.4000000000001</ele><time>2026-04-24T16:34:54.378Z</time></trkpt><trkpt lat="46.0322839" lon="12.1154007"><ele>591.2</ele><time>2026-04-24T16:34:56.376Z</time></trkpt><trkpt lat="46.032286" lon="12.1154924"><ele>591.0</ele><time>2026-04-24T16:34:57.379Z</time></trkpt><trkpt lat="46.0322803" lon="12.1155887"><ele>591.0</ele><time>2026-04-24T16:34:58.39Z</time></trkpt><trkpt lat="46.032276" lon="12.1156878"><ele>591.0</ele><time>2026-04-24T16:34:59.379Z</time></trkpt><trkpt lat="46.032269" lon="12.1157892"><ele>591.0</ele><time>2026-04-24T16:35:00.376Z</time></trkpt><trkpt lat="46.0322709" lon="12.115889"><ele>591.0</ele><time>2026-04-24T16:35:01.377Z</time></trkpt><trkpt lat="46.0322767" lon="12.1159908"><ele>591.0</ele><time>2026-04-24T16:35:02.381Z</time></trkpt><trkpt lat="46.0322897" lon="12.1160886"><ele>591.0</ele><time>2026-04-24T16:35:03.38Z</time></trkpt><trkpt lat="46.0323053" lon="12.1161784"><ele>591.0</ele><time>2026-04-24T16:35:04.377Z</time></trkpt><trkpt lat="46.0323213" lon="12.1163249"><ele>594.6</ele><time>2026-04-24T16:35:06.379Z</time></trkpt><trkpt lat="46.0322717" lon="12.1164339"><ele>598.2</ele><time>2026-04-24T16:35:08.375Z</time></trkpt><trkpt lat="46.0321814" lon="12.1164671"><ele>601.8</ele><time>2026-04-24T16:35:10.38Z</time></trkpt><trkpt lat="46.0320879" lon="12.1164572"><ele>605.4</ele><time>2026-04-24T16:35:12.376Z</time></trkpt><trkpt lat="46.0319962" lon="12.1163937"><ele>609.0</ele><time>2026-04-24T16:35:14.38Z</time></trkpt><trkpt lat="46.0319363" lon="12.1163077"><ele>609.0</ele><time>2026-04-24T16:35:16.383Z</time></trkpt><trkpt lat="46.0318845" lon="12.1162098"><ele>609.0</ele><time>2026-04-24T16:35:18.374Z</time></trkpt><trkpt lat="46.0318487" lon="12.1161148"><ele>609.0</ele><time>2026-04-24T16:35:20.38Z</time></trkpt><trkpt lat="46.0318073" lon="12.1160367"><ele>609.0</ele><time>2026-04-24T16:35:22.379Z</time></trkpt><trkpt lat="46.0317421" lon="12.1159835"><ele>609.0</ele><time>2026-04-24T16:35:24.382Z</time></trkpt><trkpt lat="46.031682" lon="12.1159159"><ele>609.0</ele><time>2026-04-24T16:35:26.377Z</time></trkpt><trkpt lat="46.0316348" lon="12.1158491"><ele>609.0</ele><time>2026-04-24T16:35:28.381Z</time></trkpt><trkpt lat="46.0315615" lon="12.1157724"><ele>604.5</ele><time>2026-04-24T16:35:31.373Z</time></trkpt><trkpt lat="46.0314928" lon="12.1157349"><ele>600.0</ele><time>2026-04-24T16:35:33.375Z</time></trkpt><trkpt lat="46.0314166" lon="12.1156875"><ele>595.5</ele><time>2026-04-24T16:35:35.371Z</time></trkpt><trkpt lat="46.0313525" lon="12.1156386"><ele>591.0</ele><time>2026-04-24T16:35:37.373Z</time></trkpt><trkpt lat="46.0312884" lon="12.1155959"><ele>586.5</ele><time>2026-04-24T16:35:39.374Z</time></trkpt><trkpt lat="46.0312008" lon="12.1155858"><ele>582.0</ele><time>2026-04-24T16:35:41.372Z</time></trkpt><trkpt lat="46.0310958" lon="12.1156077"><ele>582.0</ele><time>2026-04-24T16:35:43.376Z</time></trkpt><trkpt lat="46.0309923" lon="12.1156216"><ele>582.0</ele><time>2026-04-24T16:35:45.373Z</time></trkpt><trkpt lat="46.0308972" lon="12.1156344"><ele>582.0</ele><time>2026-04-24T16:35:47.386Z</time></trkpt><trkpt lat="46.0308224" lon="12.1156555"><ele>582.0</ele><time>2026-04-24T16:35:49.382Z</time></trkpt><trkpt lat="46.030745" lon="12.1156787"><ele>582.0</ele><time>2026-04-24T16:35:51.374Z</time></trkpt><trkpt lat="46.0306812" lon="12.1157202"><ele>582.0</ele><time>2026-04-24T16:35:53.378Z</time></trkpt><trkpt lat="46.0306093" lon="12.1157797"><ele>586.6666666666666</ele><time>2026-04-24T16:35:55.374Z</time></trkpt><trkpt lat="46.0305336" lon="12.1158375"><ele>591.3333333333334</ele><time>2026-04-24T16:35:57.386Z</time></trkpt><trkpt lat="46.0304762" lon="12.115916"><ele>596.0</ele><time>2026-04-24T16:35:59.385Z</time></trkpt><trkpt lat="46.0304161" lon="12.115971"><ele>600.6666666666667</ele><time>2026-04-24T16:36:01.382Z</time></trkpt><trkpt lat="46.0303346" lon="12.1160295"><ele>605.3333333333334</ele><time>2026-04-24T16:36:04.389Z</time></trkpt><trkpt lat="46.03027" lon="12.1160644"><ele>610.0</ele><time>2026-04-24T16:36:06.376Z</time></trkpt><trkpt lat="46.0301929" lon="12.1160679"><ele>610.0</ele><time>2026-04-24T16:36:08.382Z</time></trkpt><trkpt lat="46.0301159" lon="12.1160647"><ele>610.0</ele><time>2026-04-24T16:36:10.388Z</time></trkpt><trkpt lat="46.0300365" lon="12.1160433"><ele>610.0</ele><time>2026-04-24T16:36:12.392Z</time></trkpt><trkpt lat="46.029968" lon="12.1160215"><ele>610.0</ele><time>2026-04-24T16:36:14.383Z</time></trkpt><trkpt lat="46.0299003" lon="12.115997"><ele>610.0</ele><time>2026-04-24T16:36:16.376Z</time></trkpt><trkpt lat="46.0298387" lon="12.1159779"><ele>610.0</ele><time>2026-04-24T16:36:18.388Z</time></trkpt><trkpt lat="46.0297581" lon="12.1159306"><ele>610.0</ele><time>2026-04-24T16:36:21.385Z</time></trkpt><trkpt lat="46.0296897" lon="12.1159126"><ele>610.1666666666667</ele><time>2026-04-24T16:36:23.385Z</time></trkpt><trkpt lat="46.0296182" lon="12.1158945"><ele>610.3333333333334</ele><time>2026-04-24T16:36:25.388Z</time></trkpt><trkpt lat="46.029543" lon="12.1158831"><ele>610.5</ele><time>2026-04-24T16:36:27.378Z</time></trkpt><trkpt lat="46.0294569" lon="12.1158994"><ele>610.6666666666666</ele><time>2026-04-24T16:36:30.377Z</time></trkpt><trkpt lat="46.0293862" lon="12.1159229"><ele>610.8333333333333</ele><time>2026-04-24T16:36:33.374Z</time></trkpt><trkpt lat="46.029308" lon="12.1159553"><ele>611.0</ele><time>2026-04-24T16:36:36.381Z</time></trkpt><trkpt lat="46.0292178" lon="12.1159907"><ele>607.6666666666666</ele><time>2026-04-24T16:36:39.386Z</time></trkpt><trkpt lat="46.0291399" lon="12.11602"><ele>604.3333333333333</ele><time>2026-04-24T16:36:42.374Z</time></trkpt><trkpt lat="46.0290598" lon="12.1160488"><ele>601.0</ele><time>2026-04-24T16:36:45.386Z</time></trkpt><trkpt lat="46.0289972" lon="12.1160693"><ele>597.6666666666666</ele><time>2026-04-24T16:36:47.385Z</time></trkpt><trkpt lat="46.0289294" lon="12.1160788"><ele>594.3333333333334</ele><time>2026-04-24T16:36:49.387Z</time></trkpt><trkpt lat="46.0288576" lon="12.1161015"><ele>591.0</ele><time>2026-04-24T16:36:51.373Z</time></trkpt><trkpt lat="46.0287861" lon="12.1161932"><ele>591.0</ele><time>2026-04-24T16:36:53.375Z</time></trkpt><trkpt lat="46.0287449" lon="12.1162988"><ele>591.0</ele><time>2026-04-24T16:36:55.386Z</time></trkpt><trkpt lat="46.0286972" lon="12.1164082"><ele>591.0</ele><time>2026-04-24T16:36:58.373Z</time></trkpt><trkpt lat="46.0286536" lon="12.1165023"><ele>591.0</ele><time>2026-04-24T16:37:01.391Z</time></trkpt><trkpt lat="46.0285779" lon="12.1165712"><ele>591.0</ele><time>2026-04-24T16:37:04.375Z</time></trkpt><trkpt lat="46.0284965" lon="12.1166035"><ele>591.0</ele><time>2026-04-24T16:37:06.381Z</time></trkpt><trkpt lat="46.0283957" lon="12.1166336"><ele>592.8</ele><time>2026-04-24T16:37:08.377Z</time></trkpt><trkpt lat="46.0282887" lon="12.1166532"><ele>594.6</ele><time>2026-04-24T16:37:10.387Z</time></trkpt><trkpt lat="46.0281935" lon="12.1166608"><ele>596.4</ele><time>2026-04-24T16:37:12.377Z</time></trkpt><trkpt lat="46.0281122" lon="12.116698"><ele>598.2</ele><time>2026-04-24T16:37:14.376Z</time></trkpt><trkpt lat="46.0280458" lon="12.1167434"><ele>600.0</ele><time>2026-04-24T16:37:16.388Z</time></trkpt><trkpt lat="46.0279972" lon="12.1168557"><ele>600.0</ele><time>2026-04-24T16:37:18.375Z</time></trkpt><trkpt lat="46.0279251" lon="12.1169327"><ele>600.0</ele><time>2026-04-24T16:37:20.385Z</time></trkpt><trkpt lat="46.0278377" lon="12.116965"><ele>600.0</ele><time>2026-04-24T16:37:22.374Z</time></trkpt><trkpt lat="46.0277424" lon="12.1169732"><ele>600.0</ele><time>2026-04-24T16:37:24.394Z</time></trkpt><trkpt lat="46.0276438" lon="12.1169866"><ele>600.0</ele><time>2026-04-24T16:37:26.373Z</time></trkpt><trkpt lat="46.0275421" lon="12.1170067"><ele>601.1666666666666</ele><time>2026-04-24T16:37:28.384Z</time></trkpt><trkpt lat="46.0274402" lon="12.1170502"><ele>602.3333333333334</ele><time>2026-04-24T16:37:30.369Z</time></trkpt><trkpt lat="46.0273745" lon="12.1171187"><ele>603.5</ele><time>2026-04-24T16:37:32.375Z</time></trkpt><trkpt lat="46.0273069" lon="12.1171381"><ele>604.6666666666667</ele><time>2026-04-24T16:37:34.377Z</time></trkpt><trkpt lat="46.0272607" lon="12.1170631"><ele>605.8333333333334</ele><time>2026-04-24T16:37:36.377Z</time></trkpt><trkpt lat="46.0272131" lon="12.1169987"><ele>607.0</ele><time>2026-04-24T16:37:38.373Z</time></trkpt><trkpt lat="46.0271659" lon="12.1169096"><ele>606.9999999999999</ele><time>2026-04-24T16:37:41.383Z</time></trkpt><trkpt lat="46.0271943" lon="12.1170098"><ele>607.0</ele><time>2026-04-24T16:37:49.399Z</time></trkpt><trkpt lat="46.0272441" lon="12.1170775"><ele>607.0</ele><time>2026-04-24T16:37:53.378Z</time></trkpt><trkpt lat="46.0272963" lon="12.1171299"><ele>607.0</ele><time>2026-04-24T16:38:13.373Z</time></trkpt><trkpt lat="46.0273522" lon="12.1171912"><ele>607.0</ele><time>2026-04-24T16:38:16.375Z</time></trkpt><trkpt lat="46.027302" lon="12.1171302"><ele>606.9999999999999</ele><time>2026-04-24T16:38:24.374Z</time></trkpt><trkpt lat="46.0272314" lon="12.117071"><ele>607.0</ele><time>2026-04-24T16:38:28.383Z</time></trkpt><trkpt lat="46.0271936" lon="12.1169502"><ele>606.9999999999999</ele><time>2026-04-24T16:38:30.397Z</time></trkpt><trkpt lat="46.0271627" lon="12.1168705"><ele>607.0</ele><time>2026-04-24T16:38:32.376Z</time></trkpt><trkpt lat="46.0271353" lon="12.1167747"><ele>607.0</ele><time>2026-04-24T16:38:34.372Z</time></trkpt><trkpt lat="46.0270995" lon="12.1166831"><ele>607.0</ele><time>2026-04-24T16:38:36.373Z</time></trkpt><trkpt lat="46.0270579" lon="12.1166037"><ele>607.0</ele><time>2026-04-24T16:38:38.374Z</time></trkpt><trkpt lat="46.0270167" lon="12.1165308"><ele>606.9999999999999</ele><time>2026-04-24T16:38:40.374Z</time></trkpt><trkpt lat="46.0269822" lon="12.1164403"><ele>607.0</ele><time>2026-04-24T16:38:42.395Z</time></trkpt><trkpt lat="46.0269494" lon="12.1163447"><ele>603.5</ele><time>2026-04-24T16:38:44.371Z</time></trkpt><trkpt lat="46.0269047" lon="12.1162427"><ele>600.0</ele><time>2026-04-24T16:38:46.375Z</time></trkpt><trkpt lat="46.0268408" lon="12.1161389"><ele>596.5</ele><time>2026-04-24T16:38:48.375Z</time></trkpt><trkpt lat="46.0267798" lon="12.1160787"><ele>593.0</ele><time>2026-04-24T16:38:50.402Z</time></trkpt><trkpt lat="46.026705" lon="12.1160789"><ele>589.5</ele><time>2026-04-24T16:38:52.396Z</time></trkpt><trkpt lat="46.026643" lon="12.1161039"><ele>586.0</ele><time>2026-04-24T16:38:53.374Z</time></trkpt><trkpt lat="46.026568" lon="12.1161682"><ele>582.4285714285713</ele><time>2026-04-24T16:38:55.401Z</time></trkpt><trkpt lat="46.0265202" lon="12.1162579"><ele>578.8571428571429</ele><time>2026-04-24T16:38:57.375Z</time></trkpt><trkpt lat="46.026482" lon="12.1163583"><ele>575.2857142857142</ele><time>2026-04-24T16:39:00.372Z</time></trkpt><trkpt lat="46.0264137" lon="12.1163789"><ele>571.7142857142857</ele><time>2026-04-24T16:39:03.375Z</time></trkpt><trkpt lat="46.0263437" lon="12.116365"><ele>568.1428571428571</ele><time>2026-04-24T16:39:07.377Z</time></trkpt><trkpt lat="46.026281" lon="12.116356"><ele>564.5714285714286</ele><time>2026-04-24T16:39:10.382Z</time></trkpt><trkpt lat="46.0262123" lon="12.1163499"><ele>561.0</ele><time>2026-04-24T16:39:13.386Z</time></trkpt><trkpt lat="46.026141" lon="12.1163787"><ele>561.0</ele><time>2026-04-24T16:39:16.376Z</time></trkpt><trkpt lat="46.0260739" lon="12.1164162"><ele>561.0</ele><time>2026-04-24T16:39:19.379Z</time></trkpt><trkpt lat="46.0258956" lon="12.1165725"><ele>561.0</ele><time>2026-04-24T16:39:20.378Z</time></trkpt><trkpt lat="46.0258244" lon="12.1166534"><ele>561.0</ele><time>2026-04-24T16:39:22.373Z</time></trkpt><trkpt lat="46.0257622" lon="12.116753"><ele>562.3333333333334</ele><time>2026-04-24T16:39:24.369Z</time></trkpt><trkpt lat="46.0257166" lon="12.1168499"><ele>563.6666666666666</ele><time>2026-04-24T16:39:26.375Z</time></trkpt><trkpt lat="46.0256802" lon="12.1169459"><ele>565.0</ele><time>2026-04-24T16:39:28.368Z</time></trkpt><trkpt lat="46.0256251" lon="12.1170394"><ele>566.3333333333333</ele><time>2026-04-24T16:39:31.369Z</time></trkpt><trkpt lat="46.0255818" lon="12.1171513"><ele>567.6666666666666</ele><time>2026-04-24T16:39:33.367Z</time></trkpt><trkpt lat="46.0255438" lon="12.1172956"><ele>569.0</ele><time>2026-04-24T16:39:35.368Z</time></trkpt><trkpt lat="46.0255071" lon="12.1174307"><ele>570.6666666666666</ele><time>2026-04-24T16:39:37.373Z</time></trkpt><trkpt lat="46.0254741" lon="12.117548"><ele>572.3333333333333</ele><time>2026-04-24T16:39:39.376Z</time></trkpt><trkpt lat="46.0254487" lon="12.1176504"><ele>574.0</ele><time>2026-04-24T16:39:41.382Z</time></trkpt><trkpt lat="46.0254283" lon="12.117772"><ele>575.6666666666666</ele><time>2026-04-24T16:39:43.385Z</time></trkpt><trkpt lat="46.025395" lon="12.1179008"><ele>577.3333333333334</ele><time>2026-04-24T16:39:45.381Z</time></trkpt><trkpt lat="46.0253414" lon="12.1180078"><ele>579.0</ele><time>2026-04-24T16:39:47.383Z</time></trkpt><trkpt lat="46.025269" lon="12.11809"><ele>579.0</ele><time>2026-04-24T16:39:49.376Z</time></trkpt><trkpt lat="46.0251918" lon="12.118174"><ele>579.0</ele><time>2026-04-24T16:39:51.377Z</time></trkpt><trkpt lat="46.0251327" lon="12.1182336"><ele>579.0</ele><time>2026-04-24T16:39:53.373Z</time></trkpt><trkpt lat="46.0250775" lon="12.1182932"><ele>579.0</ele><time>2026-04-24T16:39:55.376Z</time></trkpt><trkpt lat="46.0250193" lon="12.1183526"><ele>579.0</ele><time>2026-04-24T16:39:57.373Z</time></trkpt><trkpt lat="46.0249497" lon="12.1183956"><ele>579.0</ele><time>2026-04-24T16:40:00.382Z</time></trkpt><trkpt lat="46.0248858" lon="12.1183565"><ele>577.8</ele><time>2026-04-24T16:40:03.382Z</time></trkpt><trkpt lat="46.0248762" lon="12.1182543"><ele>576.5999999999999</ele><time>2026-04-24T16:40:06.385Z</time></trkpt><trkpt lat="46.0248306" lon="12.1181355"><ele>575.4</ele><time>2026-04-24T16:40:08.382Z</time></trkpt><trkpt lat="46.0247338" lon="12.1180719"><ele>574.1999999999999</ele><time>2026-04-24T16:40:10.374Z</time></trkpt><trkpt lat="46.0246222" lon="12.1180241"><ele>573.0</ele><time>2026-04-24T16:40:12.368Z</time></trkpt><trkpt lat="46.0245072" lon="12.1180258"><ele>573.0</ele><time>2026-04-24T16:40:14.368Z</time></trkpt><trkpt lat="46.0244059" lon="12.1180183"><ele>573.0</ele><time>2026-04-24T16:40:16.373Z</time></trkpt><trkpt lat="46.0243156" lon="12.1179959"><ele>573.0</ele><time>2026-04-24T16:40:18.369Z</time></trkpt><trkpt lat="46.0242125" lon="12.1179404"><ele>573.0</ele><time>2026-04-24T16:40:20.376Z</time></trkpt><trkpt lat="46.0240934" lon="12.1178715"><ele>573.0</ele><time>2026-04-24T16:40:22.379Z</time></trkpt><trkpt lat="46.0239903" lon="12.1177769"><ele>572.4</ele><time>2026-04-24T16:40:24.368Z</time></trkpt><trkpt lat="46.0238939" lon="12.117715"><ele>571.8</ele><time>2026-04-24T16:40:26.373Z</time></trkpt><trkpt lat="46.023832" lon="12.1176482"><ele>571.2</ele><time>2026-04-24T16:40:28.368Z</time></trkpt><trkpt lat="46.0238746" lon="12.1175319"><ele>570.6</ele><time>2026-04-24T16:40:32.374Z</time></trkpt><trkpt lat="46.0239604" lon="12.1174881"><ele>570.0</ele><time>2026-04-24T16:40:34.381Z</time></trkpt><trkpt lat="46.024064" lon="12.1174177"><ele>570.0</ele><time>2026-04-24T16:40:36.382Z</time></trkpt><trkpt lat="46.0241203" lon="12.117373"><ele>570.0</ele><time>2026-04-24T16:40:37.375Z</time></trkpt><trkpt lat="46.0242076" lon="12.1173065"><ele>570.0</ele><time>2026-04-24T16:40:39.376Z</time></trkpt><trkpt lat="46.0242392" lon="12.1172121"><ele>570.0</ele><time>2026-04-24T16:40:42.374Z</time></trkpt><trkpt lat="46.0241883" lon="12.1171141"><ele>570.0</ele><time>2026-04-24T16:40:45.376Z</time></trkpt><trkpt lat="46.0240821" lon="12.1170878"><ele>570.0</ele><time>2026-04-24T16:40:47.383Z</time></trkpt><trkpt lat="46.0239675" lon="12.1170529"><ele>570.0</ele><time>2026-04-24T16:40:49.381Z</time></trkpt><trkpt lat="46.0238545" lon="12.117021"><ele>570.0</ele><time>2026-04-24T16:40:51.368Z</time></trkpt><trkpt lat="46.0237439" lon="12.1170369"><ele>570.0</ele><time>2026-04-24T16:40:53.368Z</time></trkpt><trkpt lat="46.0236578" lon="12.1171035"><ele>570.0</ele><time>2026-04-24T16:40:55.382Z</time></trkpt><trkpt lat="46.0235949" lon="12.1171956"><ele>570.0</ele><time>2026-04-24T16:40:57.372Z</time></trkpt><trkpt lat="46.0235245" lon="12.1172788"><ele>570.0</ele><time>2026-04-24T16:40:59.385Z</time></trkpt><trkpt lat="46.0234629" lon="12.1173231"><ele>570.0</ele><time>2026-04-24T16:41:01.386Z</time></trkpt><trkpt lat="46.0233872" lon="12.1173978"><ele>570.0</ele><time>2026-04-24T16:41:04.375Z</time></trkpt><trkpt lat="46.0233162" lon="12.1173532"><ele>570.0</ele><time>2026-04-24T16:41:08.37Z</time></trkpt><trkpt lat="46.0233117" lon="12.1172474"><ele>570.0</ele><time>2026-04-24T16:41:11.383Z</time></trkpt><trkpt lat="46.023354" lon="12.1171591"><ele>570.0</ele><time>2026-04-24T16:41:14.373Z</time></trkpt><trkpt lat="46.0233557" lon="12.1170443"><ele>571.8571428571429</ele><time>2026-04-24T16:41:17.372Z</time></trkpt><trkpt lat="46.0232873" lon="12.1169906"><ele>573.7142857142858</ele><time>2026-04-24T16:41:20.372Z</time></trkpt><trkpt lat="46.0232174" lon="12.11696"><ele>575.5714285714287</ele><time>2026-04-24T16:41:23.375Z</time></trkpt><trkpt lat="46.0231433" lon="12.1169476"><ele>577.4285714285714</ele><time>2026-04-24T16:41:27.374Z</time></trkpt><trkpt lat="46.0230677" lon="12.1169264"><ele>579.2857142857143</ele><time>2026-04-24T16:41:31.384Z</time></trkpt><trkpt lat="46.0229976" lon="12.1168846"><ele>581.1428571428572</ele><time>2026-04-24T16:41:35.378Z</time></trkpt><trkpt lat="46.0229417" lon="12.1168235"><ele>583.0</ele><time>2026-04-24T16:41:39.374Z</time></trkpt><trkpt lat="46.0228975" lon="12.1167367"><ele>583.0000000000001</ele><time>2026-04-24T16:41:43.369Z</time></trkpt><trkpt lat="46.0228507" lon="12.1166615"><ele>583.0</ele><time>2026-04-24T16:41:47.372Z</time></trkpt><trkpt lat="46.0227756" lon="12.1166617"><ele>583.0</ele><time>2026-04-24T16:41:52.372Z</time></trkpt><trkpt lat="46.0228105" lon="12.1165771"><ele>583.0</ele><time>2026-04-24T16:43:52.376Z</time></trkpt><trkpt lat="46.0228462" lon="12.1164888"><ele>583.0</ele><time>2026-04-24T16:43:56.373Z</time></trkpt><trkpt lat="46.0228951" lon="12.1164274"><ele>583.0000000000001</ele><time>2026-04-24T16:44:00.384Z</time></trkpt><trkpt lat="46.0229607" lon="12.1163542"><ele>583.0</ele><time>2026-04-24T16:44:03.382Z</time></trkpt><trkpt lat="46.0230349" lon="12.1162967"><ele>582.8</ele><time>2026-04-24T16:44:05.384Z</time></trkpt><trkpt lat="46.0231297" lon="12.1162575"><ele>582.5999999999999</ele><time>2026-04-24T16:44:07.383Z</time></trkpt><trkpt lat="46.0232103" lon="12.1161859"><ele>582.4000000000001</ele><time>2026-04-24T16:44:09.383Z</time></trkpt><trkpt lat="46.0232727" lon="12.1160808"><ele>582.2</ele><time>2026-04-24T16:44:11.383Z</time></trkpt><trkpt lat="46.0233167" lon="12.1159227"><ele>582.0</ele><time>2026-04-24T16:44:13.381Z</time></trkpt><trkpt lat="46.0233457" lon="12.1157557"><ele>580.6</ele><time>2026-04-24T16:44:15.37Z</time></trkpt><trkpt lat="46.0233958" lon="12.1156107"><ele>579.2</ele><time>2026-04-24T16:44:17.383Z</time></trkpt><trkpt lat="46.0234804" lon="12.115502"><ele>577.8</ele><time>2026-04-24T16:44:19.406Z</time></trkpt><trkpt lat="46.0235868" lon="12.1154709"><ele>576.4</ele><time>2026-04-24T16:44:21.478Z</time></trkpt><trkpt lat="46.0236872" lon="12.1154398"><ele>575.0</ele><time>2026-04-24T16:44:23.375Z</time></trkpt><trkpt lat="46.0237696" lon="12.1154324"><ele>575.0</ele><time>2026-04-24T16:44:25.374Z</time></trkpt><trkpt lat="46.0238394" lon="12.1154212"><ele>575.0</ele><time>2026-04-24T16:44:27.372Z</time></trkpt><trkpt lat="46.0239131" lon="12.1153918"><ele>575.0</ele><time>2026-04-24T16:44:29.377Z</time></trkpt><trkpt lat="46.0239776" lon="12.1153292"><ele>575.0</ele><time>2026-04-24T16:44:31.372Z</time></trkpt><trkpt lat="46.0240304" lon="12.1152382"><ele>575.0</ele><time>2026-04-24T16:44:33.4Z</time></trkpt><trkpt lat="46.0240786" lon="12.1151393"><ele>575.0</ele><time>2026-04-24T16:44:35.374Z</time></trkpt><trkpt lat="46.0241319" lon="12.1150474"><ele>574.3333333333333</ele><time>2026-04-24T16:44:37.381Z</time></trkpt><trkpt lat="46.0241807" lon="12.1149511"><ele>573.6666666666666</ele><time>2026-04-24T16:44:39.381Z</time></trkpt><trkpt lat="46.0242331" lon="12.1148615"><ele>573.0</ele><time>2026-04-24T16:44:41.382Z</time></trkpt><trkpt lat="46.0242826" lon="12.1147664"><ele>572.3333333333334</ele><time>2026-04-24T16:44:43.398Z</time></trkpt><trkpt lat="46.0243304" lon="12.114667"><ele>571.6666666666667</ele><time>2026-04-24T16:44:45.375Z</time></trkpt><trkpt lat="46.0243785" lon="12.1145585"><ele>571.0</ele><time>2026-04-24T16:44:47.408Z</time></trkpt><trkpt lat="46.0244273" lon="12.1144471"><ele>571.0</ele><time>2026-04-24T16:44:49.408Z</time></trkpt><trkpt lat="46.0244817" lon="12.1143334"><ele>571.0</ele><time>2026-04-24T16:44:51.381Z</time></trkpt><trkpt lat="46.0245459" lon="12.1142179"><ele>571.0</ele><time>2026-04-24T16:44:53.404Z</time></trkpt><trkpt lat="46.0246139" lon="12.1140977"><ele>571.0</ele><time>2026-04-24T16:44:55.399Z</time></trkpt><trkpt lat="46.0246891" lon="12.1139704"><ele>571.0</ele><time>2026-04-24T16:44:57.378Z</time></trkpt><trkpt lat="46.0247605" lon="12.1138314"><ele>570.6666666666667</ele><time>2026-04-24T16:44:59.412Z</time></trkpt><trkpt lat="46.0248115" lon="12.1136617"><ele>570.3333333333334</ele><time>2026-04-24T16:45:01.374Z</time></trkpt><trkpt lat="46.0248264" lon="12.1135692"><ele>570.0</ele><time>2026-04-24T16:45:02.381Z</time></trkpt><trkpt lat="46.0248327" lon="12.1134784"><ele>569.6666666666666</ele><time>2026-04-24T16:45:03.381Z</time></trkpt><trkpt lat="46.0248406" lon="12.1133835"><ele>569.3333333333333</ele><time>2026-04-24T16:45:04.38Z</time></trkpt><trkpt lat="46.0248532" lon="12.1132871"><ele>569.0</ele><time>2026-04-24T16:45:05.38Z</time></trkpt><trkpt lat="46.0248734" lon="12.1131945"><ele>568.8333333333333</ele><time>2026-04-24T16:45:06.382Z</time></trkpt><trkpt lat="46.024907" lon="12.1131077"><ele>568.6666666666666</ele><time>2026-04-24T16:45:07.39Z</time></trkpt><trkpt lat="46.024949" lon="12.1130312"><ele>568.5</ele><time>2026-04-24T16:45:08.399Z</time></trkpt><trkpt lat="46.0250008" lon="12.1129769"><ele>568.3333333333334</ele><time>2026-04-24T16:45:09.398Z</time></trkpt><trkpt lat="46.0250623" lon="12.1129331"><ele>568.1666666666667</ele><time>2026-04-24T16:45:10.375Z</time></trkpt><trkpt lat="46.0251231" lon="12.1128992"><ele>568.0</ele><time>2026-04-24T16:45:11.374Z</time></trkpt><trkpt lat="46.0252314" lon="12.1128178"><ele>568.0</ele><time>2026-04-24T16:45:13.4Z</time></trkpt><trkpt lat="46.0253016" lon="12.112687"><ele>568.0</ele><time>2026-04-24T16:45:15.381Z</time></trkpt><trkpt lat="46.0253194" lon="12.1125258"><ele>568.0</ele><time>2026-04-24T16:45:17.383Z</time></trkpt><trkpt lat="46.0252911" lon="12.112371"><ele>568.0</ele><time>2026-04-24T16:45:19.397Z</time></trkpt><trkpt lat="46.0252748" lon="12.11228"><ele>568.0</ele><time>2026-04-24T16:45:20.371Z</time></trkpt><trkpt lat="46.0252514" lon="12.1121022"><ele>567.4</ele><time>2026-04-24T16:45:22.377Z</time></trkpt><trkpt lat="46.025247" lon="12.1119316"><ele>566.8</ele><time>2026-04-24T16:45:24.382Z</time></trkpt><trkpt lat="46.0252599" lon="12.1117749"><ele>566.2</ele><time>2026-04-24T16:45:26.383Z</time></trkpt><trkpt lat="46.0252848" lon="12.1116264"><ele>565.6</ele><time>2026-04-24T16:45:28.382Z</time></trkpt><trkpt lat="46.0253062" lon="12.1114773"><ele>565.0</ele><time>2026-04-24T16:45:30.383Z</time></trkpt><trkpt lat="46.0253421" lon="12.1113329"><ele>564.6</ele><time>2026-04-24T16:45:32.383Z</time></trkpt><trkpt lat="46.0253676" lon="12.111184"><ele>564.2</ele><time>2026-04-24T16:45:34.38Z</time></trkpt><trkpt lat="46.0253998" lon="12.1110225"><ele>563.8</ele><time>2026-04-24T16:45:36.382Z</time></trkpt><trkpt lat="46.0254687" lon="12.1108836"><ele>563.4</ele><time>2026-04-24T16:45:38.384Z</time></trkpt><trkpt lat="46.0255333" lon="12.1107834"><ele>563.0</ele><time>2026-04-24T16:45:40.382Z</time></trkpt><trkpt lat="46.0255961" lon="12.1107363"><ele>561.1666666666666</ele><time>2026-04-24T16:45:42.383Z</time></trkpt><trkpt lat="46.0256682" lon="12.1106505"><ele>559.3333333333333</ele><time>2026-04-24T16:45:55.371Z</time></trkpt><trkpt lat="46.02574" lon="12.1105824"><ele>557.5</ele><time>2026-04-24T16:45:57.379Z</time></trkpt><trkpt lat="46.0258289" lon="12.110487"><ele>555.6666666666666</ele><time>2026-04-24T16:45:59.372Z</time></trkpt><trkpt lat="46.0258834" lon="12.1104298"><ele>553.8333333333334</ele><time>2026-04-24T16:46:00.372Z</time></trkpt><trkpt lat="46.0259404" lon="12.1103704"><ele>552.0</ele><time>2026-04-24T16:46:01.377Z</time></trkpt><trkpt lat="46.0259962" lon="12.1103058"><ele>550.0</ele><time>2026-04-24T16:46:02.372Z</time></trkpt><trkpt lat="46.0260462" lon="12.1102469"><ele>548.0</ele><time>2026-04-24T16:46:03.373Z</time></trkpt><trkpt lat="46.0261451" lon="12.1101418"><ele>546.0</ele><time>2026-04-24T16:46:05.372Z</time></trkpt><trkpt lat="46.0262039" lon="12.1100936"><ele>544.0</ele><time>2026-04-24T16:46:06.374Z</time></trkpt><trkpt lat="46.0263049" lon="12.1100213"><ele>542.0</ele><time>2026-04-24T16:46:08.374Z</time></trkpt><trkpt lat="46.0263882" lon="12.1099383"><ele>539.8333333333333</ele><time>2026-04-24T16:46:10.376Z</time></trkpt><trkpt lat="46.026413" lon="12.109836"><ele>537.6666666666666</ele><time>2026-04-24T16:46:12.377Z</time></trkpt><trkpt lat="46.0263726" lon="12.1097494"><ele>535.5</ele><time>2026-04-24T16:46:15.378Z</time></trkpt><trkpt lat="46.0263148" lon="12.1096918"><ele>533.3333333333334</ele><time>2026-04-24T16:46:17.376Z</time></trkpt><trkpt lat="46.0262515" lon="12.1096298"><ele>531.1666666666667</ele><time>2026-04-24T16:46:19.376Z</time></trkpt><trkpt lat="46.0261797" lon="12.1095535"><ele>529.0</ele><time>2026-04-24T16:46:21.375Z</time></trkpt><trkpt lat="46.0260954" lon="12.1094692"><ele>529.0</ele><time>2026-04-24T16:46:23.383Z</time></trkpt><trkpt lat="46.0260094" lon="12.1093862"><ele>529.0</ele><time>2026-04-24T16:46:25.385Z</time></trkpt><trkpt lat="46.0259221" lon="12.1092974"><ele>529.0</ele><time>2026-04-24T16:46:27.383Z</time></trkpt><trkpt lat="46.0258334" lon="12.1092131"><ele>529.0</ele><time>2026-04-24T16:46:29.384Z</time></trkpt><trkpt lat="46.025748" lon="12.1091086"><ele>529.0</ele><time>2026-04-24T16:46:31.383Z</time></trkpt><trkpt lat="46.0256767" lon="12.1089915"><ele>534.0</ele><time>2026-04-24T16:46:33.382Z</time></trkpt><trkpt lat="46.0256002" lon="12.1089054"><ele>539.0</ele><time>2026-04-24T16:46:35.38Z</time></trkpt><trkpt lat="46.0255402" lon="12.1087879"><ele>544.0</ele><time>2026-04-24T16:46:37.373Z</time></trkpt><trkpt lat="46.0254519" lon="12.1086606"><ele>549.0</ele><time>2026-04-24T16:46:39.371Z</time></trkpt><trkpt lat="46.0253992" lon="12.1085673"><ele>554.0</ele><time>2026-04-24T16:46:41.37Z</time></trkpt><trkpt lat="46.0253698" lon="12.108478"><ele>554.0</ele><time>2026-04-24T16:46:43.376Z</time></trkpt><trkpt lat="46.0253889" lon="12.1083891"><ele>554.0</ele><time>2026-04-24T16:47:01.374Z</time></trkpt><trkpt lat="46.0254622" lon="12.1083458"><ele>554.0</ele><time>2026-04-24T16:47:04.372Z</time></trkpt><trkpt lat="46.0255385" lon="12.1083261"><ele>554.0</ele><time>2026-04-24T16:47:06.373Z</time></trkpt><trkpt lat="46.0256344" lon="12.1083266"><ele>554.0</ele><time>2026-04-24T16:47:09.374Z</time></trkpt><trkpt lat="46.0257275" lon="12.1083168"><ele>554.0</ele><time>2026-04-24T16:47:11.373Z</time></trkpt><trkpt lat="46.0258194" lon="12.1083274"><ele>551.6</ele><time>2026-04-24T16:47:13.373Z</time></trkpt><trkpt lat="46.0259071" lon="12.1083103"><ele>549.2</ele><time>2026-04-24T16:47:15.399Z</time></trkpt><trkpt lat="46.0260033" lon="12.1082906"><ele>546.8000000000001</ele><time>2026-04-24T16:47:17.398Z</time></trkpt><trkpt lat="46.0260846" lon="12.1082663"><ele>544.4</ele><time>2026-04-24T16:47:19.373Z</time></trkpt><trkpt lat="46.0261993" lon="12.1082458"><ele>542.0</ele><time>2026-04-24T16:47:21.375Z</time></trkpt><trkpt lat="46.0262991" lon="12.108222"><ele>542.0</ele><time>2026-04-24T16:47:23.382Z</time></trkpt><trkpt lat="46.0264036" lon="12.1081739"><ele>542.0</ele><time>2026-04-24T16:47:25.383Z</time></trkpt><trkpt lat="46.0264639" lon="12.1080517"><ele>542.0</ele><time>2026-04-24T16:47:27.387Z</time></trkpt><trkpt lat="46.0264837" lon="12.107861"><ele>542.0</ele><time>2026-04-24T16:47:29.374Z</time></trkpt><trkpt lat="46.0264995" lon="12.1077422"><ele>542.0</ele><time>2026-04-24T16:47:30.374Z</time></trkpt><trkpt lat="46.0265211" lon="12.1076341"><ele>542.0</ele><time>2026-04-24T16:47:31.381Z</time></trkpt><trkpt lat="46.0265611" lon="12.1075301"><ele>542.0</ele><time>2026-04-24T16:47:32.394Z</time></trkpt><trkpt lat="46.0266005" lon="12.1074299"><ele>542.0</ele><time>2026-04-24T16:47:33.372Z</time></trkpt><trkpt lat="46.0266563" lon="12.1073464"><ele>542.0</ele><time>2026-04-24T16:47:34.371Z</time></trkpt><trkpt lat="46.0267085" lon="12.1072827"><ele>542.0</ele><time>2026-04-24T16:47:35.371Z</time></trkpt><trkpt lat="46.0268182" lon="12.1071676"><ele>542.0</ele><time>2026-04-24T16:47:37.371Z</time></trkpt><trkpt lat="46.0268907" lon="12.1070357"><ele>538.8000000000001</ele><time>2026-04-24T16:47:39.372Z</time></trkpt><trkpt lat="46.026939" lon="12.106912"><ele>535.6</ele><time>2026-04-24T16:47:41.37Z</time></trkpt><trkpt lat="46.026973" lon="12.1067881"><ele>532.4000000000001</ele><time>2026-04-24T16:47:43.395Z</time></trkpt><trkpt lat="46.0269925" lon="12.1066634"><ele>529.2</ele><time>2026-04-24T16:47:45.374Z</time></trkpt><trkpt lat="46.0270059" lon="12.1065309"><ele>526.0</ele><time>2026-04-24T16:47:47.375Z</time></trkpt><trkpt lat="46.0270178" lon="12.1063977"><ele>526.0</ele><time>2026-04-24T16:47:49.37Z</time></trkpt><trkpt lat="46.0270306" lon="12.1062525"><ele>526.0</ele><time>2026-04-24T16:47:51.37Z</time></trkpt><trkpt lat="46.0270418" lon="12.1061079"><ele>526.0</ele><time>2026-04-24T16:47:53.371Z</time></trkpt><trkpt lat="46.0270554" lon="12.1059659"><ele>526.0</ele><time>2026-04-24T16:47:55.371Z</time></trkpt><trkpt lat="46.0270654" lon="12.1058162"><ele>526.0</ele><time>2026-04-24T16:47:57.373Z</time></trkpt><trkpt lat="46.0270605" lon="12.1056753"><ele>525.0</ele><time>2026-04-24T16:47:59.375Z</time></trkpt><trkpt lat="46.0270458" lon="12.1055493"><ele>524.0</ele><time>2026-04-24T16:48:01.372Z</time></trkpt><trkpt lat="46.0270168" lon="12.1054514"><ele>523.0</ele><time>2026-04-24T16:48:03.395Z</time></trkpt><trkpt lat="46.0269795" lon="12.105376"><ele>522.0</ele><time>2026-04-24T16:48:05.445Z</time></trkpt><trkpt lat="46.0269227" lon="12.1052635"><ele>521.0</ele><time>2026-04-24T16:48:08.374Z</time></trkpt><trkpt lat="46.0268749" lon="12.1051905"><ele>520.0</ele><time>2026-04-24T16:48:10.398Z</time></trkpt><trkpt lat="46.0268161" lon="12.105115"><ele>520.0</ele><time>2026-04-24T16:48:12.373Z</time></trkpt><trkpt lat="46.0267502" lon="12.1050529"><ele>520.0</ele><time>2026-04-24T16:48:14.377Z</time></trkpt><trkpt lat="46.0266824" lon="12.1049941"><ele>520.0</ele><time>2026-04-24T16:48:16.375Z</time></trkpt><trkpt lat="46.0266397" lon="12.1049171"><ele>520.0</ele><time>2026-04-24T16:48:18.375Z</time></trkpt><trkpt lat="46.0266397" lon="12.1048216"><ele>520.0</ele><time>2026-04-24T16:48:20.377Z</time></trkpt><trkpt lat="46.0266886" lon="12.1047292"><ele>520.0</ele><time>2026-04-24T16:48:22.375Z</time></trkpt><trkpt lat="46.0267571" lon="12.1046331"><ele>523.0</ele><time>2026-04-24T16:48:24.38Z</time></trkpt><trkpt lat="46.0268225" lon="12.1045259"><ele>526.0</ele><time>2026-04-24T16:48:26.384Z</time></trkpt><trkpt lat="46.0270654" lon="12.1058162"><ele>525.0</ele><time>2026-04-24T16:47:57.373Z</time></trkpt><trkpt lat="46.0270605" lon="12.1056753"><ele>524.0</ele><time>2026-04-24T16:47:59.375Z</time></trkpt><trkpt lat="46.0270458" lon="12.1055493"><ele>523.0</ele><time>2026-04-24T16:48:01.372Z</time></trkpt><trkpt lat="46.0270168" lon="12.1054514"><ele>522.0</ele><time>2026-04-24T16:48:03.395Z</time></trkpt><trkpt lat="46.0269795" lon="12.105376"><ele>521.0</ele><time>2026-04-24T16:48:05.445Z</time></trkpt><trkpt lat="46.0269227" lon="12.1052635"><ele>520.0</ele><time>2026-04-24T16:48:08.374Z</time></trkpt><trkpt lat="46.0268749" lon="12.1051905"><ele>520.0</ele><time>2026-04-24T16:48:10.398Z</time></trkpt><trkpt lat="46.0268161" lon="12.105115"><ele>520.0</ele><time>2026-04-24T16:48:12.373Z</time></trkpt><trkpt lat="46.0267502" lon="12.1050529"><ele>520.0</ele><time>2026-04-24T16:48:14.377Z</time></trkpt><trkpt lat="46.0266824" lon="12.1049941"><ele>520.0</ele><time>2026-04-24T16:48:16.375Z</time></trkpt><trkpt lat="46.0266397" lon="12.1049171"><ele>520.0</ele><time>2026-04-24T16:48:18.375Z</time></trkpt><trkpt lat="46.0266397" lon="12.1048216"><ele>520.0</ele><time>2026-04-24T16:48:20.377Z</time></trkpt><trkpt lat="46.0266886" lon="12.1047292"><ele>521.6</ele><time>2026-04-24T16:48:22.375Z</time></trkpt><trkpt lat="46.0267571" lon="12.1046331"><ele>523.2</ele><time>2026-04-24T16:48:24.38Z</time></trkpt><trkpt lat="46.0268225" lon="12.1045259"><ele>524.8</ele><time>2026-04-24T16:48:26.384Z</time></trkpt><trkpt lat="46.0268974" lon="12.1044079"><ele>526.4</ele><time>2026-04-24T16:48:28.385Z</time></trkpt><trkpt lat="46.0269757" lon="12.1042796"><ele>528.0</ele><time>2026-04-24T16:48:30.382Z</time></trkpt><trkpt lat="46.0270587" lon="12.1041527"><ele>528.0</ele><time>2026-04-24T16:48:32.382Z</time></trkpt><trkpt lat="46.0271012" lon="12.1040832"><ele>528.0</ele><time>2026-04-24T16:48:33.386Z</time></trkpt><trkpt lat="46.0271978" lon="12.1039534"><ele>528.0</ele><time>2026-04-24T16:48:35.385Z</time></trkpt><trkpt lat="46.0272297" lon="12.1038621"><ele>528.0</ele><time>2026-04-24T16:48:36.386Z</time></trkpt><trkpt lat="46.0272609" lon="12.1037783"><ele>528.0</ele><time>2026-04-24T16:48:37.375Z</time></trkpt><trkpt lat="46.0273365" lon="12.1036408"><ele>529.8333333333334</ele><time>2026-04-24T16:48:39.395Z</time></trkpt><trkpt lat="46.027397" lon="12.1034862"><ele>531.6666666666666</ele><time>2026-04-24T16:48:41.373Z</time></trkpt><trkpt lat="46.0274246" lon="12.1034025"><ele>533.5</ele><time>2026-04-24T16:48:42.37Z</time></trkpt><trkpt lat="46.0274514" lon="12.1033197"><ele>535.3333333333333</ele><time>2026-04-24T16:48:43.375Z</time></trkpt><trkpt lat="46.0274778" lon="12.1032304"><ele>537.1666666666666</ele><time>2026-04-24T16:48:44.396Z</time></trkpt><trkpt lat="46.0274993" lon="12.1031405"><ele>539.0</ele><time>2026-04-24T16:48:45.373Z</time></trkpt><trkpt lat="46.0275314" lon="12.1030528"><ele>537.7142857142857</ele><time>2026-04-24T16:48:46.375Z</time></trkpt><trkpt lat="46.0275593" lon="12.1029597"><ele>536.4285714285714</ele><time>2026-04-24T16:48:47.373Z</time></trkpt><trkpt lat="46.0275905" lon="12.1028643"><ele>535.1428571428571</ele><time>2026-04-24T16:48:48.375Z</time></trkpt><trkpt lat="46.0276195" lon="12.1027836"><ele>533.8571428571429</ele><time>2026-04-24T16:48:49.373Z</time></trkpt><trkpt lat="46.0276486" lon="12.1026943"><ele>532.5714285714286</ele><time>2026-04-24T16:48:50.374Z</time></trkpt><trkpt lat="46.0276749" lon="12.1025966"><ele>531.2857142857142</ele><time>2026-04-24T16:48:51.375Z</time></trkpt><trkpt lat="46.0277057" lon="12.1025039"><ele>530.0</ele><time>2026-04-24T16:48:52.376Z</time></trkpt><trkpt lat="46.0277402" lon="12.1024114"><ele>530.0</ele><time>2026-04-24T16:48:53.374Z</time></trkpt><trkpt lat="46.0277827" lon="12.1023162"><ele>530.0</ele><time>2026-04-24T16:48:54.374Z</time></trkpt><trkpt lat="46.0278354" lon="12.102226"><ele>530.0</ele><time>2026-04-24T16:48:55.372Z</time></trkpt><trkpt lat="46.0278871" lon="12.1021393"><ele>530.0</ele><time>2026-04-24T16:48:56.371Z</time></trkpt><trkpt lat="46.0279403" lon="12.1020597"><ele>530.0</ele><time>2026-04-24T16:48:57.375Z</time></trkpt><trkpt lat="46.0280001" lon="12.1019895"><ele>530.0</ele><time>2026-04-24T16:48:58.376Z</time></trkpt><trkpt lat="46.0280601" lon="12.1019236"><ele>529.9999999999999</ele><time>2026-04-24T16:48:59.371Z</time></trkpt><trkpt lat="46.0281175" lon="12.1018594"><ele>530.0</ele><time>2026-04-24T16:49:00.372Z</time></trkpt><trkpt lat="46.0281705" lon="12.1017925"><ele>530.0</ele><time>2026-04-24T16:49:01.373Z</time></trkpt><trkpt lat="46.0282113" lon="12.1017156"><ele>530.0</ele><time>2026-04-24T16:49:02.375Z</time></trkpt><trkpt lat="46.0282559" lon="12.1016349"><ele>530.0</ele><time>2026-04-24T16:49:03.374Z</time></trkpt><trkpt lat="46.0283089" lon="12.1015507"><ele>529.9999999999999</ele><time>2026-04-24T16:49:04.374Z</time></trkpt><trkpt lat="46.028368" lon="12.1014645"><ele>530.0</ele><time>2026-04-24T16:49:05.375Z</time></trkpt><trkpt lat="46.028435" lon="12.1013754"><ele>527.6</ele><time>2026-04-24T16:49:06.375Z</time></trkpt><trkpt lat="46.0285095" lon="12.1012849"><ele>525.2</ele><time>2026-04-24T16:49:07.381Z</time></trkpt><trkpt lat="46.028586" lon="12.1011899"><ele>522.8</ele><time>2026-04-24T16:49:08.374Z</time></trkpt><trkpt lat="46.028662" lon="12.1010966"><ele>520.4</ele><time>2026-04-24T16:49:09.375Z</time></trkpt><trkpt lat="46.0287321" lon="12.1010081"><ele>518.0</ele><time>2026-04-24T16:49:10.375Z</time></trkpt><trkpt lat="46.0287975" lon="12.1009116"><ele>518.0</ele><time>2026-04-24T16:49:11.399Z</time></trkpt><trkpt lat="46.0288615" lon="12.1008147"><ele>518.0</ele><time>2026-04-24T16:49:12.375Z</time></trkpt><trkpt lat="46.0289233" lon="12.100713"><ele>518.0</ele><time>2026-04-24T16:49:13.373Z</time></trkpt><trkpt lat="46.0289837" lon="12.1006019"><ele>518.0</ele><time>2026-04-24T16:49:14.373Z</time></trkpt><trkpt lat="46.0290401" lon="12.1004852"><ele>518.0</ele><time>2026-04-24T16:49:15.374Z</time></trkpt><trkpt lat="46.0290974" lon="12.1003657"><ele>515.8</ele><time>2026-04-24T16:49:16.376Z</time></trkpt><trkpt lat="46.0291516" lon="12.1002436"><ele>513.5999999999999</ele><time>2026-04-24T16:49:17.375Z</time></trkpt><trkpt lat="46.0292105" lon="12.1001254"><ele>511.40000000000003</ele><time>2026-04-24T16:49:18.372Z</time></trkpt><trkpt lat="46.0292745" lon="12.1000198"><ele>509.20000000000005</ele><time>2026-04-24T16:49:19.376Z</time></trkpt><trkpt lat="46.0293489" lon="12.0999154"><ele>507.0</ele><time>2026-04-24T16:49:20.375Z</time></trkpt><trkpt lat="46.0294238" lon="12.0998226"><ele>513.2</ele><time>2026-04-24T16:49:21.374Z</time></trkpt><trkpt lat="46.029507" lon="12.0997415"><ele>519.4000000000001</ele><time>2026-04-24T16:49:22.375Z</time></trkpt><trkpt lat="46.0295914" lon="12.0996472"><ele>525.5999999999999</ele><time>2026-04-24T16:49:23.373Z</time></trkpt><trkpt lat="46.0296728" lon="12.0995736"><ele>531.8</ele><time>2026-04-24T16:49:24.382Z</time></trkpt><trkpt lat="46.0297598" lon="12.0994982"><ele>538.0</ele><time>2026-04-24T16:49:25.401Z</time></trkpt><trkpt lat="46.0298529" lon="12.0994466"><ele>538.0</ele><time>2026-04-24T16:49:26.4Z</time></trkpt><trkpt lat="46.0299532" lon="12.0994177"><ele>538.0</ele><time>2026-04-24T16:49:27.374Z</time></trkpt><trkpt lat="46.0300515" lon="12.0994248"><ele>538.0</ele><time>2026-04-24T16:49:28.379Z</time></trkpt><trkpt lat="46.0301425" lon="12.0994521"><ele>538.0</ele><time>2026-04-24T16:49:29.367Z</time></trkpt><trkpt lat="46.0302273" lon="12.099495"><ele>538.0</ele><time>2026-04-24T16:49:30.375Z</time></trkpt><trkpt lat="46.0302985" lon="12.0995508"><ele>532.5</ele><time>2026-04-24T16:49:31.374Z</time></trkpt><trkpt lat="46.0303631" lon="12.0996161"><ele>527.0</ele><time>2026-04-24T16:49:32.372Z</time></trkpt><trkpt lat="46.0304201" lon="12.0996959"><ele>521.5</ele><time>2026-04-24T16:49:33.373Z</time></trkpt><trkpt lat="46.0304748" lon="12.0997663"><ele>516.0</ele><time>2026-04-24T16:49:34.398Z</time></trkpt><trkpt lat="46.0305248" lon="12.0998322"><ele>510.50000000000006</ele><time>2026-04-24T16:49:35.373Z</time></trkpt><trkpt lat="46.0305755" lon="12.0998927"><ele>505.0</ele><time>2026-04-24T16:49:36.401Z</time></trkpt><trkpt lat="46.0306738" lon="12.0999902"><ele>500.8</ele><time>2026-04-24T16:49:38.374Z</time></trkpt><trkpt lat="46.0307749" lon="12.1000698"><ele>496.6</ele><time>2026-04-24T16:49:40.375Z</time></trkpt><trkpt lat="46.030865" lon="12.1001375"><ele>492.4</ele><time>2026-04-24T16:49:42.373Z</time></trkpt><trkpt lat="46.0309588" lon="12.100165"><ele>488.2</ele><time>2026-04-24T16:49:44.398Z</time></trkpt><trkpt lat="46.0310398" lon="12.1001725"><ele>484.0</ele><time>2026-04-24T16:49:46.406Z</time></trkpt><trkpt lat="46.0311053" lon="12.1001714"><ele>484.00000000000006</ele><time>2026-04-24T16:49:48.373Z</time></trkpt><trkpt lat="46.0311906" lon="12.1001516"><ele>484.0</ele><time>2026-04-24T16:49:51.375Z</time></trkpt><trkpt lat="46.0312728" lon="12.1001309"><ele>484.0</ele><time>2026-04-24T16:49:54.384Z</time></trkpt><trkpt lat="46.0313378" lon="12.1001043"><ele>484.0</ele><time>2026-04-24T16:49:57.382Z</time></trkpt><trkpt lat="46.0314055" lon="12.1001014"><ele>484.00000000000006</ele><time>2026-04-24T16:50:01.386Z</time></trkpt><trkpt lat="46.0314967" lon="12.1000693"><ele>484.0</ele><time>2026-04-24T16:50:07.366Z</time></trkpt><trkpt lat="46.031572" lon="12.1000409"><ele>483.25</ele><time>2026-04-24T16:50:09.376Z</time></trkpt><trkpt lat="46.031676" lon="12.1000294"><ele>482.5</ele><time>2026-04-24T16:50:11.375Z</time></trkpt><trkpt lat="46.0317949" lon="12.1000315"><ele>481.75</ele><time>2026-04-24T16:50:13.376Z</time></trkpt><trkpt lat="46.0319438" lon="12.0999913"><ele>481.0</ele><time>2026-04-24T16:50:15.375Z</time></trkpt><trkpt lat="46.0320284" lon="12.1000596"><ele>481.0</ele><time>2026-04-24T16:50:16.377Z</time></trkpt><trkpt lat="46.032093" lon="12.1000754"><ele>481.0</ele><time>2026-04-24T16:50:17.382Z</time></trkpt><trkpt lat="46.0322031" lon="12.1001442"><ele>481.0</ele><time>2026-04-24T16:50:19.383Z</time></trkpt><trkpt lat="46.0323341" lon="12.1002115"><ele>481.0</ele><time>2026-04-24T16:50:21.372Z</time></trkpt><trkpt lat="46.0323955" lon="12.1003176"><ele>481.0</ele><time>2026-04-24T16:50:22.38Z</time></trkpt><trkpt lat="46.032444" lon="12.100458"><ele>481.00000000000006</ele><time>2026-04-24T16:50:23.382Z</time></trkpt><trkpt lat="46.0324716" lon="12.1005667"><ele>481.0</ele><time>2026-04-24T16:50:24.384Z</time></trkpt><trkpt lat="46.032488" lon="12.1006907"><ele>481.0</ele><time>2026-04-24T16:50:25.374Z</time></trkpt><trkpt lat="46.032505" lon="12.1008045"><ele>481.0</ele><time>2026-04-24T16:50:26.374Z</time></trkpt><trkpt lat="46.0325221" lon="12.1009115"><ele>481.00000000000006</ele><time>2026-04-24T16:50:27.375Z</time></trkpt><trkpt lat="46.0325462" lon="12.1010243"><ele>481.0</ele><time>2026-04-24T16:50:28.374Z</time></trkpt><trkpt lat="46.0325635" lon="12.1011348"><ele>480.1428571428571</ele><time>2026-04-24T16:50:29.373Z</time></trkpt><trkpt lat="46.0325853" lon="12.101248"><ele>479.2857142857143</ele><time>2026-04-24T16:50:30.374Z</time></trkpt><trkpt lat="46.0326027" lon="12.1013532"><ele>478.42857142857144</ele><time>2026-04-24T16:50:31.373Z</time></trkpt><trkpt lat="46.0326204" lon="12.1014535"><ele>477.57142857142856</ele><time>2026-04-24T16:50:32.372Z</time></trkpt><trkpt lat="46.0326344" lon="12.1015534"><ele>476.7142857142858</ele><time>2026-04-24T16:50:33.373Z</time></trkpt><trkpt lat="46.0326489" lon="12.101652"><ele>475.8571428571429</ele><time>2026-04-24T16:50:34.375Z</time></trkpt><trkpt lat="46.0326656" lon="12.1017474"><ele>475.0</ele><time>2026-04-24T16:50:35.381Z</time></trkpt><trkpt lat="46.0326816" lon="12.1018404"><ele>475.0</ele><time>2026-04-24T16:50:36.383Z</time></trkpt><trkpt lat="46.0327078" lon="12.1019292"><ele>475.00000000000006</ele><time>2026-04-24T16:50:37.382Z</time></trkpt><trkpt lat="46.0327403" lon="12.1020089"><ele>475.0</ele><time>2026-04-24T16:50:38.382Z</time></trkpt><trkpt lat="46.0327845" lon="12.1020854"><ele>475.0</ele><time>2026-04-24T16:50:39.381Z</time></trkpt><trkpt lat="46.0328327" lon="12.1021531"><ele>475.00000000000006</ele><time>2026-04-24T16:50:40.383Z</time></trkpt><trkpt lat="46.0328806" lon="12.1022134"><ele>475.0</ele><time>2026-04-24T16:50:41.383Z</time></trkpt><trkpt lat="46.0329337" lon="12.1022696"><ele>475.0</ele><time>2026-04-24T16:50:42.38Z</time></trkpt><trkpt lat="46.0330367" lon="12.1023781"><ele>475.6</ele><time>2026-04-24T16:50:44.382Z</time></trkpt><trkpt lat="46.0331303" lon="12.1024951"><ele>476.2</ele><time>2026-04-24T16:50:46.382Z</time></trkpt><trkpt lat="46.0332177" lon="12.1025962"><ele>476.79999999999995</ele><time>2026-04-24T16:50:48.384Z</time></trkpt><trkpt lat="46.0332993" lon="12.1026737"><ele>477.4</ele><time>2026-04-24T16:50:50.384Z</time></trkpt><trkpt lat="46.0333835" lon="12.1027109"><ele>478.0</ele><time>2026-04-24T16:50:52.376Z</time></trkpt><trkpt lat="46.0334638" lon="12.1027181"><ele>478.50000000000006</ele><time>2026-04-24T16:50:54.381Z</time></trkpt><trkpt lat="46.033526" lon="12.1026947"><ele>479.0</ele><time>2026-04-24T16:50:56.383Z</time></trkpt><trkpt lat="46.0335869" lon="12.1026566"><ele>479.5</ele><time>2026-04-24T16:50:58.383Z</time></trkpt><trkpt lat="46.0336538" lon="12.1025819"><ele>480.0</ele><time>2026-04-24T16:51:01.382Z</time></trkpt><trkpt lat="46.0337159" lon="12.1025"><ele>480.50000000000006</ele><time>2026-04-24T16:51:04.384Z</time></trkpt><trkpt lat="46.0337741" lon="12.1024207"><ele>481.0</ele><time>2026-04-24T16:51:07.383Z</time></trkpt><trkpt lat="46.0338245" lon="12.1023364"><ele>478.6666666666667</ele><time>2026-04-24T16:51:10.38Z</time></trkpt><trkpt lat="46.0338705" lon="12.1022408"><ele>476.33333333333337</ele><time>2026-04-24T16:51:13.383Z</time></trkpt><trkpt lat="46.0339128" lon="12.1021599"><ele>474.0</ele><time>2026-04-24T16:51:16.381Z</time></trkpt><trkpt lat="46.0339577" lon="12.1020711"><ele>471.66666666666663</ele><time>2026-04-24T16:51:19.377Z</time></trkpt><trkpt lat="46.0340113" lon="12.1019914"><ele>469.3333333333333</ele><time>2026-04-24T16:51:22.371Z</time></trkpt><trkpt lat="46.0340599" lon="12.1019045"><ele>467.0</ele><time>2026-04-24T16:51:25.374Z</time></trkpt><trkpt lat="46.0341081" lon="12.1018231"><ele>465.99999999999994</ele><time>2026-04-24T16:51:28.376Z</time></trkpt><trkpt lat="46.0341537" lon="12.1017396"><ele>465.0</ele><time>2026-04-24T16:51:31.393Z</time></trkpt><trkpt lat="46.0342078" lon="12.1016594"><ele>464.0</ele><time>2026-04-24T16:51:34.376Z</time></trkpt><trkpt lat="46.0342574" lon="12.1015745"><ele>463.0</ele><time>2026-04-24T16:51:37.378Z</time></trkpt><trkpt lat="46.0343079" lon="12.1014916"><ele>461.99999999999994</ele><time>2026-04-24T16:51:40.375Z</time></trkpt><trkpt lat="46.0343639" lon="12.1014245"><ele>461.0</ele><time>2026-04-24T16:51:43.375Z</time></trkpt><trkpt lat="46.0344219" lon="12.1013544"><ele>460.99999999999994</ele><time>2026-04-24T16:51:46.375Z</time></trkpt><trkpt lat="46.03449" lon="12.1012958"><ele>461.0</ele><time>2026-04-24T16:51:49.374Z</time></trkpt><trkpt lat="46.0345601" lon="12.1012477"><ele>461.0</ele><time>2026-04-24T16:51:52.373Z</time></trkpt><trkpt lat="46.0346322" lon="12.1012019"><ele>461.0</ele><time>2026-04-24T16:51:55.374Z</time></trkpt><trkpt lat="46.0347116" lon="12.1011763"><ele>460.99999999999994</ele><time>2026-04-24T16:51:58.373Z</time></trkpt><trkpt lat="46.034796" lon="12.1011716"><ele>461.0</ele><time>2026-04-24T16:52:01.374Z</time></trkpt><trkpt lat="46.0348762" lon="12.1011941"><ele>460.99999999999994</ele><time>2026-04-24T16:52:04.373Z</time></trkpt><trkpt lat="46.0349482" lon="12.101245"><ele>461.0</ele><time>2026-04-24T16:52:07.375Z</time></trkpt><trkpt lat="46.0350086" lon="12.1013308"><ele>461.0</ele><time>2026-04-24T16:52:10.372Z</time></trkpt><trkpt lat="46.0350707" lon="12.1014203"><ele>461.0</ele><time>2026-04-24T16:52:13.377Z</time></trkpt><trkpt lat="46.0351265" lon="12.1015064"><ele>460.99999999999994</ele><time>2026-04-24T16:52:16.376Z</time></trkpt><trkpt lat="46.0351851" lon="12.1015992"><ele>461.0</ele><time>2026-04-24T16:52:19.372Z</time></trkpt><trkpt lat="46.0352478" lon="12.101679"><ele>469.3333333333333</ele><time>2026-04-24T16:52:22.374Z</time></trkpt><trkpt lat="46.0353138" lon="12.1017553"><ele>477.66666666666663</ele><time>2026-04-24T16:52:25.37Z</time></trkpt><trkpt lat="46.0353769" lon="12.1018201"><ele>486.0</ele><time>2026-04-24T16:52:28.379Z</time></trkpt><trkpt lat="46.0354301" lon="12.1018886"><ele>494.33333333333337</ele><time>2026-04-24T16:52:31.387Z</time></trkpt><trkpt lat="46.0354854" lon="12.1019517"><ele>502.6666666666667</ele><time>2026-04-24T16:52:34.379Z</time></trkpt><trkpt lat="46.0355572" lon="12.1020227"><ele>511.0</ele><time>2026-04-24T16:52:37.38Z</time></trkpt><trkpt lat="46.0356125" lon="12.1020688"><ele>511.00000000000006</ele><time>2026-04-24T16:52:39.374Z</time></trkpt><trkpt lat="46.035689" lon="12.1021411"><ele>511.0</ele><time>2026-04-24T16:52:42.379Z</time></trkpt><trkpt lat="46.0357663" lon="12.1022061"><ele>511.0</ele><time>2026-04-24T16:52:45.372Z</time></trkpt><trkpt lat="46.0358521" lon="12.1022655"><ele>511.0</ele><time>2026-04-24T16:52:48.373Z</time></trkpt><trkpt lat="46.0359158" lon="12.1022931"><ele>511.00000000000006</ele><time>2026-04-24T16:52:50.374Z</time></trkpt><trkpt lat="46.0359807" lon="12.1023171"><ele>511.0</ele><time>2026-04-24T16:52:52.375Z</time></trkpt><trkpt lat="46.0360694" lon="12.1023411"><ele>509.1428571428571</ele><time>2026-04-24T16:52:55.378Z</time></trkpt><trkpt lat="46.036144" lon="12.1023536"><ele>507.2857142857143</ele><time>2026-04-24T16:52:57.371Z</time></trkpt><trkpt lat="46.0362051" lon="12.1023794"><ele>505.42857142857144</ele><time>2026-04-24T16:52:59.376Z</time></trkpt><trkpt lat="46.0362699" lon="12.1024007"><ele>503.57142857142856</ele><time>2026-04-24T16:53:01.372Z</time></trkpt><trkpt lat="46.0363345" lon="12.102413"><ele>501.71428571428567</ele><time>2026-04-24T16:53:03.377Z</time></trkpt><trkpt lat="46.0364039" lon="12.1024344"><ele>499.85714285714283</ele><time>2026-04-24T16:53:05.394Z</time></trkpt><trkpt lat="46.0364767" lon="12.1024369"><ele>498.0</ele><time>2026-04-24T16:53:07.375Z</time></trkpt><trkpt lat="46.0365543" lon="12.102429"><ele>498.0</ele><time>2026-04-24T16:53:09.373Z</time></trkpt><trkpt lat="46.0366312" lon="12.1024127"><ele>497.99999999999994</ele><time>2026-04-24T16:53:11.378Z</time></trkpt><trkpt lat="46.0367012" lon="12.1023816"><ele>498.0</ele><time>2026-04-24T16:53:13.373Z</time></trkpt><trkpt lat="46.0367655" lon="12.1023374"><ele>498.0</ele><time>2026-04-24T16:53:15.374Z</time></trkpt><trkpt lat="46.0368241" lon="12.1022907"><ele>497.99999999999994</ele><time>2026-04-24T16:53:17.375Z</time></trkpt><trkpt lat="46.0368809" lon="12.102246"><ele>498.0</ele><time>2026-04-24T16:53:19.376Z</time></trkpt><trkpt lat="46.0369523" lon="12.1021651"><ele>498.0</ele><time>2026-04-24T16:53:22.374Z</time></trkpt><trkpt lat="46.0370247" lon="12.1020914"><ele>497.8333333333333</ele><time>2026-04-24T16:53:25.374Z</time></trkpt><trkpt lat="46.0370917" lon="12.102004"><ele>497.66666666666663</ele><time>2026-04-24T16:53:28.375Z</time></trkpt><trkpt lat="46.0371618" lon="12.1019219"><ele>497.5</ele><time>2026-04-24T16:53:31.372Z</time></trkpt><trkpt lat="46.0372283" lon="12.1018425"><ele>497.3333333333333</ele><time>2026-04-24T16:53:34.378Z</time></trkpt><trkpt lat="46.0372793" lon="12.1017355"><ele>497.16666666666663</ele><time>2026-04-24T16:53:37.379Z</time></trkpt><trkpt lat="46.0373186" lon="12.1016281"><ele>497.0</ele><time>2026-04-24T16:53:40.383Z</time></trkpt><trkpt lat="46.0373382" lon="12.1015033"><ele>496.99999999999994</ele><time>2026-04-24T16:53:43.376Z</time></trkpt><trkpt lat="46.0373395" lon="12.1014087"><ele>497.0</ele><time>2026-04-24T16:53:45.376Z</time></trkpt><trkpt lat="46.0373339" lon="12.1013154"><ele>497.0</ele><time>2026-04-24T16:53:47.374Z</time></trkpt><trkpt lat="46.0372975" lon="12.101201"><ele>497.0</ele><time>2026-04-24T16:53:50.375Z</time></trkpt><trkpt lat="46.0372502" lon="12.1010977"><ele>496.99999999999994</ele><time>2026-04-24T16:53:53.373Z</time></trkpt><trkpt lat="46.0372101" lon="12.1010003"><ele>497.0</ele><time>2026-04-24T16:53:56.368Z</time></trkpt><trkpt lat="46.0371861" lon="12.1008907"><ele>496.99999999999994</ele><time>2026-04-24T16:53:59.384Z</time></trkpt><trkpt lat="46.0371774" lon="12.1007775"><ele>497.0</ele><time>2026-04-24T16:54:02.382Z</time></trkpt><trkpt lat="46.0371771" lon="12.1006695"><ele>497.0</ele><time>2026-04-24T16:54:05.38Z</time></trkpt><trkpt lat="46.0371801" lon="12.1005573"><ele>497.0</ele><time>2026-04-24T16:54:08.38Z</time></trkpt><trkpt lat="46.0371766" lon="12.1004452"><ele>496.99999999999994</ele><time>2026-04-24T16:54:11.373Z</time></trkpt><trkpt lat="46.037179" lon="12.1003244"><ele>497.0</ele><time>2026-04-24T16:54:14.374Z</time></trkpt><trkpt lat="46.0371759" lon="12.1002117"><ele>496.8333333333333</ele><time>2026-04-24T16:54:17.382Z</time></trkpt><trkpt lat="46.0371743" lon="12.1000976"><ele>496.66666666666663</ele><time>2026-04-24T16:54:20.38Z</time></trkpt><trkpt lat="46.0371653" lon="12.0999839"><ele>496.5</ele><time>2026-04-24T16:54:23.386Z</time></trkpt><trkpt lat="46.0371691" lon="12.0998756"><ele>496.33333333333337</ele><time>2026-04-24T16:54:26.381Z</time></trkpt><trkpt lat="46.0371805" lon="12.0997802"><ele>496.1666666666667</ele><time>2026-04-24T16:54:29.383Z</time></trkpt><trkpt lat="46.0371943" lon="12.0996711"><ele>496.0</ele><time>2026-04-24T16:54:33.375Z</time></trkpt><trkpt lat="46.0372044" lon="12.0995651"><ele>496.00000000000006</ele><time>2026-04-24T16:54:36.374Z</time></trkpt><trkpt lat="46.0372115" lon="12.0994484"><ele>496.0</ele><time>2026-04-24T16:54:39.372Z</time></trkpt><trkpt lat="46.0372215" lon="12.0993376"><ele>496.0</ele><time>2026-04-24T16:54:42.371Z</time></trkpt><trkpt lat="46.0372323" lon="12.0992311"><ele>496.0</ele><time>2026-04-24T16:54:45.371Z</time></trkpt><trkpt lat="46.0372465" lon="12.0991117"><ele>496.00000000000006</ele><time>2026-04-24T16:54:48.373Z</time></trkpt><trkpt lat="46.0372676" lon="12.0989909"><ele>496.0</ele><time>2026-04-24T16:54:51.376Z</time></trkpt><trkpt lat="46.0373052" lon="12.098875"><ele>496.1666666666667</ele><time>2026-04-24T16:54:54.372Z</time></trkpt><trkpt lat="46.0373642" lon="12.0987752"><ele>496.33333333333337</ele><time>2026-04-24T16:54:57.373Z</time></trkpt><trkpt lat="46.0374363" lon="12.0986912"><ele>496.5</ele><time>2026-04-24T16:55:00.374Z</time></trkpt><trkpt lat="46.0375228" lon="12.0986333"><ele>496.66666666666663</ele><time>2026-04-24T16:55:03.371Z</time></trkpt><trkpt lat="46.0375874" lon="12.0985992"><ele>496.8333333333333</ele><time>2026-04-24T16:55:05.373Z</time></trkpt><trkpt lat="46.0376583" lon="12.0985621"><ele>497.0</ele><time>2026-04-24T16:55:07.375Z</time></trkpt><trkpt lat="46.0377346" lon="12.0985216"><ele>501.66666666666663</ele><time>2026-04-24T16:55:09.372Z</time></trkpt><trkpt lat="46.0378161" lon="12.0984796"><ele>506.3333333333333</ele><time>2026-04-24T16:55:11.371Z</time></trkpt><trkpt lat="46.0379" lon="12.0984457"><ele>511.0</ele><time>2026-04-24T16:55:13.392Z</time></trkpt><trkpt lat="46.0379869" lon="12.0984315"><ele>515.6666666666666</ele><time>2026-04-24T16:55:15.371Z</time></trkpt><trkpt lat="46.0380797" lon="12.098436"><ele>520.3333333333334</ele><time>2026-04-24T16:55:17.376Z</time></trkpt><trkpt lat="46.0381715" lon="12.0984504"><ele>525.0</ele><time>2026-04-24T16:55:19.374Z</time></trkpt><trkpt lat="46.0382605" lon="12.0984693"><ele>526.0</ele><time>2026-04-24T16:55:21.374Z</time></trkpt><trkpt lat="46.0383432" lon="12.0984882"><ele>527.0</ele><time>2026-04-24T16:55:23.374Z</time></trkpt><trkpt lat="46.0384307" lon="12.0985286"><ele>528.0</ele><time>2026-04-24T16:55:25.374Z</time></trkpt><trkpt lat="46.038519" lon="12.0985947"><ele>529.0</ele><time>2026-04-24T16:55:27.373Z</time></trkpt><trkpt lat="46.0385923" lon="12.0986777"><ele>530.0</ele><time>2026-04-24T16:55:29.371Z</time></trkpt><trkpt lat="46.0386554" lon="12.0987796"><ele>530.0</ele><time>2026-04-24T16:55:31.373Z</time></trkpt><trkpt lat="46.0386979" lon="12.0988943"><ele>530.0</ele><time>2026-04-24T16:55:33.374Z</time></trkpt><trkpt lat="46.0387251" lon="12.0990051"><ele>530.0</ele><time>2026-04-24T16:55:35.373Z</time></trkpt><trkpt lat="46.0387454" lon="12.0991115"><ele>530.0</ele><time>2026-04-24T16:55:37.385Z</time></trkpt><trkpt lat="46.0387675" lon="12.0992203"><ele>530.0</ele><time>2026-04-24T16:55:39.374Z</time></trkpt><trkpt lat="46.0387888" lon="12.0993263"><ele>530.0</ele><time>2026-04-24T16:55:41.379Z</time></trkpt><trkpt lat="46.038812" lon="12.0994321"><ele>530.0</ele><time>2026-04-24T16:55:43.377Z</time></trkpt><trkpt lat="46.0388373" lon="12.0995391"><ele>530.0</ele><time>2026-04-24T16:55:45.38Z</time></trkpt><trkpt lat="46.0388699" lon="12.0996437"><ele>530.0</ele><time>2026-04-24T16:55:47.377Z</time></trkpt><trkpt lat="46.0389107" lon="12.0997377"><ele>530.0</ele><time>2026-04-24T16:55:49.379Z</time></trkpt><trkpt lat="46.0389574" lon="12.0998291"><ele>530.0</ele><time>2026-04-24T16:55:51.374Z</time></trkpt><trkpt lat="46.0390112" lon="12.0999156"><ele>530.0</ele><time>2026-04-24T16:55:53.375Z</time></trkpt><trkpt lat="46.0390755" lon="12.0999937"><ele>530.8333333333333</ele><time>2026-04-24T16:55:55.375Z</time></trkpt><trkpt lat="46.0391469" lon="12.1000611"><ele>531.6666666666666</ele><time>2026-04-24T16:55:57.384Z</time></trkpt><trkpt lat="46.0392205" lon="12.1001312"><ele>532.5</ele><time>2026-04-24T16:55:59.374Z</time></trkpt><trkpt lat="46.0392898" lon="12.1002007"><ele>533.3333333333334</ele><time>2026-04-24T16:56:01.375Z</time></trkpt><trkpt lat="46.0393574" lon="12.1002743"><ele>534.1666666666667</ele><time>2026-04-24T16:56:03.372Z</time></trkpt><trkpt lat="46.0394262" lon="12.1003534"><ele>535.0</ele><time>2026-04-24T16:56:05.372Z</time></trkpt><trkpt lat="46.0394876" lon="12.1004454"><ele>535.0</ele><time>2026-04-24T16:56:07.374Z</time></trkpt><trkpt lat="46.0395519" lon="12.1005417"><ele>535.0</ele><time>2026-04-24T16:56:09.371Z</time></trkpt><trkpt lat="46.0396196" lon="12.1006315"><ele>535.0</ele><time>2026-04-24T16:56:11.373Z</time></trkpt><trkpt lat="46.0396898" lon="12.1007347"><ele>535.0</ele><time>2026-04-24T16:56:13.379Z</time></trkpt><trkpt lat="46.03976" lon="12.100835"><ele>535.0</ele><time>2026-04-24T16:56:15.382Z</time></trkpt><trkpt lat="46.0398385" lon="12.1009383"><ele>534.8</ele><time>2026-04-24T16:56:17.383Z</time></trkpt><trkpt lat="46.0399257" lon="12.1010306"><ele>534.6</ele><time>2026-04-24T16:56:19.379Z</time></trkpt><trkpt lat="46.0400148" lon="12.1010996"><ele>534.4</ele><time>2026-04-24T16:56:21.37Z</time></trkpt><trkpt lat="46.0401089" lon="12.1011434"><ele>534.2</ele><time>2026-04-24T16:56:23.37Z</time></trkpt><trkpt lat="46.0402043" lon="12.1011825"><ele>534.0</ele><time>2026-04-24T16:56:25.369Z</time></trkpt><trkpt lat="46.0402947" lon="12.1012005"><ele>534.0</ele><time>2026-04-24T16:56:27.378Z</time></trkpt><trkpt lat="46.0403897" lon="12.1011866"><ele>534.0</ele><time>2026-04-24T16:56:29.383Z</time></trkpt><trkpt lat="46.0404736" lon="12.1011341"><ele>534.0</ele><time>2026-04-24T16:56:31.373Z</time></trkpt><trkpt lat="46.0405446" lon="12.1010589"><ele>534.0</ele><time>2026-04-24T16:56:33.374Z</time></trkpt><trkpt lat="46.0406056" lon="12.1009742"><ele>534.0</ele><time>2026-04-24T16:56:35.372Z</time></trkpt><trkpt lat="46.0406653" lon="12.1008897"><ele>534.0</ele><time>2026-04-24T16:56:37.373Z</time></trkpt><trkpt lat="46.0407234" lon="12.1008083"><ele>533.5714285714287</ele><time>2026-04-24T16:56:39.373Z</time></trkpt><trkpt lat="46.0407785" lon="12.1007315"><ele>533.1428571428571</ele><time>2026-04-24T16:56:41.375Z</time></trkpt><trkpt lat="46.0408336" lon="12.1006572"><ele>532.7142857142858</ele><time>2026-04-24T16:56:43.376Z</time></trkpt><trkpt lat="46.0408851" lon="12.1005865"><ele>532.2857142857143</ele><time>2026-04-24T16:56:45.378Z</time></trkpt><trkpt lat="46.0409331" lon="12.1005117"><ele>531.8571428571429</ele><time>2026-04-24T16:56:47.38Z</time></trkpt><trkpt lat="46.0409806" lon="12.1004453"><ele>531.4285714285714</ele><time>2026-04-24T16:56:49.374Z</time></trkpt><trkpt lat="46.041031" lon="12.1003817"><ele>531.0</ele><time>2026-04-24T16:56:51.374Z</time></trkpt><trkpt lat="46.0410803" lon="12.1003233"><ele>532.1428571428571</ele><time>2026-04-24T16:56:53.372Z</time></trkpt><trkpt lat="46.0411569" lon="12.1002562"><ele>533.2857142857143</ele><time>2026-04-24T16:56:56.381Z</time></trkpt><trkpt lat="46.0412412" lon="12.1002058"><ele>534.4285714285714</ele><time>2026-04-24T16:56:59.375Z</time></trkpt><trkpt lat="46.041301" lon="12.1001757"><ele>535.5714285714286</ele><time>2026-04-24T16:57:01.384Z</time></trkpt><trkpt lat="46.0413645" lon="12.1001559"><ele>536.7142857142858</ele><time>2026-04-24T16:57:03.375Z</time></trkpt><trkpt lat="46.0414294" lon="12.1001471"><ele>537.8571428571429</ele><time>2026-04-24T16:57:05.382Z</time></trkpt><trkpt lat="46.0414932" lon="12.100142"><ele>539.0</ele><time>2026-04-24T16:57:07.372Z</time></trkpt><trkpt lat="46.041559" lon="12.1001377"><ele>539.0</ele><time>2026-04-24T16:57:09.37Z</time></trkpt><trkpt lat="46.0416268" lon="12.1001348"><ele>539.0</ele><time>2026-04-24T16:57:11.374Z</time></trkpt><trkpt lat="46.0416981" lon="12.1001356"><ele>539.0</ele><time>2026-04-24T16:57:13.372Z</time></trkpt><trkpt lat="46.0417763" lon="12.1001345"><ele>539.0</ele><time>2026-04-24T16:57:15.375Z</time></trkpt><trkpt lat="46.0418591" lon="12.1001398"><ele>539.0</ele><time>2026-04-24T16:57:17.373Z</time></trkpt><trkpt lat="46.0419492" lon="12.1001585"><ele>539.0</ele><time>2026-04-24T16:57:19.375Z</time></trkpt><trkpt lat="46.0420402" lon="12.1001861"><ele>539.5</ele><time>2026-04-24T16:57:21.372Z</time></trkpt><trkpt lat="46.0421361" lon="12.100205"><ele>540.0</ele><time>2026-04-24T16:57:23.374Z</time></trkpt><trkpt lat="46.0422295" lon="12.1002215"><ele>540.5</ele><time>2026-04-24T16:57:25.379Z</time></trkpt><trkpt lat="46.0423171" lon="12.1002484"><ele>541.0</ele><time>2026-04-24T16:57:27.373Z</time></trkpt><trkpt lat="46.0423991" lon="12.1002738"><ele>541.5</ele><time>2026-04-24T16:57:29.377Z</time></trkpt><trkpt lat="46.0424658" lon="12.100308"><ele>542.0</ele><time>2026-04-24T16:57:31.378Z</time></trkpt><trkpt lat="46.0425422" lon="12.1003504"><ele>542.0</ele><time>2026-04-24T16:57:33.381Z</time></trkpt><trkpt lat="46.0426227" lon="12.1003965"><ele>542.0</ele><time>2026-04-24T16:57:35.382Z</time></trkpt><trkpt lat="46.0426945" lon="12.1004443"><ele>542.0</ele><time>2026-04-24T16:57:37.373Z</time></trkpt><trkpt lat="46.0427537" lon="12.1005034"><ele>542.0</ele><time>2026-04-24T16:57:40.378Z</time></trkpt><trkpt lat="46.0428025" lon="12.1005681"><ele>542.0</ele><time>2026-04-24T16:57:46.375Z</time></trkpt><trkpt lat="46.0428577" lon="12.1006126"><ele>542.0</ele><time>2026-04-24T16:57:50.377Z</time></trkpt><trkpt lat="46.0429265" lon="12.1005761"><ele>542.0</ele><time>2026-04-24T16:57:53.375Z</time></trkpt><trkpt lat="46.042987" lon="12.1005505"><ele>542.0</ele><time>2026-04-24T16:57:55.377Z</time></trkpt><trkpt lat="46.0430725" lon="12.1005289"><ele>542.0</ele><time>2026-04-24T16:57:58.372Z</time></trkpt><trkpt lat="46.0431657" lon="12.1005572"><ele>542.0</ele><time>2026-04-24T16:58:01.379Z</time></trkpt><trkpt lat="46.0432387" lon="12.1005944"><ele>542.0</ele><time>2026-04-24T16:58:03.375Z</time></trkpt><trkpt lat="46.0433318" lon="12.1006468"><ele>542.0</ele><time>2026-04-24T16:58:05.369Z</time></trkpt><trkpt lat="46.0434221" lon="12.1007211"><ele>541.4</ele><time>2026-04-24T16:58:07.374Z</time></trkpt><trkpt lat="46.0435162" lon="12.1007217"><ele>540.8000000000001</ele><time>2026-04-24T16:58:09.374Z</time></trkpt><trkpt lat="46.0436274" lon="12.1006709"><ele>540.2</ele><time>2026-04-24T16:58:11.377Z</time></trkpt><trkpt lat="46.0437278" lon="12.1006171"><ele>539.6</ele><time>2026-04-24T16:58:13.374Z</time></trkpt><trkpt lat="46.0437986" lon="12.1005125"><ele>539.0</ele><time>2026-04-24T16:58:15.381Z</time></trkpt><trkpt lat="46.0438603" lon="12.1004736"><ele>539.0</ele><time>2026-04-24T16:58:17.376Z</time></trkpt><trkpt lat="46.0439342" lon="12.1004891"><ele>539.0</ele><time>2026-04-24T16:58:19.373Z</time></trkpt><trkpt lat="46.0440212" lon="12.1005252"><ele>539.0</ele><time>2026-04-24T16:58:21.375Z</time></trkpt><trkpt lat="46.0441104" lon="12.1005722"><ele>539.0</ele><time>2026-04-24T16:58:23.378Z</time></trkpt><trkpt lat="46.0442031" lon="12.1005569"><ele>539.0</ele><time>2026-04-24T16:58:25.374Z</time></trkpt><trkpt lat="46.0443149" lon="12.1004882"><ele>537.8333333333333</ele><time>2026-04-24T16:58:27.374Z</time></trkpt><trkpt lat="46.0443798" lon="12.100439"><ele>536.6666666666666</ele><time>2026-04-24T16:58:28.371Z</time></trkpt><trkpt lat="46.044437" lon="12.1003794"><ele>535.5</ele><time>2026-04-24T16:58:29.375Z</time></trkpt><trkpt lat="46.0444964" lon="12.1003088"><ele>534.3333333333334</ele><time>2026-04-24T16:58:30.376Z</time></trkpt><trkpt lat="46.0445566" lon="12.1002411"><ele>533.1666666666667</ele><time>2026-04-24T16:58:31.375Z</time></trkpt><trkpt lat="46.0446197" lon="12.100179"><ele>532.0</ele><time>2026-04-24T16:58:32.372Z</time></trkpt><trkpt lat="46.0446908" lon="12.100133"><ele>532.0</ele><time>2026-04-24T16:58:33.384Z</time></trkpt><trkpt lat="46.0447701" lon="12.1000895"><ele>532.0</ele><time>2026-04-24T16:58:34.383Z</time></trkpt><trkpt lat="46.0448385" lon="12.1000545"><ele>532.0</ele><time>2026-04-24T16:58:35.376Z</time></trkpt><trkpt lat="46.0448992" lon="12.1000213"><ele>532.0</ele><time>2026-04-24T16:58:36.374Z</time></trkpt><trkpt lat="46.0449626" lon="12.0999758"><ele>532.0</ele><time>2026-04-24T16:58:37.374Z</time></trkpt><trkpt lat="46.0450236" lon="12.0999236"><ele>532.0</ele><time>2026-04-24T16:58:38.377Z</time></trkpt><trkpt lat="46.0450921" lon="12.0998915"><ele>532.0</ele><time>2026-04-24T16:58:39.383Z</time></trkpt><trkpt lat="46.0451581" lon="12.0998486"><ele>530.4285714285714</ele><time>2026-04-24T16:58:40.376Z</time></trkpt><trkpt lat="46.0452336" lon="12.0998088"><ele>528.8571428571429</ele><time>2026-04-24T16:58:41.381Z</time></trkpt><trkpt lat="46.0453081" lon="12.0997754"><ele>527.2857142857142</ele><time>2026-04-24T16:58:42.375Z</time></trkpt><trkpt lat="46.0453756" lon="12.099751"><ele>525.7142857142858</ele><time>2026-04-24T16:58:43.383Z</time></trkpt><trkpt lat="46.045439" lon="12.0997481"><ele>524.1428571428571</ele><time>2026-04-24T16:58:44.374Z</time></trkpt><trkpt lat="46.0455026" lon="12.099751"><ele>522.5714285714286</ele><time>2026-04-24T16:58:45.373Z</time></trkpt><trkpt lat="46.0455653" lon="12.0997685"><ele>521.0</ele><time>2026-04-24T16:58:46.374Z</time></trkpt><trkpt lat="46.0456284" lon="12.0998044"><ele>521.0</ele><time>2026-04-24T16:58:47.381Z</time></trkpt><trkpt lat="46.0456882" lon="12.0998485"><ele>521.0</ele><time>2026-04-24T16:58:48.368Z</time></trkpt><trkpt lat="46.0457524" lon="12.0998936"><ele>521.0</ele><time>2026-04-24T16:58:49.38Z</time></trkpt><trkpt lat="46.0458166" lon="12.0999359"><ele>521.0</ele><time>2026-04-24T16:58:50.373Z</time></trkpt><trkpt lat="46.0458824" lon="12.0999758"><ele>521.0</ele><time>2026-04-24T16:58:51.374Z</time></trkpt><trkpt lat="46.0459486" lon="12.1000223"><ele>521.0</ele><time>2026-04-24T16:58:52.375Z</time></trkpt><trkpt lat="46.0460128" lon="12.1000766"><ele>521.0</ele><time>2026-04-24T16:58:53.382Z</time></trkpt><trkpt lat="46.0460705" lon="12.1001278"><ele>520.5714285714286</ele><time>2026-04-24T16:58:54.373Z</time></trkpt><trkpt lat="46.0461281" lon="12.1001751"><ele>520.1428571428571</ele><time>2026-04-24T16:58:55.383Z</time></trkpt><trkpt lat="46.0462074" lon="12.1002266"><ele>519.7142857142858</ele><time>2026-04-24T16:58:57.373Z</time></trkpt><trkpt lat="46.0462681" lon="12.1002733"><ele>519.2857142857142</ele><time>2026-04-24T16:59:07.375Z</time></trkpt><trkpt lat="46.0463224" lon="12.1003278"><ele>518.8571428571429</ele><time>2026-04-24T16:59:10.373Z</time></trkpt><trkpt lat="46.0462772" lon="12.1002543"><ele>518.4285714285714</ele><time>2026-04-24T16:59:20.376Z</time></trkpt><trkpt lat="46.0462124" lon="12.1001956"><ele>518.0</ele><time>2026-04-24T16:59:23.375Z</time></trkpt><trkpt lat="46.0461364" lon="12.1001463"><ele>518.0</ele><time>2026-04-24T16:59:26.382Z</time></trkpt><trkpt lat="46.0460793" lon="12.1001019"><ele>518.0</ele><time>2026-04-24T16:59:28.378Z</time></trkpt><trkpt lat="46.0460178" lon="12.100051"><ele>518.0</ele><time>2026-04-24T16:59:30.38Z</time></trkpt><trkpt lat="46.0459542" lon="12.0999965"><ele>518.0</ele><time>2026-04-24T16:59:32.382Z</time></trkpt><trkpt lat="46.0458962" lon="12.0999486"><ele>518.0</ele><time>2026-04-24T16:59:34.381Z</time></trkpt><trkpt lat="46.0458141" lon="12.0999235"><ele>518.0</ele><time>2026-04-24T16:59:37.382Z</time></trkpt><trkpt lat="46.0459024" lon="12.0998785"><ele>517.1999999999999</ele><time>2026-04-24T16:59:44.373Z</time></trkpt><trkpt lat="46.045997" lon="12.0998669"><ele>516.4</ele><time>2026-04-24T16:59:46.381Z</time></trkpt><trkpt lat="46.0461079" lon="12.0998526"><ele>515.5999999999999</ele><time>2026-04-24T16:59:48.374Z</time></trkpt><trkpt lat="46.0462347" lon="12.0998347"><ele>514.8</ele><time>2026-04-24T16:59:50.383Z</time></trkpt><trkpt lat="46.0463039" lon="12.0998298"><ele>514.0</ele><time>2026-04-24T16:59:51.382Z</time></trkpt><trkpt lat="46.0463787" lon="12.0998204"><ele>514.0</ele><time>2026-04-24T16:59:52.38Z</time></trkpt><trkpt lat="46.0464479" lon="12.0998082"><ele>514.0</ele><time>2026-04-24T16:59:53.38Z</time></trkpt><trkpt lat="46.0465189" lon="12.099801"><ele>514.0</ele><time>2026-04-24T16:59:54.377Z</time></trkpt><trkpt lat="46.046587" lon="12.0997933"><ele>514.0</ele><time>2026-04-24T16:59:55.372Z</time></trkpt><trkpt lat="46.0466506" lon="12.0997868"><ele>514.0</ele><time>2026-04-24T16:59:56.38Z</time></trkpt><trkpt lat="46.0467142" lon="12.0997815"><ele>514.0</ele><time>2026-04-24T16:59:57.379Z</time></trkpt><trkpt lat="46.0468215" lon="12.0997193"><ele>512.6</ele><time>2026-04-24T16:59:59.376Z</time></trkpt><trkpt lat="46.0469206" lon="12.0996238"><ele>511.2</ele><time>2026-04-24T17:00:01.38Z</time></trkpt><trkpt lat="46.0470082" lon="12.0995904"><ele>509.80000000000007</ele><time>2026-04-24T17:00:03.371Z</time></trkpt><trkpt lat="46.0471084" lon="12.0996261"><ele>508.40000000000003</ele><time>2026-04-24T17:00:05.372Z</time></trkpt><trkpt lat="46.0472094" lon="12.0996763"><ele>507.0</ele><time>2026-04-24T17:00:07.369Z</time></trkpt><trkpt lat="46.0473002" lon="12.0997166"><ele>507.0</ele><time>2026-04-24T17:00:09.373Z</time></trkpt><trkpt lat="46.0473632" lon="12.0996795"><ele>507.0</ele><time>2026-04-24T17:00:11.383Z</time></trkpt><trkpt lat="46.047421" lon="12.0996402"><ele>507.0</ele><time>2026-04-24T17:00:14.376Z</time></trkpt><trkpt lat="46.0474925" lon="12.0996678"><ele>507.0</ele><time>2026-04-24T17:00:19.38Z</time></trkpt><trkpt lat="46.0475678" lon="12.0996956"><ele>507.0</ele><time>2026-04-24T17:00:22.373Z</time></trkpt><trkpt lat="46.0476398" lon="12.0996206"><ele>507.0</ele><time>2026-04-24T17:00:24.378Z</time></trkpt><trkpt lat="46.0477006" lon="12.099595"><ele>507.0</ele><time>2026-04-24T17:00:25.37Z</time></trkpt><trkpt lat="46.0477681" lon="12.0995736"><ele>505.0</ele><time>2026-04-24T17:00:26.368Z</time></trkpt><trkpt lat="46.047888" lon="12.0995143"><ele>503.00000000000006</ele><time>2026-04-24T17:00:28.371Z</time></trkpt><trkpt lat="46.0479898" lon="12.0994837"><ele>501.00000000000006</ele><time>2026-04-24T17:00:30.371Z</time></trkpt><trkpt lat="46.0480814" lon="12.099533"><ele>499.0</ele><time>2026-04-24T17:00:32.374Z</time></trkpt><trkpt lat="46.0481646" lon="12.0996269"><ele>497.0</ele><time>2026-04-24T17:00:34.371Z</time></trkpt><trkpt lat="46.0482558" lon="12.0996824"><ele>494.0</ele><time>2026-04-24T17:00:36.38Z</time></trkpt><trkpt lat="46.0483755" lon="12.0997151"><ele>491.00000000000006</ele><time>2026-04-24T17:00:38.372Z</time></trkpt><trkpt lat="46.0484896" lon="12.0997258"><ele>488.00000000000006</ele><time>2026-04-24T17:00:40.379Z</time></trkpt><trkpt lat="46.0485896" lon="12.0997576"><ele>485.0</ele><time>2026-04-24T17:00:42.383Z</time></trkpt><trkpt lat="46.048686" lon="12.0997807"><ele>482.0</ele><time>2026-04-24T17:00:44.38Z</time></trkpt><trkpt lat="46.0487666" lon="12.099828"><ele>482.0</ele><time>2026-04-24T17:00:46.371Z</time></trkpt><trkpt lat="46.0488432" lon="12.0998729"><ele>482.00000000000006</ele><time>2026-04-24T17:00:48.371Z</time></trkpt><trkpt lat="46.0489414" lon="12.0998919"><ele>482.00000000000006</ele><time>2026-04-24T17:00:50.37Z</time></trkpt><trkpt lat="46.0490337" lon="12.0999157"><ele>482.0</ele><time>2026-04-24T17:00:52.371Z</time></trkpt><trkpt lat="46.049094" lon="12.100054"><ele>482.0</ele><time>2026-04-24T17:00:54.37Z</time></trkpt><trkpt lat="46.0491856" lon="12.1000857"><ele>480.0</ele><time>2026-04-24T17:00:56.37Z</time></trkpt><trkpt lat="46.0492767" lon="12.1000648"><ele>478.00000000000006</ele><time>2026-04-24T17:00:58.369Z</time></trkpt><trkpt lat="46.0493863" lon="12.0999983"><ele>476.00000000000006</ele><time>2026-04-24T17:01:00.369Z</time></trkpt><trkpt lat="46.0494996" lon="12.0999046"><ele>474.0</ele><time>2026-04-24T17:01:02.375Z</time></trkpt><trkpt lat="46.0495583" lon="12.0998674"><ele>472.0</ele><time>2026-04-24T17:01:03.373Z</time></trkpt><trkpt lat="46.0496689" lon="12.0997904"><ele>472.0</ele><time>2026-04-24T17:01:05.369Z</time></trkpt><trkpt lat="46.0497474" lon="12.0997058"><ele>472.00000000000006</ele><time>2026-04-24T17:01:07.372Z</time></trkpt><trkpt lat="46.0498277" lon="12.0997453"><ele>472.00000000000006</ele><time>2026-04-24T17:01:13.372Z</time></trkpt><trkpt lat="46.0498689" lon="12.0998328"><ele>472.0</ele><time>2026-04-24T17:01:15.371Z</time></trkpt><trkpt lat="46.0499075" lon="12.0999727"><ele>472.0</ele><time>2026-04-24T17:01:17.371Z</time></trkpt><trkpt lat="46.0499128" lon="12.1001693"><ele>472.00000000000006</ele><time>2026-04-24T17:01:19.374Z</time></trkpt><trkpt lat="46.0499315" lon="12.1002742"><ele>472.0</ele><time>2026-04-24T17:01:20.374Z</time></trkpt><trkpt lat="46.0499241" lon="12.100375"><ele>472.0</ele><time>2026-04-24T17:01:21.372Z</time></trkpt><trkpt lat="46.049919" lon="12.1004734"><ele>472.0</ele><time>2026-04-24T17:01:22.372Z</time></trkpt><trkpt lat="46.0499113" lon="12.1005639"><ele>472.00000000000006</ele><time>2026-04-24T17:01:23.372Z</time></trkpt><trkpt lat="46.0498963" lon="12.1007311"><ele>472.0</ele><time>2026-04-24T17:01:25.37Z</time></trkpt><trkpt lat="46.0498831" lon="12.1008735"><ele>471.6666666666667</ele><time>2026-04-24T17:01:27.37Z</time></trkpt><trkpt lat="46.0498878" lon="12.1009957"><ele>471.33333333333337</ele><time>2026-04-24T17:01:29.372Z</time></trkpt><trkpt lat="46.0498921" lon="12.1011276"><ele>471.0</ele><time>2026-04-24T17:01:31.374Z</time></trkpt><trkpt lat="46.0498984" lon="12.1012566"><ele>470.66666666666663</ele><time>2026-04-24T17:01:33.373Z</time></trkpt><trkpt lat="46.0499078" lon="12.1013913"><ele>470.3333333333333</ele><time>2026-04-24T17:01:35.381Z</time></trkpt><trkpt lat="46.0499212" lon="12.1015156"><ele>470.0</ele><time>2026-04-24T17:01:37.38Z</time></trkpt><trkpt lat="46.0499345" lon="12.101639"><ele>469.8</ele><time>2026-04-24T17:01:39.373Z</time></trkpt><trkpt lat="46.0499526" lon="12.1017699"><ele>469.6</ele><time>2026-04-24T17:01:41.385Z</time></trkpt><trkpt lat="46.0499754" lon="12.1019183"><ele>469.4</ele><time>2026-04-24T17:01:43.37Z</time></trkpt><trkpt lat="46.050007" lon="12.1020664"><ele>469.2</ele><time>2026-04-24T17:01:45.37Z</time></trkpt><trkpt lat="46.0500413" lon="12.1022189"><ele>469.0</ele><time>2026-04-24T17:01:47.374Z</time></trkpt><trkpt lat="46.0500717" lon="12.1023724"><ele>467.4</ele><time>2026-04-24T17:01:49.371Z</time></trkpt><trkpt lat="46.0501042" lon="12.1025254"><ele>465.79999999999995</ele><time>2026-04-24T17:01:51.449Z</time></trkpt><trkpt lat="46.050139" lon="12.1026789"><ele>464.20000000000005</ele><time>2026-04-24T17:01:53.371Z</time></trkpt><trkpt lat="46.0501648" lon="12.1028333"><ele>462.6</ele><time>2026-04-24T17:01:55.373Z</time></trkpt><trkpt lat="46.0501828" lon="12.1029771"><ele>461.0</ele><time>2026-04-24T17:01:57.371Z</time></trkpt><trkpt lat="46.0501849" lon="12.1031304"><ele>462.0</ele><time>2026-04-24T17:01:59.373Z</time></trkpt><trkpt lat="46.0501701" lon="12.1032623"><ele>463.0</ele><time>2026-04-24T17:02:01.374Z</time></trkpt><trkpt lat="46.0501405" lon="12.1033708"><ele>464.0</ele><time>2026-04-24T17:02:03.371Z</time></trkpt><trkpt lat="46.0500981" lon="12.1034945"><ele>465.0</ele><time>2026-04-24T17:02:05.371Z</time></trkpt><trkpt lat="46.0500965" lon="12.1036461"><ele>466.0</ele><time>2026-04-24T17:02:07.372Z</time></trkpt><trkpt lat="46.0501434" lon="12.1037918"><ele>466.0</ele><time>2026-04-24T17:02:09.37Z</time></trkpt><trkpt lat="46.0501891" lon="12.1039323"><ele>466.0</ele><time>2026-04-24T17:02:11.371Z</time></trkpt><trkpt lat="46.0502384" lon="12.1040768"><ele>466.0</ele><time>2026-04-24T17:02:13.372Z</time></trkpt><trkpt lat="46.0502787" lon="12.1042085"><ele>466.0</ele><time>2026-04-24T17:02:15.376Z</time></trkpt><trkpt lat="46.0503142" lon="12.1043257"><ele>466.0</ele><time>2026-04-24T17:02:17.371Z</time></trkpt><trkpt lat="46.0503408" lon="12.1044453"><ele>466.4</ele><time>2026-04-24T17:02:19.381Z</time></trkpt><trkpt lat="46.0503511" lon="12.1045657"><ele>466.8</ele><time>2026-04-24T17:02:21.377Z</time></trkpt><trkpt lat="46.0503607" lon="12.1046912"><ele>467.19999999999993</ele><time>2026-04-24T17:02:23.381Z</time></trkpt><trkpt lat="46.0503777" lon="12.1048317"><ele>467.59999999999997</ele><time>2026-04-24T17:02:25.375Z</time></trkpt><trkpt lat="46.0503969" lon="12.1049989"><ele>468.0</ele><time>2026-04-24T17:02:27.382Z</time></trkpt><trkpt lat="46.0504073" lon="12.1050928"><ele>468.3333333333333</ele><time>2026-04-24T17:02:28.381Z</time></trkpt><trkpt lat="46.0504089" lon="12.1051925"><ele>468.66666666666663</ele><time>2026-04-24T17:02:29.38Z</time></trkpt><trkpt lat="46.0504114" lon="12.1052966"><ele>469.0</ele><time>2026-04-24T17:02:30.372Z</time></trkpt><trkpt lat="46.0504187" lon="12.105393"><ele>469.3333333333333</ele><time>2026-04-24T17:02:31.375Z</time></trkpt><trkpt lat="46.0504349" lon="12.1054837"><ele>469.66666666666663</ele><time>2026-04-24T17:02:32.371Z</time></trkpt><trkpt lat="46.0504939" lon="12.1056357"><ele>470.0</ele><time>2026-04-24T17:02:34.371Z</time></trkpt><trkpt lat="46.0505401" lon="12.1056975"><ele>470.1428571428571</ele><time>2026-04-24T17:02:35.369Z</time></trkpt><trkpt lat="46.0505966" lon="12.1057505"><ele>470.2857142857142</ele><time>2026-04-24T17:02:36.374Z</time></trkpt><trkpt lat="46.0506599" lon="12.1058035"><ele>470.42857142857144</ele><time>2026-04-24T17:02:37.37Z</time></trkpt><trkpt lat="46.0507216" lon="12.1058503"><ele>470.57142857142856</ele><time>2026-04-24T17:02:38.375Z</time></trkpt><trkpt lat="46.0507979" lon="12.1059027"><ele>470.7142857142857</ele><time>2026-04-24T17:02:39.382Z</time></trkpt><trkpt lat="46.0508636" lon="12.1059338"><ele>470.8571428571429</ele><time>2026-04-24T17:02:40.381Z</time></trkpt><trkpt lat="46.050922" lon="12.1059804"><ele>471.00000000000006</ele><time>2026-04-24T17:02:41.384Z</time></trkpt><trkpt lat="46.050967" lon="12.1060517"><ele>468.57142857142867</ele><time>2026-04-24T17:02:42.371Z</time></trkpt><trkpt lat="46.0510135" lon="12.1061361"><ele>466.14285714285717</ele><time>2026-04-24T17:02:43.382Z</time></trkpt><trkpt lat="46.0510302" lon="12.1062354"><ele>463.7142857142858</ele><time>2026-04-24T17:02:44.384Z</time></trkpt><trkpt lat="46.0510152" lon="12.1063299"><ele>461.28571428571433</ele><time>2026-04-24T17:02:45.379Z</time></trkpt><trkpt lat="46.0510176" lon="12.1064381"><ele>458.8571428571429</ele><time>2026-04-24T17:02:46.393Z</time></trkpt><trkpt lat="46.0510073" lon="12.1065477"><ele>456.42857142857144</ele><time>2026-04-24T17:02:47.376Z</time></trkpt><trkpt lat="46.0510097" lon="12.1066442"><ele>454.0</ele><time>2026-04-24T17:02:48.373Z</time></trkpt><trkpt lat="46.0510349" lon="12.1068054"><ele>454.00000000000006</ele><time>2026-04-24T17:02:50.371Z</time></trkpt><trkpt lat="46.0511156" lon="12.1069108"><ele>454.0</ele><time>2026-04-24T17:02:52.371Z</time></trkpt><trkpt lat="46.0512252" lon="12.1069289"><ele>454.0</ele><time>2026-04-24T17:02:54.369Z</time></trkpt><trkpt lat="46.0512993" lon="12.1068805"><ele>454.0</ele><time>2026-04-24T17:02:56.37Z</time></trkpt><trkpt lat="46.0513649" lon="12.1068568"><ele>454.00000000000006</ele><time>2026-04-24T17:02:58.369Z</time></trkpt><trkpt lat="46.051416" lon="12.1069451"><ele>454.0</ele><time>2026-04-24T17:03:02.373Z</time></trkpt><trkpt lat="46.0514359" lon="12.1070567"><ele>454.00000000000006</ele><time>2026-04-24T17:03:06.369Z</time></trkpt><trkpt lat="46.0514623" lon="12.1071631"><ele>454.0</ele><time>2026-04-24T17:03:09.375Z</time></trkpt><trkpt lat="46.0515184" lon="12.1072531"><ele>454.0</ele><time>2026-04-24T17:03:12.376Z</time></trkpt><trkpt lat="46.0515547" lon="12.1073795"><ele>454.0</ele><time>2026-04-24T17:03:15.369Z</time></trkpt><trkpt lat="46.0515848" lon="12.1074699"><ele>454.00000000000006</ele><time>2026-04-24T17:03:17.372Z</time></trkpt><trkpt lat="46.05161" lon="12.1075765"><ele>454.0</ele><time>2026-04-24T17:03:19.371Z</time></trkpt><trkpt lat="46.0516329" lon="12.1076715"><ele>453.6</ele><time>2026-04-24T17:03:21.372Z</time></trkpt><trkpt lat="46.0516575" lon="12.1077632"><ele>453.2</ele><time>2026-04-24T17:03:23.371Z</time></trkpt><trkpt lat="46.0516625" lon="12.1078715"><ele>452.80000000000007</ele><time>2026-04-24T17:03:25.378Z</time></trkpt><trkpt lat="46.0516844" lon="12.1080324"><ele>452.40000000000003</ele><time>2026-04-24T17:03:27.453Z</time></trkpt><trkpt lat="46.0517414" lon="12.1081861"><ele>452.0</ele><time>2026-04-24T17:03:29.375Z</time></trkpt><trkpt lat="46.0518058" lon="12.108323"><ele>453.66666666666663</ele><time>2026-04-24T17:03:31.378Z</time></trkpt><trkpt lat="46.0518591" lon="12.1084395"><ele>455.3333333333333</ele><time>2026-04-24T17:03:33.375Z</time></trkpt><trkpt lat="46.0519211" lon="12.1085533"><ele>457.0</ele><time>2026-04-24T17:03:35.379Z</time></trkpt><trkpt lat="46.0519545" lon="12.1086409"><ele>458.66666666666663</ele><time>2026-04-24T17:03:37.373Z</time></trkpt><trkpt lat="46.0519566" lon="12.1087592"><ele>460.3333333333333</ele><time>2026-04-24T17:03:39.377Z</time></trkpt><trkpt lat="46.0519523" lon="12.1088636"><ele>462.0</ele><time>2026-04-24T17:03:41.371Z</time></trkpt><trkpt lat="46.051945" lon="12.108995"><ele>454.0</ele><time>2026-04-24T17:03:44.396Z</time></trkpt><trkpt lat="46.0515547" lon="12.1073795"><ele>453.6666666666667</ele><time>2026-04-24T17:03:15.369Z</time></trkpt><trkpt lat="46.0515848" lon="12.1074699"><ele>453.33333333333337</ele><time>2026-04-24T17:03:17.372Z</time></trkpt><trkpt lat="46.05161" lon="12.1075765"><ele>453.0</ele><time>2026-04-24T17:03:19.371Z</time></trkpt><trkpt lat="46.0516329" lon="12.1076715"><ele>452.66666666666663</ele><time>2026-04-24T17:03:21.372Z</time></trkpt><trkpt lat="46.0516575" lon="12.1077632"><ele>452.3333333333333</ele><time>2026-04-24T17:03:23.371Z</time></trkpt><trkpt lat="46.0516625" lon="12.1078715"><ele>452.0</ele><time>2026-04-24T17:03:25.378Z</time></trkpt><trkpt lat="46.0516844" lon="12.1080324"><ele>452.0</ele><time>2026-04-24T17:03:27.453Z</time></trkpt><trkpt lat="46.0517414" lon="12.1081861"><ele>452.00000000000006</ele><time>2026-04-24T17:03:29.375Z</time></trkpt><trkpt lat="46.0518058" lon="12.108323"><ele>452.00000000000006</ele><time>2026-04-24T17:03:31.378Z</time></trkpt><trkpt lat="46.0518591" lon="12.1084395"><ele>452.0</ele><time>2026-04-24T17:03:33.375Z</time></trkpt><trkpt lat="46.0519211" lon="12.1085533"><ele>452.0</ele><time>2026-04-24T17:03:35.379Z</time></trkpt><trkpt lat="46.0519545" lon="12.1086409"><ele>453.66666666666663</ele><time>2026-04-24T17:03:37.373Z</time></trkpt><trkpt lat="46.0519566" lon="12.1087592"><ele>455.3333333333333</ele><time>2026-04-24T17:03:39.377Z</time></trkpt><trkpt lat="46.0519523" lon="12.1088636"><ele>457.0</ele><time>2026-04-24T17:03:41.371Z</time></trkpt><trkpt lat="46.051945" lon="12.108995"><ele>458.66666666666663</ele><time>2026-04-24T17:03:44.396Z</time></trkpt><trkpt lat="46.0519607" lon="12.1091031"><ele>460.3333333333333</ele><time>2026-04-24T17:03:48.373Z</time></trkpt><trkpt lat="46.0519904" lon="12.1091839"><ele>462.0</ele><time>2026-04-24T17:03:51.377Z</time></trkpt><trkpt lat="46.0520129" lon="12.1092738"><ele>462.8571428571429</ele><time>2026-04-24T17:03:54.375Z</time></trkpt><trkpt lat="46.0519941" lon="12.109374"><ele>463.7142857142857</ele><time>2026-04-24T17:03:57.37Z</time></trkpt><trkpt lat="46.0519595" lon="12.109455"><ele>464.57142857142856</ele><time>2026-04-24T17:04:00.382Z</time></trkpt><trkpt lat="46.051924" lon="12.1095394"><ele>465.42857142857144</ele><time>2026-04-24T17:04:03.387Z</time></trkpt><trkpt lat="46.0518725" lon="12.1096225"><ele>466.28571428571433</ele><time>2026-04-24T17:04:07.391Z</time></trkpt><trkpt lat="46.0518323" lon="12.109696"><ele>467.14285714285717</ele><time>2026-04-24T17:04:10.377Z</time></trkpt><trkpt lat="46.0517959" lon="12.109781"><ele>468.0</ele><time>2026-04-24T17:04:13.379Z</time></trkpt><trkpt lat="46.0517575" lon="12.1098845"><ele>468.5</ele><time>2026-04-24T17:04:17.375Z</time></trkpt><trkpt lat="46.05173" lon="12.1099746"><ele>469.0</ele><time>2026-04-24T17:04:21.373Z</time></trkpt><trkpt lat="46.0517083" lon="12.1100726"><ele>469.5</ele><time>2026-04-24T17:04:25.372Z</time></trkpt><trkpt lat="46.05168" lon="12.1101822"><ele>470.0</ele><time>2026-04-24T17:04:29.37Z</time></trkpt><trkpt lat="46.0516586" lon="12.1102893"><ele>470.5</ele><time>2026-04-24T17:04:33.371Z</time></trkpt><trkpt lat="46.05164" lon="12.1103955"><ele>471.0</ele><time>2026-04-24T17:04:37.377Z</time></trkpt><trkpt lat="46.0516148" lon="12.1105067"><ele>472.5</ele><time>2026-04-24T17:04:40.375Z</time></trkpt><trkpt lat="46.0515668" lon="12.1106187"><ele>474.0</ele><time>2026-04-24T17:04:44.372Z</time></trkpt><trkpt lat="46.0515391" lon="12.1107014"><ele>475.5</ele><time>2026-04-24T17:04:47.371Z</time></trkpt><trkpt lat="46.0515287" lon="12.1107938"><ele>477.0</ele><time>2026-04-24T17:04:50.369Z</time></trkpt><trkpt lat="46.0515262" lon="12.1108964"><ele>478.5</ele><time>2026-04-24T17:04:52.373Z</time></trkpt><trkpt lat="46.0515401" lon="12.1110328"><ele>480.0</ele><time>2026-04-24T17:04:54.378Z</time></trkpt><trkpt lat="46.0515555" lon="12.111163"><ele>480.0</ele><time>2026-04-24T17:04:56.371Z</time></trkpt><trkpt lat="46.0515796" lon="12.1112878"><ele>480.0</ele><time>2026-04-24T17:04:58.37Z</time></trkpt><trkpt lat="46.0516145" lon="12.1114236"><ele>480.0</ele><time>2026-04-24T17:05:00.379Z</time></trkpt><trkpt lat="46.0516705" lon="12.1115446"><ele>480.0</ele><time>2026-04-24T17:05:02.375Z</time></trkpt><trkpt lat="46.0517421" lon="12.1116389"><ele>480.0</ele><time>2026-04-24T17:05:04.372Z</time></trkpt><trkpt lat="46.051824" lon="12.1117148"><ele>478.2</ele><time>2026-04-24T17:05:06.373Z</time></trkpt><trkpt lat="46.0519085" lon="12.111775"><ele>476.4</ele><time>2026-04-24T17:05:08.378Z</time></trkpt><trkpt lat="46.0519905" lon="12.1118061"><ele>474.6</ele><time>2026-04-24T17:05:10.384Z</time></trkpt><trkpt lat="46.0520842" lon="12.1118308"><ele>472.8</ele><time>2026-04-24T17:05:12.372Z</time></trkpt><trkpt lat="46.052177" lon="12.1118249"><ele>471.0</ele><time>2026-04-24T17:05:14.375Z</time></trkpt><trkpt lat="46.0522629" lon="12.1117928"><ele>471.0</ele><time>2026-04-24T17:05:16.372Z</time></trkpt><trkpt lat="46.0523458" lon="12.111752"><ele>471.0</ele><time>2026-04-24T17:05:18.372Z</time></trkpt><trkpt lat="46.052422" lon="12.1116834"><ele>471.0</ele><time>2026-04-24T17:05:20.376Z</time></trkpt><trkpt lat="46.0524883" lon="12.111591"><ele>471.0</ele><time>2026-04-24T17:05:22.371Z</time></trkpt><trkpt lat="46.0525496" lon="12.1114884"><ele>471.0</ele><time>2026-04-24T17:05:24.373Z</time></trkpt><trkpt lat="46.052603" lon="12.1114039"><ele>471.0</ele><time>2026-04-24T17:05:26.371Z</time></trkpt><trkpt lat="46.0526771" lon="12.111327"><ele>469.6666666666667</ele><time>2026-04-24T17:05:29.376Z</time></trkpt><trkpt lat="46.0527511" lon="12.1112861"><ele>468.33333333333337</ele><time>2026-04-24T17:05:32.373Z</time></trkpt><trkpt lat="46.0528304" lon="12.1112711"><ele>467.0</ele><time>2026-04-24T17:05:35.373Z</time></trkpt><trkpt lat="46.0529094" lon="12.1112849"><ele>465.6666666666667</ele><time>2026-04-24T17:05:38.37Z</time></trkpt><trkpt lat="46.0529878" lon="12.1113614"><ele>464.33333333333337</ele><time>2026-04-24T17:05:41.37Z</time></trkpt><trkpt lat="46.0530429" lon="12.1114205"><ele>463.0</ele><time>2026-04-24T17:05:43.371Z</time></trkpt><trkpt lat="46.0530891" lon="12.1115185"><ele>464.2</ele><time>2026-04-24T17:05:45.374Z</time></trkpt><trkpt lat="46.0531371" lon="12.1116419"><ele>465.4</ele><time>2026-04-24T17:05:47.373Z</time></trkpt><trkpt lat="46.0531776" lon="12.1117862"><ele>466.59999999999997</ele><time>2026-04-24T17:05:49.373Z</time></trkpt><trkpt lat="46.0532117" lon="12.1119469"><ele>467.79999999999995</ele><time>2026-04-24T17:05:51.376Z</time></trkpt><trkpt lat="46.0532497" lon="12.1121039"><ele>469.0</ele><time>2026-04-24T17:05:53.373Z</time></trkpt><trkpt lat="46.0532857" lon="12.1122603"><ele>470.6</ele><time>2026-04-24T17:05:55.372Z</time></trkpt><trkpt lat="46.0533203" lon="12.1124092"><ele>472.2</ele><time>2026-04-24T17:05:57.371Z</time></trkpt><trkpt lat="46.0533604" lon="12.1125384"><ele>473.80000000000007</ele><time>2026-04-24T17:05:59.371Z</time></trkpt><trkpt lat="46.053402" lon="12.1126693"><ele>475.40000000000003</ele><time>2026-04-24T17:06:01.375Z</time></trkpt><trkpt lat="46.0534447" lon="12.1127921"><ele>477.0</ele><time>2026-04-24T17:06:03.373Z</time></trkpt><trkpt lat="46.0535029" lon="12.1129154"><ele>477.0</ele><time>2026-04-24T17:06:05.374Z</time></trkpt><trkpt lat="46.053566" lon="12.1130407"><ele>477.0</ele><time>2026-04-24T17:06:07.367Z</time></trkpt><trkpt lat="46.0536308" lon="12.1131777"><ele>477.0</ele><time>2026-04-24T17:06:09.372Z</time></trkpt><trkpt lat="46.0536934" lon="12.1133196"><ele>477.0</ele><time>2026-04-24T17:06:11.374Z</time></trkpt><trkpt lat="46.0537718" lon="12.1134633"><ele>477.40000000000003</ele><time>2026-04-24T17:06:13.375Z</time></trkpt><trkpt lat="46.0538084" lon="12.1135378"><ele>477.80000000000007</ele><time>2026-04-24T17:06:14.379Z</time></trkpt><trkpt lat="46.053841" lon="12.1136162"><ele>478.2</ele><time>2026-04-24T17:06:15.372Z</time></trkpt><trkpt lat="46.0538912" lon="12.1137769"><ele>478.6</ele><time>2026-04-24T17:06:17.383Z</time></trkpt><trkpt lat="46.0539228" lon="12.1139297"><ele>479.0</ele><time>2026-04-24T17:06:19.381Z</time></trkpt><trkpt lat="46.0539454" lon="12.1140853"><ele>479.0</ele><time>2026-04-24T17:06:21.377Z</time></trkpt><trkpt lat="46.0539633" lon="12.1142465"><ele>479.0</ele><time>2026-04-24T17:06:23.373Z</time></trkpt><trkpt lat="46.0539868" lon="12.1144115"><ele>479.0</ele><time>2026-04-24T17:06:25.374Z</time></trkpt><trkpt lat="46.0540029" lon="12.1145765"><ele>479.0</ele><time>2026-04-24T17:06:27.373Z</time></trkpt><trkpt lat="46.0540191" lon="12.1147379"><ele>479.0</ele><time>2026-04-24T17:06:29.373Z</time></trkpt><trkpt lat="46.0540388" lon="12.114902"><ele>479.0</ele><time>2026-04-24T17:06:31.371Z</time></trkpt><trkpt lat="46.0540568" lon="12.1150569"><ele>479.0</ele><time>2026-04-24T17:06:33.371Z</time></trkpt><trkpt lat="46.0540776" lon="12.1152091"><ele>479.0</ele><time>2026-04-24T17:06:35.373Z</time></trkpt><trkpt lat="46.0541025" lon="12.1153563"><ele>479.0</ele><time>2026-04-24T17:06:37.37Z</time></trkpt><trkpt lat="46.0541297" lon="12.1155097"><ele>478.2</ele><time>2026-04-24T17:06:39.381Z</time></trkpt><trkpt lat="46.0541513" lon="12.1156557"><ele>477.4</ele><time>2026-04-24T17:06:41.375Z</time></trkpt><trkpt lat="46.0541727" lon="12.1158019"><ele>476.6</ele><time>2026-04-24T17:06:43.382Z</time></trkpt><trkpt lat="46.0541828" lon="12.1159504"><ele>475.8</ele><time>2026-04-24T17:06:45.37Z</time></trkpt><trkpt lat="46.0541906" lon="12.1160938"><ele>475.0</ele><time>2026-04-24T17:06:47.373Z</time></trkpt><trkpt lat="46.0542016" lon="12.1162289"><ele>475.00000000000006</ele><time>2026-04-24T17:06:49.374Z</time></trkpt><trkpt lat="46.0542081" lon="12.1163577"><ele>475.0</ele><time>2026-04-24T17:06:51.373Z</time></trkpt><trkpt lat="46.054213" lon="12.1164836"><ele>475.0</ele><time>2026-04-24T17:06:53.374Z</time></trkpt><trkpt lat="46.0542245" lon="12.1166029"><ele>475.0</ele><time>2026-04-24T17:06:55.372Z</time></trkpt><trkpt lat="46.0542397" lon="12.1167259"><ele>475.00000000000006</ele><time>2026-04-24T17:06:57.372Z</time></trkpt><trkpt lat="46.0542561" lon="12.1168606"><ele>475.0</ele><time>2026-04-24T17:06:59.373Z</time></trkpt><trkpt lat="46.0542716" lon="12.1169959"><ele>475.4</ele><time>2026-04-24T17:07:01.37Z</time></trkpt><trkpt lat="46.0542922" lon="12.1171334"><ele>475.8</ele><time>2026-04-24T17:07:03.374Z</time></trkpt><trkpt lat="46.0543174" lon="12.11727"><ele>476.20000000000005</ele><time>2026-04-24T17:07:05.375Z</time></trkpt><trkpt lat="46.054346" lon="12.1173966"><ele>476.6</ele><time>2026-04-24T17:07:07.372Z</time></trkpt><trkpt lat="46.0543755" lon="12.1175163"><ele>477.0</ele><time>2026-04-24T17:07:09.371Z</time></trkpt><trkpt lat="46.054405" lon="12.1176355"><ele>477.1666666666667</ele><time>2026-04-24T17:07:11.373Z</time></trkpt><trkpt lat="46.0544247" lon="12.1177434"><ele>477.33333333333337</ele><time>2026-04-24T17:07:13.373Z</time></trkpt><trkpt lat="46.0544467" lon="12.1178423"><ele>477.5</ele><time>2026-04-24T17:07:15.374Z</time></trkpt><trkpt lat="46.0544733" lon="12.1179299"><ele>477.6666666666667</ele><time>2026-04-24T17:07:17.377Z</time></trkpt><trkpt lat="46.0545042" lon="12.1180538"><ele>477.83333333333337</ele><time>2026-04-24T17:07:20.375Z</time></trkpt><trkpt lat="46.0545325" lon="12.118177"><ele>478.0</ele><time>2026-04-24T17:07:23.372Z</time></trkpt><trkpt lat="46.0545664" lon="12.1182623"><ele>478.00000000000006</ele><time>2026-04-24T17:07:25.374Z</time></trkpt><trkpt lat="46.0545401" lon="12.118369"><ele>478.0</ele><time>2026-04-24T17:07:28.38Z</time></trkpt><trkpt lat="46.0544779" lon="12.1183443"><ele>478.0</ele><time>2026-04-24T17:07:30.373Z</time></trkpt><trkpt lat="46.0544395" lon="12.1182645"><ele>478.0</ele><time>2026-04-24T17:07:32.374Z</time></trkpt><trkpt lat="46.0543923" lon="12.1181481"><ele>478.00000000000006</ele><time>2026-04-24T17:07:35.377Z</time></trkpt><trkpt lat="46.0543542" lon="12.1180756"><ele>478.0</ele><time>2026-04-24T17:07:37.376Z</time></trkpt><trkpt lat="46.0542954" lon="12.1179704"><ele>478.00000000000006</ele><time>2026-04-24T17:07:40.375Z</time></trkpt><trkpt lat="46.0542535" lon="12.1178984"><ele>478.0</ele><time>2026-04-24T17:07:42.383Z</time></trkpt><trkpt lat="46.0541933" lon="12.1178"><ele>478.0</ele><time>2026-04-24T17:07:45.374Z</time></trkpt><trkpt lat="46.0541323" lon="12.1177133"><ele>478.0</ele><time>2026-04-24T17:07:48.369Z</time></trkpt><trkpt lat="46.0540853" lon="12.1176515"><ele>478.00000000000006</ele><time>2026-04-24T17:07:50.372Z</time></trkpt><trkpt lat="46.0540185" lon="12.1175876"><ele>478.0</ele><time>2026-04-24T17:07:53.372Z</time></trkpt><trkpt lat="46.0539437" lon="12.1175348"><ele>479.00000000000006</ele><time>2026-04-24T17:07:56.383Z</time></trkpt><trkpt lat="46.0538717" lon="12.1175071"><ele>480.0</ele><time>2026-04-24T17:07:59.369Z</time></trkpt><trkpt lat="46.0537988" lon="12.117493"><ele>481.0</ele><time>2026-04-24T17:08:02.372Z</time></trkpt><trkpt lat="46.0537236" lon="12.1174828"><ele>482.0</ele><time>2026-04-24T17:08:05.373Z</time></trkpt><trkpt lat="46.0536532" lon="12.1174393"><ele>483.00000000000006</ele><time>2026-04-24T17:08:09.374Z</time></trkpt><trkpt lat="46.0535853" lon="12.1175079"><ele>484.0</ele><time>2026-04-24T17:08:12.373Z</time></trkpt><trkpt lat="46.0535277" lon="12.1176203"><ele>484.0</ele><time>2026-04-24T17:08:15.372Z</time></trkpt><trkpt lat="46.0534879" lon="12.1177203"><ele>484.0</ele><time>2026-04-24T17:08:17.374Z</time></trkpt><trkpt lat="46.0534433" lon="12.1178515"><ele>484.0</ele><time>2026-04-24T17:08:19.373Z</time></trkpt><trkpt lat="46.0533926" lon="12.1179984"><ele>484.0</ele><time>2026-04-24T17:08:21.381Z</time></trkpt><trkpt lat="46.0533628" lon="12.1181681"><ele>484.0</ele><time>2026-04-24T17:08:23.381Z</time></trkpt><trkpt lat="46.0533462" lon="12.1183456"><ele>485.25</ele><time>2026-04-24T17:08:25.38Z</time></trkpt><trkpt lat="46.0533462" lon="12.1185182"><ele>486.5</ele><time>2026-04-24T17:08:27.381Z</time></trkpt><trkpt lat="46.0533441" lon="12.1186821"><ele>487.75</ele><time>2026-04-24T17:08:29.382Z</time></trkpt><trkpt lat="46.0533427" lon="12.1188457"><ele>489.0</ele><time>2026-04-24T17:08:31.376Z</time></trkpt><trkpt lat="46.0533535" lon="12.1189997"><ele>488.79999999999995</ele><time>2026-04-24T17:08:33.371Z</time></trkpt><trkpt lat="46.053387" lon="12.119213"><ele>488.59999999999997</ele><time>2026-04-24T17:08:36.375Z</time></trkpt><trkpt lat="46.0534197" lon="12.1193331"><ele>488.4</ele><time>2026-04-24T17:08:38.381Z</time></trkpt><trkpt lat="46.0534598" lon="12.1194321"><ele>488.2</ele><time>2026-04-24T17:08:40.383Z</time></trkpt><trkpt lat="46.0535076" lon="12.1195154"><ele>488.0</ele><time>2026-04-24T17:08:42.381Z</time></trkpt><trkpt lat="46.0535634" lon="12.1195983"><ele>487.99999999999994</ele><time>2026-04-24T17:08:44.374Z</time></trkpt><trkpt lat="46.0536184" lon="12.1196798"><ele>488.0</ele><time>2026-04-24T17:08:46.381Z</time></trkpt><trkpt lat="46.0536728" lon="12.1197587"><ele>487.99999999999994</ele><time>2026-04-24T17:08:48.377Z</time></trkpt><trkpt lat="46.0537254" lon="12.1198402"><ele>487.99999999999994</ele><time>2026-04-24T17:08:50.374Z</time></trkpt><trkpt lat="46.05377" lon="12.1199192"><ele>488.0</ele><time>2026-04-24T17:08:52.383Z</time></trkpt><trkpt lat="46.0538186" lon="12.1199894"><ele>487.99999999999994</ele><time>2026-04-24T17:08:54.372Z</time></trkpt><trkpt lat="46.0538579" lon="12.1200679"><ele>487.99999999999994</ele><time>2026-04-24T17:08:56.373Z</time></trkpt><trkpt lat="46.0539056" lon="12.1201488"><ele>488.16666666666663</ele><time>2026-04-24T17:08:58.375Z</time></trkpt><trkpt lat="46.0539559" lon="12.1202316"><ele>488.3333333333333</ele><time>2026-04-24T17:09:00.383Z</time></trkpt><trkpt lat="46.0540088" lon="12.1203156"><ele>488.5</ele><time>2026-04-24T17:09:02.382Z</time></trkpt><trkpt lat="46.0540634" lon="12.1203984"><ele>488.66666666666663</ele><time>2026-04-24T17:09:04.383Z</time></trkpt><trkpt lat="46.0541192" lon="12.1204855"><ele>488.8333333333333</ele><time>2026-04-24T17:09:06.373Z</time></trkpt><trkpt lat="46.054174" lon="12.1205762"><ele>489.0</ele><time>2026-04-24T17:09:08.381Z</time></trkpt><trkpt lat="46.0542262" lon="12.1206704"><ele>489.3333333333333</ele><time>2026-04-24T17:09:10.382Z</time></trkpt><trkpt lat="46.0542692" lon="12.1207771"><ele>489.66666666666663</ele><time>2026-04-24T17:09:12.377Z</time></trkpt><trkpt lat="46.054302" lon="12.1208882"><ele>490.0</ele><time>2026-04-24T17:09:14.382Z</time></trkpt><trkpt lat="46.0543328" lon="12.1210033"><ele>490.3333333333333</ele><time>2026-04-24T17:09:16.379Z</time></trkpt><trkpt lat="46.0543596" lon="12.1211132"><ele>490.66666666666663</ele><time>2026-04-24T17:09:18.375Z</time></trkpt><trkpt lat="46.0543804" lon="12.1212133"><ele>491.0</ele><time>2026-04-24T17:09:20.376Z</time></trkpt><trkpt lat="46.0543937" lon="12.1213192"><ele>490.99999999999994</ele><time>2026-04-24T17:09:22.374Z</time></trkpt><trkpt lat="46.0544103" lon="12.1214385"><ele>491.0</ele><time>2026-04-24T17:09:24.383Z</time></trkpt><trkpt lat="46.0544268" lon="12.1215574"><ele>491.0</ele><time>2026-04-24T17:09:26.375Z</time></trkpt><trkpt lat="46.0544516" lon="12.1216927"><ele>491.0</ele><time>2026-04-24T17:09:28.376Z</time></trkpt><trkpt lat="46.0544739" lon="12.1218174"><ele>490.99999999999994</ele><time>2026-04-24T17:09:30.373Z</time></trkpt><trkpt lat="46.0545018" lon="12.1219338"><ele>491.0</ele><time>2026-04-24T17:09:32.373Z</time></trkpt><trkpt lat="46.0545284" lon="12.1220494"><ele>490.66666666666663</ele><time>2026-04-24T17:09:34.381Z</time></trkpt><trkpt lat="46.0545546" lon="12.1221709"><ele>490.3333333333333</ele><time>2026-04-24T17:09:36.377Z</time></trkpt><trkpt lat="46.0545782" lon="12.1222875"><ele>490.0</ele><time>2026-04-24T17:09:38.373Z</time></trkpt><trkpt lat="46.0546033" lon="12.1223969"><ele>489.66666666666663</ele><time>2026-04-24T17:09:40.382Z</time></trkpt><trkpt lat="46.0546251" lon="12.1225037"><ele>489.3333333333333</ele><time>2026-04-24T17:09:42.383Z</time></trkpt><trkpt lat="46.0546332" lon="12.1226049"><ele>489.0</ele><time>2026-04-24T17:09:44.376Z</time></trkpt><trkpt lat="46.0546343" lon="12.1226979"><ele>488.8333333333333</ele><time>2026-04-24T17:09:46.382Z</time></trkpt><trkpt lat="46.0546421" lon="12.1227934"><ele>488.66666666666663</ele><time>2026-04-24T17:09:49.371Z</time></trkpt><trkpt lat="46.0546385" lon="12.1226765"><ele>488.5</ele><time>2026-04-24T17:09:56.38Z</time></trkpt><trkpt lat="46.054661" lon="12.1227863"><ele>488.3333333333333</ele><time>2026-04-24T17:11:12.382Z</time></trkpt><trkpt lat="46.0546825" lon="12.1229211"><ele>488.16666666666663</ele><time>2026-04-24T17:11:15.372Z</time></trkpt><trkpt lat="46.0546896" lon="12.1230262"><ele>488.0</ele><time>2026-04-24T17:11:17.374Z</time></trkpt><trkpt lat="46.0546929" lon="12.1231286"><ele>487.99999999999994</ele><time>2026-04-24T17:11:19.374Z</time></trkpt><trkpt lat="46.0546829" lon="12.123225"><ele>488.0</ele><time>2026-04-24T17:11:21.38Z</time></trkpt><trkpt lat="46.0546538" lon="12.1233257"><ele>488.0</ele><time>2026-04-24T17:11:23.378Z</time></trkpt><trkpt lat="46.0546171" lon="12.1234309"><ele>488.0</ele><time>2026-04-24T17:11:25.374Z</time></trkpt><trkpt lat="46.0545779" lon="12.1235371"><ele>487.99999999999994</ele><time>2026-04-24T17:11:27.379Z</time></trkpt><trkpt lat="46.0545408" lon="12.1236424"><ele>488.0</ele><time>2026-04-24T17:11:29.374Z</time></trkpt><trkpt lat="46.0545046" lon="12.1237533"><ele>488.16666666666663</ele><time>2026-04-24T17:11:31.379Z</time></trkpt><trkpt lat="46.0544637" lon="12.1238619"><ele>488.3333333333333</ele><time>2026-04-24T17:11:33.379Z</time></trkpt><trkpt lat="46.054429" lon="12.1239744"><ele>488.5</ele><time>2026-04-24T17:11:35.372Z</time></trkpt><trkpt lat="46.0543961" lon="12.1240904"><ele>488.66666666666663</ele><time>2026-04-24T17:11:37.381Z</time></trkpt><trkpt lat="46.0543742" lon="12.1242113"><ele>488.8333333333333</ele><time>2026-04-24T17:11:39.38Z</time></trkpt><trkpt lat="46.0543652" lon="12.1243287"><ele>489.0</ele><time>2026-04-24T17:11:41.373Z</time></trkpt><trkpt lat="46.0543589" lon="12.1244429"><ele>489.0</ele><time>2026-04-24T17:11:43.372Z</time></trkpt><trkpt lat="46.0543546" lon="12.1245585"><ele>489.0</ele><time>2026-04-24T17:11:45.378Z</time></trkpt><trkpt lat="46.0543647" lon="12.1246888"><ele>489.0</ele><time>2026-04-24T17:11:47.38Z</time></trkpt><trkpt lat="46.0543908" lon="12.1248141"><ele>489.0</ele><time>2026-04-24T17:11:49.375Z</time></trkpt><trkpt lat="46.0544119" lon="12.1249397"><ele>489.0</ele><time>2026-04-24T17:11:51.488Z</time></trkpt><trkpt lat="46.054432" lon="12.1250668"><ele>489.0</ele><time>2026-04-24T17:11:53.367Z</time></trkpt><trkpt lat="46.0544505" lon="12.1251954"><ele>489.4</ele><time>2026-04-24T17:11:55.37Z</time></trkpt><trkpt lat="46.0544682" lon="12.1253256"><ele>489.79999999999995</ele><time>2026-04-24T17:11:57.375Z</time></trkpt><trkpt lat="46.0544826" lon="12.1254539"><ele>490.20000000000005</ele><time>2026-04-24T17:11:59.38Z</time></trkpt><trkpt lat="46.0545013" lon="12.1255872"><ele>490.6</ele><time>2026-04-24T17:12:01.381Z</time></trkpt><trkpt lat="46.0545203" lon="12.1257203"><ele>491.0</ele><time>2026-04-24T17:12:03.378Z</time></trkpt><trkpt lat="46.0545492" lon="12.1258427"><ele>491.0</ele><time>2026-04-24T17:12:05.371Z</time></trkpt><trkpt lat="46.0545871" lon="12.1259582"><ele>491.0</ele><time>2026-04-24T17:12:07.38Z</time></trkpt><trkpt lat="46.0546273" lon="12.1260748"><ele>491.0</ele><time>2026-04-24T17:12:09.38Z</time></trkpt><trkpt lat="46.0546708" lon="12.1261897"><ele>491.0</ele><time>2026-04-24T17:12:11.371Z</time></trkpt><trkpt lat="46.0547112" lon="12.1263089"><ele>491.0</ele><time>2026-04-24T17:12:13.383Z</time></trkpt><trkpt lat="46.0547492" lon="12.1264272"><ele>490.99999999999994</ele><time>2026-04-24T17:12:15.376Z</time></trkpt><trkpt lat="46.0547921" lon="12.126541"><ele>491.0</ele><time>2026-04-24T17:12:17.38Z</time></trkpt><trkpt lat="46.0548313" lon="12.1266614"><ele>491.0</ele><time>2026-04-24T17:12:19.372Z</time></trkpt><trkpt lat="46.0548654" lon="12.1267814"><ele>491.0</ele><time>2026-04-24T17:12:21.372Z</time></trkpt><trkpt lat="46.0548976" lon="12.1268958"><ele>490.99999999999994</ele><time>2026-04-24T17:12:23.377Z</time></trkpt><trkpt lat="46.0549226" lon="12.1270131"><ele>491.0</ele><time>2026-04-24T17:12:25.373Z</time></trkpt><trkpt lat="46.0549513" lon="12.1271218"><ele>491.49999999999994</ele><time>2026-04-24T17:12:27.375Z</time></trkpt><trkpt lat="46.0549732" lon="12.1272295"><ele>492.0</ele><time>2026-04-24T17:12:29.378Z</time></trkpt><trkpt lat="46.0549938" lon="12.127329"><ele>492.5</ele><time>2026-04-24T17:12:31.372Z</time></trkpt><trkpt lat="46.0550143" lon="12.1274174"><ele>493.0</ele><time>2026-04-24T17:12:33.378Z</time></trkpt><trkpt lat="46.0550397" lon="12.1275466"><ele>493.49999999999994</ele><time>2026-04-24T17:12:36.379Z</time></trkpt><trkpt lat="46.0550491" lon="12.1276491"><ele>494.0</ele><time>2026-04-24T17:12:38.37Z</time></trkpt><trkpt lat="46.0550548" lon="12.1277589"><ele>494.14285714285717</ele><time>2026-04-24T17:12:40.385Z</time></trkpt><trkpt lat="46.0550611" lon="12.1278656"><ele>494.2857142857142</ele><time>2026-04-24T17:12:42.384Z</time></trkpt><trkpt lat="46.0550688" lon="12.1279653"><ele>494.4285714285714</ele><time>2026-04-24T17:12:44.373Z</time></trkpt><trkpt lat="46.0550746" lon="12.1280593"><ele>494.57142857142856</ele><time>2026-04-24T17:12:46.388Z</time></trkpt><trkpt lat="46.0550833" lon="12.1281548"><ele>494.71428571428567</ele><time>2026-04-24T17:12:48.38Z</time></trkpt><trkpt lat="46.0550991" lon="12.1282503"><ele>494.8571428571428</ele><time>2026-04-24T17:12:50.381Z</time></trkpt><trkpt lat="46.0551182" lon="12.1283413"><ele>494.99999999999994</ele><time>2026-04-24T17:12:52.373Z</time></trkpt><trkpt lat="46.0551618" lon="12.1284578"><ele>495.0</ele><time>2026-04-24T17:12:55.383Z</time></trkpt><trkpt lat="46.0552205" lon="12.1285548"><ele>495.0</ele><time>2026-04-24T17:12:58.385Z</time></trkpt><trkpt lat="46.0552799" lon="12.1286293"><ele>495.0</ele><time>2026-04-24T17:13:01.383Z</time></trkpt><trkpt lat="46.0553166" lon="12.1287396"><ele>495.0</ele><time>2026-04-24T17:13:04.377Z</time></trkpt><trkpt lat="46.0553228" lon="12.1288587"><ele>495.0</ele><time>2026-04-24T17:13:07.381Z</time></trkpt><trkpt lat="46.0553337" lon="12.1289701"><ele>495.0</ele><time>2026-04-24T17:13:10.378Z</time></trkpt><trkpt lat="46.0553621" lon="12.1290702"><ele>495.0</ele><time>2026-04-24T17:13:13.377Z</time></trkpt><trkpt lat="46.0553866" lon="12.1291637"><ele>495.0</ele><time>2026-04-24T17:13:16.383Z</time></trkpt><trkpt lat="46.0554111" lon="12.1292776"><ele>495.0</ele><time>2026-04-24T17:13:19.381Z</time></trkpt><trkpt lat="46.0554304" lon="12.1294413"><ele>495.0</ele><time>2026-04-24T17:13:23.379Z</time></trkpt><trkpt lat="46.0554212" lon="12.129571"><ele>495.0</ele><time>2026-04-24T17:13:26.376Z</time></trkpt><trkpt lat="46.0553742" lon="12.129685"><ele>495.0</ele><time>2026-04-24T17:13:29.376Z</time></trkpt><trkpt lat="46.0553255" lon="12.1297765"><ele>495.0</ele><time>2026-04-24T17:13:31.373Z</time></trkpt><trkpt lat="46.0552617" lon="12.1298807"><ele>495.0</ele><time>2026-04-24T17:13:33.395Z</time></trkpt><trkpt lat="46.0551776" lon="12.129972"><ele>495.0</ele><time>2026-04-24T17:13:35.38Z</time></trkpt><trkpt lat="46.0550857" lon="12.1300465"><ele>495.0</ele><time>2026-04-24T17:13:37.374Z</time></trkpt><trkpt lat="46.054998" lon="12.1301179"><ele>495.6</ele><time>2026-04-24T17:13:39.372Z</time></trkpt><trkpt lat="46.0549082" lon="12.1301881"><ele>496.2</ele><time>2026-04-24T17:13:41.374Z</time></trkpt><trkpt lat="46.0548072" lon="12.1302447"><ele>496.79999999999995</ele><time>2026-04-24T17:13:43.38Z</time></trkpt><trkpt lat="46.0547056" lon="12.1302953"><ele>497.4</ele><time>2026-04-24T17:13:45.378Z</time></trkpt><trkpt lat="46.0546122" lon="12.1303746"><ele>498.0</ele><time>2026-04-24T17:13:47.377Z</time></trkpt><trkpt lat="46.0545459" lon="12.1304633"><ele>498.0</ele><time>2026-04-24T17:13:49.372Z</time></trkpt><trkpt lat="46.0544807" lon="12.1305411"><ele>497.99999999999994</ele><time>2026-04-24T17:13:51.378Z</time></trkpt><trkpt lat="46.0544195" lon="12.1306242"><ele>497.99999999999994</ele><time>2026-04-24T17:13:53.385Z</time></trkpt><trkpt lat="46.0543481" lon="12.1307001"><ele>498.0</ele><time>2026-04-24T17:13:55.379Z</time></trkpt><trkpt lat="46.0542616" lon="12.130784"><ele>498.0</ele><time>2026-04-24T17:13:57.395Z</time></trkpt><trkpt lat="46.05418" lon="12.1308723"><ele>497.59999999999997</ele><time>2026-04-24T17:13:59.38Z</time></trkpt><trkpt lat="46.0541091" lon="12.1309511"><ele>497.19999999999993</ele><time>2026-04-24T17:14:01.385Z</time></trkpt><trkpt lat="46.0540283" lon="12.131051"><ele>496.8</ele><time>2026-04-24T17:14:03.379Z</time></trkpt><trkpt lat="46.0539523" lon="12.1311258"><ele>496.4</ele><time>2026-04-24T17:14:05.376Z</time></trkpt><trkpt lat="46.0538623" lon="12.1312189"><ele>496.0</ele><time>2026-04-24T17:14:07.382Z</time></trkpt><trkpt lat="46.0537773" lon="12.1312889"><ele>496.0</ele><time>2026-04-24T17:14:09.386Z</time></trkpt><trkpt lat="46.0536774" lon="12.131369"><ele>496.0</ele><time>2026-04-24T17:14:11.387Z</time></trkpt><trkpt lat="46.0536209" lon="12.1314135"><ele>496.0</ele><time>2026-04-24T17:14:12.387Z</time></trkpt><trkpt lat="46.0535135" lon="12.1315044"><ele>496.0</ele><time>2026-04-24T17:14:14.378Z</time></trkpt><trkpt lat="46.053452" lon="12.1315472"><ele>496.0</ele><time>2026-04-24T17:14:15.369Z</time></trkpt><trkpt lat="46.0533491" lon="12.1316124"><ele>496.6</ele><time>2026-04-24T17:14:17.378Z</time></trkpt><trkpt lat="46.0532471" lon="12.1316619"><ele>497.20000000000005</ele><time>2026-04-24T17:14:19.379Z</time></trkpt><trkpt lat="46.0531548" lon="12.1317104"><ele>497.79999999999995</ele><time>2026-04-24T17:14:21.377Z</time></trkpt><trkpt lat="46.0530598" lon="12.1317499"><ele>498.4</ele><time>2026-04-24T17:14:23.384Z</time></trkpt><trkpt lat="46.0529594" lon="12.1317779"><ele>499.0</ele><time>2026-04-24T17:14:25.387Z</time></trkpt><trkpt lat="46.0528719" lon="12.1318012"><ele>499.0</ele><time>2026-04-24T17:14:27.386Z</time></trkpt><trkpt lat="46.0527881" lon="12.1318042"><ele>499.0</ele><time>2026-04-24T17:14:29.376Z</time></trkpt><trkpt lat="46.0527032" lon="12.1318116"><ele>499.0</ele><time>2026-04-24T17:14:31.389Z</time></trkpt><trkpt lat="46.0526055" lon="12.1318197"><ele>499.0</ele><time>2026-04-24T17:14:33.38Z</time></trkpt><trkpt lat="46.0525115" lon="12.1318285"><ele>499.0</ele><time>2026-04-24T17:14:35.38Z</time></trkpt><trkpt lat="46.0524206" lon="12.131858"><ele>499.00000000000006</ele><time>2026-04-24T17:14:37.38Z</time></trkpt><trkpt lat="46.0523341" lon="12.1319088"><ele>499.0</ele><time>2026-04-24T17:14:39.381Z</time></trkpt><trkpt lat="46.0522568" lon="12.1319535"><ele>499.0</ele><time>2026-04-24T17:14:41.369Z</time></trkpt><trkpt lat="46.0521851" lon="12.1319927"><ele>499.0</ele><time>2026-04-24T17:14:43.387Z</time></trkpt><trkpt lat="46.052124" lon="12.1320604"><ele>499.00000000000006</ele><time>2026-04-24T17:14:45.38Z</time></trkpt><trkpt lat="46.0520629" lon="12.1321211"><ele>499.0</ele><time>2026-04-24T17:14:47.381Z</time></trkpt><trkpt lat="46.0520007" lon="12.1321723"><ele>499.00000000000006</ele><time>2026-04-24T17:14:49.383Z</time></trkpt><trkpt lat="46.0519294" lon="12.1322269"><ele>499.0</ele><time>2026-04-24T17:14:51.379Z</time></trkpt><trkpt lat="46.0518595" lon="12.1322927"><ele>499.0</ele><time>2026-04-24T17:14:53.383Z</time></trkpt><trkpt lat="46.0517823" lon="12.1323529"><ele>499.0</ele><time>2026-04-24T17:14:55.385Z</time></trkpt><trkpt lat="46.0516951" lon="12.1324045"><ele>499.00000000000006</ele><time>2026-04-24T17:14:57.486Z</time></trkpt><trkpt lat="46.0516044" lon="12.1324599"><ele>499.0</ele><time>2026-04-24T17:14:59.381Z</time></trkpt><trkpt lat="46.0515149" lon="12.1325061"><ele>499.4</ele><time>2026-04-24T17:15:01.381Z</time></trkpt><trkpt lat="46.0514384" lon="12.1325619"><ele>499.79999999999995</ele><time>2026-04-24T17:15:03.381Z</time></trkpt><trkpt lat="46.0514235" lon="12.1326702"><ele>500.20000000000005</ele><time>2026-04-24T17:15:05.38Z</time></trkpt><trkpt lat="46.0515052" lon="12.1327408"><ele>500.6</ele><time>2026-04-24T17:15:07.379Z</time></trkpt><trkpt lat="46.0515731" lon="12.1327674"><ele>501.0</ele><time>2026-04-24T17:15:08.391Z</time></trkpt><trkpt lat="46.0517009" lon="12.1328184"><ele>501.0</ele><time>2026-04-24T17:15:10.378Z</time></trkpt><trkpt lat="46.0517712" lon="12.1328332"><ele>501.0</ele><time>2026-04-24T17:15:11.374Z</time></trkpt><trkpt lat="46.0518474" lon="12.1328369"><ele>501.0</ele><time>2026-04-24T17:15:12.378Z</time></trkpt><trkpt lat="46.0519266" lon="12.1328497"><ele>501.0</ele><time>2026-04-24T17:15:13.371Z</time></trkpt><trkpt lat="46.0519963" lon="12.132866"><ele>501.0</ele><time>2026-04-24T17:15:14.376Z</time></trkpt><trkpt lat="46.0520605" lon="12.1328806"><ele>501.0</ele><time>2026-04-24T17:15:15.372Z</time></trkpt><trkpt lat="46.0521267" lon="12.1329147"><ele>501.0</ele><time>2026-04-24T17:15:16.38Z</time></trkpt><trkpt lat="46.0522416" lon="12.1330148"><ele>501.0</ele><time>2026-04-24T17:15:18.374Z</time></trkpt><trkpt lat="46.052305" lon="12.1330677"><ele>501.0</ele><time>2026-04-24T17:15:19.373Z</time></trkpt><trkpt lat="46.0523936" lon="12.1331563"><ele>501.0</ele><time>2026-04-24T17:15:21.37Z</time></trkpt><trkpt lat="46.0524619" lon="12.1331947"><ele>501.0</ele><time>2026-04-24T17:15:23.375Z</time></trkpt><trkpt lat="46.0525325" lon="12.1331709"><ele>501.0</ele><time>2026-04-24T17:15:24.377Z</time></trkpt><trkpt lat="46.052603" lon="12.1331612"><ele>501.0</ele><time>2026-04-24T17:15:25.373Z</time></trkpt><trkpt lat="46.0527527" lon="12.1331705"><ele>499.3333333333333</ele><time>2026-04-24T17:15:27.396Z</time></trkpt><trkpt lat="46.0528586" lon="12.1331679"><ele>497.66666666666663</ele><time>2026-04-24T17:15:28.374Z</time></trkpt><trkpt lat="46.0529443" lon="12.1331893"><ele>496.0</ele><time>2026-04-24T17:15:29.374Z</time></trkpt><trkpt lat="46.0530213" lon="12.133198"><ele>494.3333333333333</ele><time>2026-04-24T17:15:30.383Z</time></trkpt><trkpt lat="46.0530959" lon="12.133214"><ele>492.66666666666663</ele><time>2026-04-24T17:15:31.378Z</time></trkpt><trkpt lat="46.0531741" lon="12.1332288"><ele>491.0</ele><time>2026-04-24T17:15:32.375Z</time></trkpt><trkpt lat="46.0532376" lon="12.1332535"><ele>489.20000000000005</ele><time>2026-04-24T17:15:33.386Z</time></trkpt><trkpt lat="46.0533126" lon="12.1332895"><ele>487.40000000000003</ele><time>2026-04-24T17:15:35.374Z</time></trkpt><trkpt lat="46.0534057" lon="12.1331772"><ele>485.6</ele><time>2026-04-24T17:15:37.381Z</time></trkpt><trkpt lat="46.0534291" lon="12.1330185"><ele>483.8</ele><time>2026-04-24T17:15:39.376Z</time></trkpt><trkpt lat="46.0534585" lon="12.1328648"><ele>482.0</ele><time>2026-04-24T17:15:41.383Z</time></trkpt><trkpt lat="46.0535157" lon="12.1327856"><ele>481.99999999999994</ele><time>2026-04-24T17:15:42.389Z</time></trkpt><trkpt lat="46.053613" lon="12.1327108"><ele>482.0</ele><time>2026-04-24T17:15:44.375Z</time></trkpt><trkpt lat="46.0536798" lon="12.1326601"><ele>482.0</ele><time>2026-04-24T17:15:45.381Z</time></trkpt><trkpt lat="46.053742" lon="12.132625"><ele>482.0</ele><time>2026-04-24T17:15:46.381Z</time></trkpt><trkpt lat="46.0538251" lon="12.1325738"><ele>481.99999999999994</ele><time>2026-04-24T17:15:48.379Z</time></trkpt><trkpt lat="46.0539113" lon="12.1325454"><ele>482.0</ele><time>2026-04-24T17:15:51.38Z</time></trkpt><trkpt lat="46.0539772" lon="12.1325767"><ele>481.99999999999994</ele><time>2026-04-24T17:15:54.382Z</time></trkpt><trkpt lat="46.0540411" lon="12.132614"><ele>482.0</ele><time>2026-04-24T17:15:56.383Z</time></trkpt><trkpt lat="46.0540998" lon="12.1326681"><ele>482.0</ele><time>2026-04-24T17:15:58.375Z</time></trkpt><trkpt lat="46.0541479" lon="12.1327427"><ele>482.0</ele><time>2026-04-24T17:16:00.382Z</time></trkpt><trkpt lat="46.0542163" lon="12.1328228"><ele>481.99999999999994</ele><time>2026-04-24T17:16:02.383Z</time></trkpt><trkpt lat="46.0543115" lon="12.1328658"><ele>482.0</ele><time>2026-04-24T17:16:04.371Z</time></trkpt><trkpt lat="46.0543905" lon="12.1329163"><ele>479.8333333333333</ele><time>2026-04-24T17:16:06.378Z</time></trkpt><trkpt lat="46.0544716" lon="12.1329547"><ele>477.66666666666663</ele><time>2026-04-24T17:16:09.378Z</time></trkpt><trkpt lat="46.0545674" lon="12.1329498"><ele>475.5</ele><time>2026-04-24T17:16:12.383Z</time></trkpt><trkpt lat="46.0546378" lon="12.1329469"><ele>473.33333333333337</ele><time>2026-04-24T17:16:13.373Z</time></trkpt><trkpt lat="46.0547035" lon="12.132991"><ele>471.1666666666667</ele><time>2026-04-24T17:16:15.382Z</time></trkpt><trkpt lat="46.0547837" lon="12.1330077"><ele>469.0</ele><time>2026-04-24T17:16:17.382Z</time></trkpt><trkpt lat="46.054875" lon="12.132965"><ele>467.33333333333337</ele><time>2026-04-24T17:16:19.374Z</time></trkpt><trkpt lat="46.0549765" lon="12.1328741"><ele>465.6666666666667</ele><time>2026-04-24T17:16:21.383Z</time></trkpt><trkpt lat="46.0550375" lon="12.1328261"><ele>464.0</ele><time>2026-04-24T17:16:22.373Z</time></trkpt><trkpt lat="46.0550991" lon="12.1327437"><ele>462.33333333333337</ele><time>2026-04-24T17:16:24.383Z</time></trkpt><trkpt lat="46.0551434" lon="12.132646"><ele>460.6666666666667</ele><time>2026-04-24T17:16:27.515Z</time></trkpt><trkpt lat="46.0552065" lon="12.1325617"><ele>459.0</ele><time>2026-04-24T17:16:31.386Z</time></trkpt><trkpt lat="46.055242" lon="12.1324773"><ele>460.42857142857144</ele><time>2026-04-24T17:16:34.383Z</time></trkpt><trkpt lat="46.0552464" lon="12.1323794"><ele>461.85714285714283</ele><time>2026-04-24T17:16:36.383Z</time></trkpt><trkpt lat="46.0553036" lon="12.1323271"><ele>463.2857142857143</ele><time>2026-04-24T17:16:39.374Z</time></trkpt><trkpt lat="46.0553558" lon="12.1322723"><ele>464.7142857142857</ele><time>2026-04-24T17:16:44.382Z</time></trkpt><trkpt lat="46.0554398" lon="12.1322146"><ele>466.1428571428571</ele><time>2026-04-24T17:16:47.382Z</time></trkpt><trkpt lat="46.0555041" lon="12.1322513"><ele>467.57142857142856</ele><time>2026-04-24T17:16:51.383Z</time></trkpt><trkpt lat="46.0555725" lon="12.1322942"><ele>469.0</ele><time>2026-04-24T17:16:54.377Z</time></trkpt><trkpt lat="46.0556359" lon="12.1322838"><ele>469.00000000000006</ele><time>2026-04-24T17:16:56.384Z</time></trkpt><trkpt lat="46.05571" lon="12.1322605"><ele>469.0</ele><time>2026-04-24T17:16:58.383Z</time></trkpt><trkpt lat="46.0557926" lon="12.132239"><ele>469.0</ele><time>2026-04-24T17:17:00.384Z</time></trkpt><trkpt lat="46.0558952" lon="12.1321743"><ele>469.0</ele><time>2026-04-24T17:17:02.373Z</time></trkpt><trkpt lat="46.0559765" lon="12.1321251"><ele>469.00000000000006</ele><time>2026-04-24T17:17:04.383Z</time></trkpt><trkpt lat="46.0560413" lon="12.132094"><ele>469.0</ele><time>2026-04-24T17:17:06.383Z</time></trkpt><trkpt lat="46.0561043" lon="12.1320352"><ele>467.6666666666667</ele><time>2026-04-24T17:17:08.383Z</time></trkpt><trkpt lat="46.056166" lon="12.1320003"><ele>466.33333333333337</ele><time>2026-04-24T17:17:10.376Z</time></trkpt><trkpt lat="46.0562459" lon="12.1319334"><ele>465.0</ele><time>2026-04-24T17:17:12.378Z</time></trkpt><trkpt lat="46.0563564" lon="12.131836"><ele>463.66666666666663</ele><time>2026-04-24T17:17:14.382Z</time></trkpt><trkpt lat="46.0564228" lon="12.1317806"><ele>462.3333333333333</ele><time>2026-04-24T17:17:15.384Z</time></trkpt><trkpt lat="46.056482" lon="12.1318224"><ele>461.0</ele><time>2026-04-24T17:17:17.382Z</time></trkpt><trkpt lat="46.0565477" lon="12.1318826"><ele>460.0</ele><time>2026-04-24T17:17:20.382Z</time></trkpt><trkpt lat="46.0566223" lon="12.1319419"><ele>459.0</ele><time>2026-04-24T17:17:22.381Z</time></trkpt><trkpt lat="46.056674" lon="12.1320199"><ele>458.0</ele><time>2026-04-24T17:17:24.384Z</time></trkpt><trkpt lat="46.0567383" lon="12.1321089"><ele>457.0</ele><time>2026-04-24T17:17:26.376Z</time></trkpt><trkpt lat="46.0567878" lon="12.1322373"><ele>456.0</ele><time>2026-04-24T17:17:28.396Z</time></trkpt><trkpt lat="46.0568204" lon="12.1323814"><ele>453.8</ele><time>2026-04-24T17:17:30.376Z</time></trkpt><trkpt lat="46.0568491" lon="12.1325132"><ele>451.6</ele><time>2026-04-24T17:17:32.384Z</time></trkpt><trkpt lat="46.0569214" lon="12.1325754"><ele>449.4</ele><time>2026-04-24T17:17:35.382Z</time></trkpt><trkpt lat="46.0570214" lon="12.1325557"><ele>447.2</ele><time>2026-04-24T17:17:37.375Z</time></trkpt><trkpt lat="46.0570916" lon="12.1325368"><ele>445.0</ele><time>2026-04-24T17:17:38.381Z</time></trkpt><trkpt lat="46.0572011" lon="12.1324879"><ele>445.6666666666667</ele><time>2026-04-24T17:17:40.383Z</time></trkpt><trkpt lat="46.0572846" lon="12.1323847"><ele>446.33333333333337</ele><time>2026-04-24T17:17:42.388Z</time></trkpt><trkpt lat="46.0573345" lon="12.1323229"><ele>447.0</ele><time>2026-04-24T17:17:43.395Z</time></trkpt><trkpt lat="46.0573995" lon="12.1322484"><ele>447.66666666666663</ele><time>2026-04-24T17:17:44.384Z</time></trkpt><trkpt lat="46.0574621" lon="12.1322199"><ele>448.3333333333333</ele><time>2026-04-24T17:17:45.383Z</time></trkpt><trkpt lat="46.0575629" lon="12.1321305"><ele>449.0</ele><time>2026-04-24T17:17:47.375Z</time></trkpt><trkpt lat="46.057608" lon="12.1320601"><ele>449.0</ele><time>2026-04-24T17:17:48.388Z</time></trkpt><trkpt lat="46.0577124" lon="12.1319889"><ele>449.0</ele><time>2026-04-24T17:17:50.381Z</time></trkpt><trkpt lat="46.0578005" lon="12.1319112"><ele>449.0</ele><time>2026-04-24T17:17:52.373Z</time></trkpt><trkpt lat="46.0578876" lon="12.131796"><ele>449.0</ele><time>2026-04-24T17:17:54.387Z</time></trkpt><trkpt lat="46.0579408" lon="12.1317244"><ele>449.0</ele><time>2026-04-24T17:17:55.383Z</time></trkpt><trkpt lat="46.0579983" lon="12.1316426"><ele>449.0</ele><time>2026-04-24T17:17:56.389Z</time></trkpt><trkpt lat="46.0580365" lon="12.1315678"><ele>448.99999999999994</ele><time>2026-04-24T17:17:57.391Z</time></trkpt><trkpt lat="46.0580781" lon="12.1314724"><ele>449.0</ele><time>2026-04-24T17:17:58.379Z</time></trkpt><trkpt lat="46.0581356" lon="12.1314013"><ele>449.0</ele><time>2026-04-24T17:17:59.398Z</time></trkpt><trkpt lat="46.0582018" lon="12.1313381"><ele>448.99999999999994</ele><time>2026-04-24T17:18:00.387Z</time></trkpt><trkpt lat="46.0582616" lon="12.1312982"><ele>449.0</ele><time>2026-04-24T17:18:01.389Z</time></trkpt><trkpt lat="46.0583227" lon="12.1312393"><ele>449.0</ele><time>2026-04-24T17:18:02.387Z</time></trkpt><trkpt lat="46.0583786" lon="12.1311085"><ele>447.66666666666663</ele><time>2026-04-24T17:18:04.383Z</time></trkpt><trkpt lat="46.0584049" lon="12.1310087"><ele>446.3333333333333</ele><time>2026-04-24T17:18:06.382Z</time></trkpt><trkpt lat="46.0584148" lon="12.1309088"><ele>445.0</ele><time>2026-04-24T17:18:08.379Z</time></trkpt><trkpt lat="46.0584412" lon="12.1307803"><ele>443.66666666666663</ele><time>2026-04-24T17:18:11.383Z</time></trkpt><trkpt lat="46.0584642" lon="12.1306756"><ele>442.3333333333333</ele><time>2026-04-24T17:18:14.374Z</time></trkpt><trkpt lat="46.0584987" lon="12.1305701"><ele>441.0</ele><time>2026-04-24T17:18:16.383Z</time></trkpt><trkpt lat="46.0585311" lon="12.1304492"><ele>441.0</ele><time>2026-04-24T17:18:18.379Z</time></trkpt><trkpt lat="46.0585699" lon="12.1303266"><ele>441.0</ele><time>2026-04-24T17:18:20.388Z</time></trkpt><trkpt lat="46.0585767" lon="12.1302045"><ele>441.0</ele><time>2026-04-24T17:18:22.381Z</time></trkpt><trkpt lat="46.0586327" lon="12.1300619"><ele>441.0</ele><time>2026-04-24T17:18:24.386Z</time></trkpt><trkpt lat="46.0586248" lon="12.129963"><ele>441.0</ele><time>2026-04-24T17:18:26.377Z</time></trkpt><trkpt lat="46.0586212" lon="12.1298278"><ele>441.8</ele><time>2026-04-24T17:18:28.39Z</time></trkpt><trkpt lat="46.0586578" lon="12.1297023"><ele>442.6</ele><time>2026-04-24T17:18:30.388Z</time></trkpt><trkpt lat="46.058742" lon="12.1296274"><ele>443.4</ele><time>2026-04-24T17:18:32.376Z</time></trkpt><trkpt lat="46.0588414" lon="12.1295593"><ele>444.2</ele><time>2026-04-24T17:18:34.406Z</time></trkpt><trkpt lat="46.0589681" lon="12.12949"><ele>445.0</ele><time>2026-04-24T17:18:36.382Z</time></trkpt><trkpt lat="46.0590456" lon="12.1294598"><ele>445.00000000000006</ele><time>2026-04-24T17:18:37.373Z</time></trkpt><trkpt lat="46.0591154" lon="12.1294132"><ele>445.0</ele><time>2026-04-24T17:18:38.383Z</time></trkpt><trkpt lat="46.0592333" lon="12.1293412"><ele>445.0</ele><time>2026-04-24T17:18:40.372Z</time></trkpt><trkpt lat="46.0592942" lon="12.1293091"><ele>445.0</ele><time>2026-04-24T17:18:41.381Z</time></trkpt><trkpt lat="46.0593618" lon="12.1292473"><ele>445.00000000000006</ele><time>2026-04-24T17:18:42.381Z</time></trkpt><trkpt lat="46.0594226" lon="12.1291961"><ele>445.0</ele><time>2026-04-24T17:18:43.382Z</time></trkpt><trkpt lat="46.0594891" lon="12.1291339"><ele>442.50000000000006</ele><time>2026-04-24T17:18:44.383Z</time></trkpt><trkpt lat="46.059554" lon="12.1290746"><ele>440.0</ele><time>2026-04-24T17:18:45.383Z</time></trkpt><trkpt lat="46.05962" lon="12.1290153"><ele>437.5</ele><time>2026-04-24T17:18:46.382Z</time></trkpt><trkpt lat="46.0596853" lon="12.1289649"><ele>435.0</ele><time>2026-04-24T17:18:47.381Z</time></trkpt><trkpt lat="46.05976" lon="12.1289353"><ele>432.50000000000006</ele><time>2026-04-24T17:18:48.375Z</time></trkpt><trkpt lat="46.0598245" lon="12.128901"><ele>430.0</ele><time>2026-04-24T17:18:49.371Z</time></trkpt><trkpt lat="46.0599444" lon="12.1288309"><ele>427.83333333333337</ele><time>2026-04-24T17:18:51.384Z</time></trkpt><trkpt lat="46.0600031" lon="12.1287845"><ele>425.6666666666667</ele><time>2026-04-24T17:18:52.375Z</time></trkpt><trkpt lat="46.0601117" lon="12.1287033"><ele>423.5</ele><time>2026-04-24T17:18:54.386Z</time></trkpt><trkpt lat="46.060169" lon="12.1286491"><ele>421.33333333333337</ele><time>2026-04-24T17:18:55.383Z</time></trkpt><trkpt lat="46.0602138" lon="12.128581"><ele>419.1666666666667</ele><time>2026-04-24T17:18:56.382Z</time></trkpt><trkpt lat="46.0602559" lon="12.1285045"><ele>417.0</ele><time>2026-04-24T17:18:57.383Z</time></trkpt><trkpt lat="46.0603082" lon="12.1284429"><ele>417.0</ele><time>2026-04-24T17:18:58.383Z</time></trkpt><trkpt lat="46.0604031" lon="12.1283153"><ele>417.0</ele><time>2026-04-24T17:19:00.375Z</time></trkpt><trkpt lat="46.0604623" lon="12.1282409"><ele>417.0</ele><time>2026-04-24T17:19:01.384Z</time></trkpt><trkpt lat="46.0605121" lon="12.1281618"><ele>417.0</ele><time>2026-04-24T17:19:02.408Z</time></trkpt><trkpt lat="46.0605509" lon="12.128075"><ele>417.0</ele><time>2026-04-24T17:19:03.382Z</time></trkpt><trkpt lat="46.0605708" lon="12.127967"><ele>417.0</ele><time>2026-04-24T17:19:04.381Z</time></trkpt><trkpt lat="46.0606307" lon="12.1279294"><ele>417.0</ele><time>2026-04-24T17:19:05.415Z</time></trkpt><trkpt lat="46.0607213" lon="12.1278285"><ele>417.0</ele><time>2026-04-24T17:19:07.378Z</time></trkpt><trkpt lat="46.0608087" lon="12.1277921"><ele>417.0</ele><time>2026-04-24T17:19:09.374Z</time></trkpt><trkpt lat="46.0608556" lon="12.1278716"><ele>417.0</ele><time>2026-04-24T17:19:14.373Z</time></trkpt><trkpt lat="46.0608321" lon="12.1279662"><ele>417.0</ele><time>2026-04-24T17:19:17.372Z</time></trkpt><trkpt lat="46.0608278" lon="12.1280696"><ele>417.0</ele><time>2026-04-24T17:19:19.374Z</time></trkpt><trkpt lat="46.0608163" lon="12.1281663"><ele>417.0</ele><time>2026-04-24T17:19:21.374Z</time></trkpt><trkpt lat="46.0608042" lon="12.1282575"><ele>417.0</ele><time>2026-04-24T17:19:23.375Z</time></trkpt><trkpt lat="46.0607902" lon="12.1283816"><ele>417.0</ele><time>2026-04-24T17:19:26.383Z</time></trkpt><trkpt lat="46.0607791" lon="12.1284715"><ele>417.0</ele><time>2026-04-24T17:19:28.373Z</time></trkpt><trkpt lat="46.0607602" lon="12.1286007"><ele>417.0</ele><time>2026-04-24T17:19:31.386Z</time></trkpt><trkpt lat="46.0607393" lon="12.1286978"><ele>417.0</ele><time>2026-04-24T17:19:33.38Z</time></trkpt><trkpt lat="46.0607204" lon="12.128791"><ele>417.0</ele><time>2026-04-24T17:19:35.381Z</time></trkpt><trkpt lat="46.0607011" lon="12.1288777"><ele>417.0</ele><time>2026-04-24T17:19:37.381Z</time></trkpt><trkpt lat="46.060673" lon="12.1290038"><ele>417.0</ele><time>2026-04-24T17:19:40.376Z</time></trkpt><trkpt lat="46.0606458" lon="12.129118"><ele>417.0</ele><time>2026-04-24T17:19:43.374Z</time></trkpt><trkpt lat="46.0606063" lon="12.129235"><ele>417.0</ele><time>2026-04-24T17:19:46.378Z</time></trkpt><trkpt lat="46.0605813" lon="12.1293218"><ele>417.0</ele><time>2026-04-24T17:19:48.39Z</time></trkpt><trkpt lat="46.0605614" lon="12.1294113"><ele>417.0</ele><time>2026-04-24T17:19:50.385Z</time></trkpt><trkpt lat="46.0605388" lon="12.1294962"><ele>416.8333333333333</ele><time>2026-04-24T17:19:52.392Z</time></trkpt><trkpt lat="46.0605153" lon="12.1295877"><ele>416.66666666666663</ele><time>2026-04-24T17:19:54.381Z</time></trkpt><trkpt lat="46.0605002" lon="12.1296839"><ele>416.5</ele><time>2026-04-24T17:19:56.391Z</time></trkpt><trkpt lat="46.060487" lon="12.1297894"><ele>416.3333333333333</ele><time>2026-04-24T17:19:58.385Z</time></trkpt><trkpt lat="46.0604784" lon="12.1299195"><ele>416.16666666666663</ele><time>2026-04-24T17:20:00.383Z</time></trkpt><trkpt lat="46.060468" lon="12.1300572"><ele>416.0</ele><time>2026-04-24T17:20:02.382Z</time></trkpt><trkpt lat="46.0604521" lon="12.1301953"><ele>415.8</ele><time>2026-04-24T17:20:04.379Z</time></trkpt><trkpt lat="46.060435" lon="12.130345"><ele>415.6</ele><time>2026-04-24T17:20:06.38Z</time></trkpt><trkpt lat="46.0604238" lon="12.130499"><ele>415.4</ele><time>2026-04-24T17:20:08.381Z</time></trkpt><trkpt lat="46.0603984" lon="12.1306577"><ele>415.2</ele><time>2026-04-24T17:20:10.378Z</time></trkpt><trkpt lat="46.0603565" lon="12.1308105"><ele>415.0</ele><time>2026-04-24T17:20:12.407Z</time></trkpt><trkpt lat="46.0602767" lon="12.1308985"><ele>413.83333333333337</ele><time>2026-04-24T17:20:13.378Z</time></trkpt><trkpt lat="46.0602168" lon="12.1309815"><ele>412.6666666666667</ele><time>2026-04-24T17:20:14.387Z</time></trkpt><trkpt lat="46.0601575" lon="12.1310596"><ele>411.5</ele><time>2026-04-24T17:20:15.38Z</time></trkpt><trkpt lat="46.0600897" lon="12.1311386"><ele>410.33333333333337</ele><time>2026-04-24T17:20:16.372Z</time></trkpt><trkpt lat="46.0600195" lon="12.1312224"><ele>409.1666666666667</ele><time>2026-04-24T17:20:17.375Z</time></trkpt><trkpt lat="46.0599491" lon="12.1312979"><ele>408.0</ele><time>2026-04-24T17:20:18.382Z</time></trkpt><trkpt lat="46.0598887" lon="12.1313721"><ele>408.8333333333333</ele><time>2026-04-24T17:20:19.374Z</time></trkpt><trkpt lat="46.0598184" lon="12.1314516"><ele>409.66666666666663</ele><time>2026-04-24T17:20:20.398Z</time></trkpt><trkpt lat="46.0597579" lon="12.1315327"><ele>410.5</ele><time>2026-04-24T17:20:21.4Z</time></trkpt><trkpt lat="46.0596958" lon="12.1316192"><ele>411.3333333333333</ele><time>2026-04-24T17:20:22.372Z</time></trkpt><trkpt lat="46.0596389" lon="12.1317085"><ele>412.16666666666663</ele><time>2026-04-24T17:20:23.379Z</time></trkpt><trkpt lat="46.0595718" lon="12.1318116"><ele>413.0</ele><time>2026-04-24T17:20:24.378Z</time></trkpt><trkpt lat="46.0595075" lon="12.1318952"><ele>412.99999999999994</ele><time>2026-04-24T17:20:25.382Z</time></trkpt><trkpt lat="46.0594453" lon="12.1319757"><ele>413.0</ele><time>2026-04-24T17:20:26.375Z</time></trkpt><trkpt lat="46.0593815" lon="12.132077"><ele>413.0</ele><time>2026-04-24T17:20:27.382Z</time></trkpt><trkpt lat="46.0593159" lon="12.1321751"><ele>413.0</ele><time>2026-04-24T17:20:28.378Z</time></trkpt><trkpt lat="46.0592506" lon="12.1322491"><ele>412.99999999999994</ele><time>2026-04-24T17:20:29.376Z</time></trkpt><trkpt lat="46.0591826" lon="12.1323406"><ele>413.0</ele><time>2026-04-24T17:20:30.374Z</time></trkpt><trkpt lat="46.0591099" lon="12.1324166"><ele>411.99999999999994</ele><time>2026-04-24T17:20:31.371Z</time></trkpt><trkpt lat="46.0590384" lon="12.1324847"><ele>411.0</ele><time>2026-04-24T17:20:32.375Z</time></trkpt><trkpt lat="46.058963" lon="12.132565"><ele>410.0</ele><time>2026-04-24T17:20:33.376Z</time></trkpt><trkpt lat="46.0588965" lon="12.1326469"><ele>409.0</ele><time>2026-04-24T17:20:34.377Z</time></trkpt><trkpt lat="46.0588349" lon="12.1327323"><ele>407.99999999999994</ele><time>2026-04-24T17:20:35.376Z</time></trkpt><trkpt lat="46.0587871" lon="12.1328147"><ele>407.0</ele><time>2026-04-24T17:20:36.374Z</time></trkpt><trkpt lat="46.0587455" lon="12.1329217"><ele>407.00000000000006</ele><time>2026-04-24T17:20:37.371Z</time></trkpt><trkpt lat="46.0587069" lon="12.1330211"><ele>407.0</ele><time>2026-04-24T17:20:38.374Z</time></trkpt><trkpt lat="46.0586676" lon="12.1331056"><ele>407.0</ele><time>2026-04-24T17:20:39.379Z</time></trkpt><trkpt lat="46.0586298" lon="12.1331916"><ele>407.0</ele><time>2026-04-24T17:20:40.372Z</time></trkpt><trkpt lat="46.0585859" lon="12.1332702"><ele>407.0</ele><time>2026-04-24T17:20:41.379Z</time></trkpt><trkpt lat="46.0585396" lon="12.133346"><ele>407.00000000000006</ele><time>2026-04-24T17:20:42.371Z</time></trkpt><trkpt lat="46.0584937" lon="12.1334119"><ele>407.0</ele><time>2026-04-24T17:20:43.379Z</time></trkpt><trkpt lat="46.058446" lon="12.1334809"><ele>407.28571428571433</ele><time>2026-04-24T17:20:44.376Z</time></trkpt><trkpt lat="46.0583961" lon="12.1335453"><ele>407.57142857142856</ele><time>2026-04-24T17:20:45.37Z</time></trkpt><trkpt lat="46.0583465" lon="12.1336054"><ele>407.8571428571429</ele><time>2026-04-24T17:20:46.373Z</time></trkpt><trkpt lat="46.0582951" lon="12.1336659"><ele>408.14285714285717</ele><time>2026-04-24T17:20:47.377Z</time></trkpt><trkpt lat="46.0582427" lon="12.1337255"><ele>408.42857142857144</ele><time>2026-04-24T17:20:48.374Z</time></trkpt><trkpt lat="46.0581889" lon="12.1337863"><ele>408.7142857142857</ele><time>2026-04-24T17:20:49.375Z</time></trkpt><trkpt lat="46.0581327" lon="12.133841"><ele>409.0</ele><time>2026-04-24T17:20:50.381Z</time></trkpt><trkpt lat="46.0580788" lon="12.1338983"><ele>409.0</ele><time>2026-04-24T17:20:51.373Z</time></trkpt><trkpt lat="46.0580257" lon="12.1339571"><ele>409.0</ele><time>2026-04-24T17:20:52.372Z</time></trkpt><trkpt lat="46.0579727" lon="12.1340166"><ele>409.0</ele><time>2026-04-24T17:20:53.375Z</time></trkpt><trkpt lat="46.0578712" lon="12.13412"><ele>409.0</ele><time>2026-04-24T17:20:55.511Z</time></trkpt><trkpt lat="46.0577896" lon="12.1342339"><ele>409.0</ele><time>2026-04-24T17:20:57.373Z</time></trkpt><trkpt lat="46.0577189" lon="12.134333"><ele>407.6666666666667</ele><time>2026-04-24T17:20:59.375Z</time></trkpt><trkpt lat="46.0576609" lon="12.1344156"><ele>406.33333333333337</ele><time>2026-04-24T17:21:01.378Z</time></trkpt><trkpt lat="46.0575993" lon="12.1344918"><ele>405.0</ele><time>2026-04-24T17:21:03.383Z</time></trkpt><trkpt lat="46.0575459" lon="12.1345668"><ele>403.66666666666663</ele><time>2026-04-24T17:21:05.381Z</time></trkpt><trkpt lat="46.0574896" lon="12.1346335"><ele>402.3333333333333</ele><time>2026-04-24T17:21:07.377Z</time></trkpt><trkpt lat="46.0574312" lon="12.134687"><ele>401.0</ele><time>2026-04-24T17:21:09.379Z</time></trkpt><trkpt lat="46.0573562" lon="12.1347185"><ele>400.99999999999994</ele><time>2026-04-24T17:21:11.371Z</time></trkpt><trkpt lat="46.0572692" lon="12.1347467"><ele>401.0</ele><time>2026-04-24T17:21:13.373Z</time></trkpt><trkpt lat="46.0571853" lon="12.1347818"><ele>401.0</ele><time>2026-04-24T17:21:15.37Z</time></trkpt><trkpt lat="46.0571024" lon="12.1348393"><ele>401.0</ele><time>2026-04-24T17:21:17.382Z</time></trkpt><trkpt lat="46.0570345" lon="12.1349157"><ele>400.99999999999994</ele><time>2026-04-24T17:21:19.384Z</time></trkpt><trkpt lat="46.0569744" lon="12.1349808"><ele>401.0</ele><time>2026-04-24T17:21:21.372Z</time></trkpt><trkpt lat="46.0569197" lon="12.1350336"><ele>400.99999999999994</ele><time>2026-04-24T17:21:23.381Z</time></trkpt><trkpt lat="46.0568657" lon="12.1350838"><ele>401.0</ele><time>2026-04-24T17:21:25.382Z</time></trkpt><trkpt lat="46.056792" lon="12.1351464"><ele>401.0</ele><time>2026-04-24T17:21:28.398Z</time></trkpt><trkpt lat="46.0567168" lon="12.1351997"><ele>401.0</ele><time>2026-04-24T17:21:31.384Z</time></trkpt><trkpt lat="46.0566326" lon="12.1352566"><ele>400.99999999999994</ele><time>2026-04-24T17:21:34.373Z</time></trkpt><trkpt lat="46.0565537" lon="12.1352992"><ele>401.0</ele><time>2026-04-24T17:21:37.378Z</time></trkpt><trkpt lat="46.056446" lon="12.1353254"><ele>401.0</ele><time>2026-04-24T17:21:40.374Z</time></trkpt><trkpt lat="46.0563544" lon="12.1353565"><ele>401.0</ele><time>2026-04-24T17:21:42.382Z</time></trkpt><trkpt lat="46.056256" lon="12.1353829"><ele>401.0</ele><time>2026-04-24T17:21:44.372Z</time></trkpt><trkpt lat="46.0561455" lon="12.135416"><ele>401.0</ele><time>2026-04-24T17:21:46.375Z</time></trkpt><trkpt lat="46.0560271" lon="12.1354748"><ele>401.0</ele><time>2026-04-24T17:21:48.374Z</time></trkpt><trkpt lat="46.0559265" lon="12.1355693"><ele>401.0</ele><time>2026-04-24T17:21:50.373Z</time></trkpt><trkpt lat="46.0558296" lon="12.1356366"><ele>401.0</ele><time>2026-04-24T17:21:52.373Z</time></trkpt><trkpt lat="46.055757" lon="12.1357221"><ele>401.0</ele><time>2026-04-24T17:21:54.372Z</time></trkpt><trkpt lat="46.0557414" lon="12.1358264"><ele>401.0</ele><time>2026-04-24T17:21:56.389Z</time></trkpt><trkpt lat="46.0557002" lon="12.1359722"><ele>401.0</ele><time>2026-04-24T17:21:58.389Z</time></trkpt><trkpt lat="46.0556521" lon="12.1360994"><ele>401.20000000000005</ele><time>2026-04-24T17:22:00.377Z</time></trkpt><trkpt lat="46.0555653" lon="12.1362378"><ele>401.40000000000003</ele><time>2026-04-24T17:22:02.372Z</time></trkpt><trkpt lat="46.0554667" lon="12.1363687"><ele>401.6</ele><time>2026-04-24T17:22:04.371Z</time></trkpt><trkpt lat="46.055389" lon="12.1365008"><ele>401.8</ele><time>2026-04-24T17:22:06.381Z</time></trkpt><trkpt lat="46.0553422" lon="12.1365623"><ele>402.0</ele><time>2026-04-24T17:22:07.38Z</time></trkpt><trkpt lat="46.0552677" lon="12.1366974"><ele>400.0</ele><time>2026-04-24T17:22:09.394Z</time></trkpt><trkpt lat="46.0552172" lon="12.1368506"><ele>398.0</ele><time>2026-04-24T17:22:11.379Z</time></trkpt><trkpt lat="46.055213" lon="12.1370111"><ele>396.0</ele><time>2026-04-24T17:22:13.373Z</time></trkpt><trkpt lat="46.055186" lon="12.137157"><ele>394.0</ele><time>2026-04-24T17:22:15.371Z</time></trkpt><trkpt lat="46.0551239" lon="12.1372719"><ele>392.0</ele><time>2026-04-24T17:22:17.379Z</time></trkpt><trkpt lat="46.0550482" lon="12.1373417"><ele>391.0</ele><time>2026-04-24T17:22:20.384Z</time></trkpt><trkpt lat="46.054989" lon="12.1373907"><ele>390.0</ele><time>2026-04-24T17:22:22.376Z</time></trkpt><trkpt lat="46.0549417" lon="12.1374753"><ele>389.0</ele><time>2026-04-24T17:22:24.377Z</time></trkpt><trkpt lat="46.0549054" lon="12.1375509"><ele>388.0</ele><time>2026-04-24T17:22:25.374Z</time></trkpt><trkpt lat="46.0548511" lon="12.137607"><ele>387.0</ele><time>2026-04-24T17:22:26.37Z</time></trkpt><trkpt lat="46.0547889" lon="12.1376803"><ele>386.0</ele><time>2026-04-24T17:22:28.374Z</time></trkpt><trkpt lat="46.0547281" lon="12.1377691"><ele>385.0</ele><time>2026-04-24T17:22:30.378Z</time></trkpt><trkpt lat="46.0556521" lon="12.1360994"><ele>386.4</ele><time>2026-04-24T17:22:00.377Z</time></trkpt><trkpt lat="46.0555653" lon="12.1362378"><ele>387.8</ele><time>2026-04-24T17:22:02.372Z</time></trkpt><trkpt lat="46.0554667" lon="12.1363687"><ele>389.20000000000005</ele><time>2026-04-24T17:22:04.371Z</time></trkpt><trkpt lat="46.055389" lon="12.1365008"><ele>390.6</ele><time>2026-04-24T17:22:06.381Z</time></trkpt><trkpt lat="46.0553422" lon="12.1365623"><ele>392.0</ele><time>2026-04-24T17:22:07.38Z</time></trkpt><trkpt lat="46.0552677" lon="12.1366974"><ele>392.0</ele><time>2026-04-24T17:22:09.394Z</time></trkpt><trkpt lat="46.0552172" lon="12.1368506"><ele>392.0</ele><time>2026-04-24T17:22:11.379Z</time></trkpt><trkpt lat="46.055213" lon="12.1370111"><ele>392.0</ele><time>2026-04-24T17:22:13.373Z</time></trkpt><trkpt lat="46.055186" lon="12.137157"><ele>392.0</ele><time>2026-04-24T17:22:15.371Z</time></trkpt><trkpt lat="46.0551239" lon="12.1372719"><ele>392.0</ele><time>2026-04-24T17:22:17.379Z</time></trkpt><trkpt lat="46.0550482" lon="12.1373417"><ele>391.0</ele><time>2026-04-24T17:22:20.384Z</time></trkpt><trkpt lat="46.054989" lon="12.1373907"><ele>390.0</ele><time>2026-04-24T17:22:22.376Z</time></trkpt><trkpt lat="46.0549417" lon="12.1374753"><ele>389.0</ele><time>2026-04-24T17:22:24.377Z</time></trkpt><trkpt lat="46.0549054" lon="12.1375509"><ele>388.0</ele><time>2026-04-24T17:22:25.374Z</time></trkpt><trkpt lat="46.0548511" lon="12.137607"><ele>387.0</ele><time>2026-04-24T17:22:26.37Z</time></trkpt><trkpt lat="46.0547889" lon="12.1376803"><ele>386.0</ele><time>2026-04-24T17:22:28.374Z</time></trkpt><trkpt lat="46.0547281" lon="12.1377691"><ele>385.0</ele><time>2026-04-24T17:22:30.378Z</time></trkpt><trkpt lat="46.0546608" lon="12.13783"><ele>385.00000000000006</ele><time>2026-04-24T17:22:32.379Z</time></trkpt><trkpt lat="46.0545921" lon="12.1378617"><ele>385.0</ele><time>2026-04-24T17:22:34.375Z</time></trkpt><trkpt lat="46.0544948" lon="12.1378263"><ele>385.0</ele><time>2026-04-24T17:22:37.378Z</time></trkpt><trkpt lat="46.0544192" lon="12.1377868"><ele>385.0</ele><time>2026-04-24T17:22:39.375Z</time></trkpt><trkpt lat="46.0543611" lon="12.1377296"><ele>385.00000000000006</ele><time>2026-04-24T17:22:41.38Z</time></trkpt><trkpt lat="46.054308" lon="12.1376732"><ele>385.0</ele><time>2026-04-24T17:22:43.383Z</time></trkpt><trkpt lat="46.0542583" lon="12.1376131"><ele>385.00000000000006</ele><time>2026-04-24T17:22:46.375Z</time></trkpt><trkpt lat="46.054177" lon="12.1375929"><ele>385.0</ele><time>2026-04-24T17:22:49.384Z</time></trkpt><trkpt lat="46.0541083" lon="12.1376484"><ele>385.0</ele><time>2026-04-24T17:22:51.374Z</time></trkpt><trkpt lat="46.0540504" lon="12.1377409"><ele>385.0</ele><time>2026-04-24T17:22:53.373Z</time></trkpt><trkpt lat="46.0539873" lon="12.1378187"><ele>385.00000000000006</ele><time>2026-04-24T17:22:55.416Z</time></trkpt><trkpt lat="46.0539252" lon="12.1378584"><ele>385.0</ele><time>2026-04-24T17:22:57.375Z</time></trkpt><trkpt lat="46.0538432" lon="12.1378923"><ele>385.6666666666667</ele><time>2026-04-24T17:23:00.375Z</time></trkpt><trkpt lat="46.0537521" lon="12.1379032"><ele>386.33333333333337</ele><time>2026-04-24T17:23:03.375Z</time></trkpt><trkpt lat="46.0536892" lon="12.1378957"><ele>387.0</ele><time>2026-04-24T17:23:05.377Z</time></trkpt><trkpt lat="46.0535963" lon="12.1379037"><ele>387.66666666666663</ele><time>2026-04-24T17:23:08.377Z</time></trkpt><trkpt lat="46.0535063" lon="12.1379406"><ele>388.3333333333333</ele><time>2026-04-24T17:23:11.375Z</time></trkpt><trkpt lat="46.0534421" lon="12.1379601"><ele>389.0</ele><time>2026-04-24T17:23:13.372Z</time></trkpt><trkpt lat="46.053352" lon="12.1380106"><ele>389.0</ele><time>2026-04-24T17:23:16.372Z</time></trkpt><trkpt lat="46.0533029" lon="12.1380897"><ele>389.0</ele><time>2026-04-24T17:23:18.37Z</time></trkpt><trkpt lat="46.0532512" lon="12.1381537"><ele>389.0</ele><time>2026-04-24T17:23:20.369Z</time></trkpt><trkpt lat="46.0531915" lon="12.1382089"><ele>389.0</ele><time>2026-04-24T17:23:22.37Z</time></trkpt><trkpt lat="46.0531302" lon="12.1382406"><ele>389.0</ele><time>2026-04-24T17:23:24.371Z</time></trkpt><trkpt lat="46.053072" lon="12.138307"><ele>389.0</ele><time>2026-04-24T17:23:26.372Z</time></trkpt><trkpt lat="46.0530299" lon="12.1383848"><ele>389.0</ele><time>2026-04-24T17:23:28.374Z</time></trkpt><trkpt lat="46.0529818" lon="12.1384537"><ele>388.14285714285717</ele><time>2026-04-24T17:23:30.37Z</time></trkpt><trkpt lat="46.0529013" lon="12.1385241"><ele>387.2857142857143</ele><time>2026-04-24T17:23:33.373Z</time></trkpt><trkpt lat="46.0528348" lon="12.1385427"><ele>386.42857142857144</ele><time>2026-04-24T17:23:35.387Z</time></trkpt><trkpt lat="46.0527632" lon="12.1385352"><ele>385.57142857142856</ele><time>2026-04-24T17:23:37.402Z</time></trkpt><trkpt lat="46.0526921" lon="12.1385152"><ele>384.71428571428567</ele><time>2026-04-24T17:23:39.372Z</time></trkpt><trkpt lat="46.052625" lon="12.138491"><ele>383.85714285714283</ele><time>2026-04-24T17:23:41.374Z</time></trkpt><trkpt lat="46.0525685" lon="12.1384507"><ele>383.0</ele><time>2026-04-24T17:23:45.373Z</time></trkpt><trkpt lat="46.0525876" lon="12.1383551"><ele>383.0</ele><time>2026-04-24T17:23:58.372Z</time></trkpt><trkpt lat="46.0526208" lon="12.1382392"><ele>383.0</ele><time>2026-04-24T17:24:02.371Z</time></trkpt><trkpt lat="46.0526429" lon="12.1381317"><ele>383.0</ele><time>2026-04-24T17:24:05.372Z</time></trkpt><trkpt lat="46.0526613" lon="12.1380366"><ele>383.0</ele><time>2026-04-24T17:24:09.371Z</time></trkpt><trkpt lat="46.0526796" lon="12.1379407"><ele>383.0</ele><time>2026-04-24T17:24:13.372Z</time></trkpt><trkpt lat="46.0526713" lon="12.1378463"><ele>383.0</ele><time>2026-04-24T17:24:18.376Z</time></trkpt><trkpt lat="46.0526571" lon="12.1379456"><ele>383.0</ele><time>2026-04-24T17:24:27.371Z</time></trkpt><trkpt lat="46.0526327" lon="12.1380581"><ele>383.0</ele><time>2026-04-24T17:24:31.376Z</time></trkpt><trkpt lat="46.0526209" lon="12.1381565"><ele>383.0</ele><time>2026-04-24T17:24:34.371Z</time></trkpt><trkpt lat="46.0525966" lon="12.1382688"><ele>383.0</ele><time>2026-04-24T17:24:37.372Z</time></trkpt><trkpt lat="46.052631" lon="12.1384137"><ele>383.0</ele><time>2026-04-24T17:24:41.371Z</time></trkpt><trkpt lat="46.0527095" lon="12.1384744"><ele>383.0</ele><time>2026-04-24T17:24:44.374Z</time></trkpt><trkpt lat="46.0527802" lon="12.1384958"><ele>383.0</ele><time>2026-04-24T17:24:46.373Z</time></trkpt><trkpt lat="46.052863" lon="12.1384905"><ele>383.0</ele><time>2026-04-24T17:24:48.373Z</time></trkpt><trkpt lat="46.0529419" lon="12.1384589"><ele>383.0</ele><time>2026-04-24T17:24:50.371Z</time></trkpt><trkpt lat="46.0530057" lon="12.1384019"><ele>383.0</ele><time>2026-04-24T17:24:52.371Z</time></trkpt><trkpt lat="46.0530613" lon="12.1383245"><ele>383.0</ele><time>2026-04-24T17:24:54.372Z</time></trkpt><trkpt lat="46.0531199" lon="12.1382398"><ele>383.0</ele><time>2026-04-24T17:24:56.374Z</time></trkpt><trkpt lat="46.0531887" lon="12.1381928"><ele>383.0</ele><time>2026-04-24T17:24:58.371Z</time></trkpt><trkpt lat="46.0532509" lon="12.1381514"><ele>383.85714285714283</ele><time>2026-04-24T17:25:00.394Z</time></trkpt><trkpt lat="46.0533105" lon="12.1380963"><ele>384.71428571428567</ele><time>2026-04-24T17:25:02.375Z</time></trkpt><trkpt lat="46.0533623" lon="12.1380216"><ele>385.57142857142856</ele><time>2026-04-24T17:25:04.373Z</time></trkpt><trkpt lat="46.0534236" lon="12.1379618"><ele>386.42857142857144</ele><time>2026-04-24T17:25:06.372Z</time></trkpt><trkpt lat="46.0534946" lon="12.1379407"><ele>387.2857142857143</ele><time>2026-04-24T17:25:08.373Z</time></trkpt><trkpt lat="46.0535598" lon="12.1379181"><ele>388.14285714285717</ele><time>2026-04-24T17:25:10.372Z</time></trkpt><trkpt lat="46.0536357" lon="12.1378976"><ele>389.0</ele><time>2026-04-24T17:25:12.375Z</time></trkpt><trkpt lat="46.0537079" lon="12.1379029"><ele>388.99999999999994</ele><time>2026-04-24T17:25:14.372Z</time></trkpt><trkpt lat="46.0537824" lon="12.1379055"><ele>389.0</ele><time>2026-04-24T17:25:16.374Z</time></trkpt><trkpt lat="46.0538679" lon="12.1378792"><ele>389.0</ele><time>2026-04-24T17:25:18.374Z</time></trkpt><trkpt lat="46.0539454" lon="12.1378339"><ele>389.0</ele><time>2026-04-24T17:25:20.371Z</time></trkpt><trkpt lat="46.0540126" lon="12.1377789"><ele>388.99999999999994</ele><time>2026-04-24T17:25:22.372Z</time></trkpt><trkpt lat="46.0540569" lon="12.1378594"><ele>389.0</ele><time>2026-04-24T17:25:35.372Z</time></trkpt><trkpt lat="46.0540706" lon="12.137949"><ele>388.42857142857144</ele><time>2026-04-24T17:25:51.372Z</time></trkpt><trkpt lat="46.0541346" lon="12.1379793"><ele>387.85714285714283</ele><time>2026-04-24T17:26:04.37Z</time></trkpt><trkpt lat="46.0541955" lon="12.1380209"><ele>387.2857142857143</ele><time>2026-04-24T17:26:11.378Z</time></trkpt><trkpt lat="46.0542528" lon="12.1380665"><ele>386.7142857142857</ele><time>2026-04-24T17:26:19.375Z</time></trkpt><trkpt lat="46.0543014" lon="12.1381358"><ele>386.1428571428571</ele><time>2026-04-24T17:26:26.37Z</time></trkpt><trkpt lat="46.0543575" lon="12.1381794"><ele>385.57142857142856</ele><time>2026-04-24T17:26:32.376Z</time></trkpt><trkpt lat="46.0544166" lon="12.1382449"><ele>385.0</ele><time>2026-04-24T17:26:39.373Z</time></trkpt><trkpt lat="46.0544901" lon="12.1382479"><ele>385.0</ele><time>2026-04-24T17:26:45.397Z</time></trkpt><trkpt lat="46.0545529" lon="12.1382308"><ele>385.0</ele><time>2026-04-24T17:26:50.374Z</time></trkpt><trkpt lat="46.0546152" lon="12.1382105"><ele>385.0</ele><time>2026-04-24T17:26:55.375Z</time></trkpt><trkpt lat="46.054646" lon="12.1383182"><ele>385.0</ele><time>2026-04-24T17:28:27.373Z</time></trkpt><trkpt lat="46.0546903" lon="12.1383978"><ele>385.0</ele><time>2026-04-24T17:28:31.378Z</time></trkpt><trkpt lat="46.0547442" lon="12.1384651"><ele>385.0</ele><time>2026-04-24T17:28:34.375Z</time></trkpt><trkpt lat="46.0548151" lon="12.1384774"><ele>385.0</ele><time>2026-04-24T17:28:37.374Z</time></trkpt><trkpt lat="46.0548879" lon="12.1384733"><ele>384.42857142857144</ele><time>2026-04-24T17:28:43.371Z</time></trkpt><trkpt lat="46.0549543" lon="12.1384574"><ele>383.8571428571429</ele><time>2026-04-24T17:28:47.375Z</time></trkpt><trkpt lat="46.0550154" lon="12.1384241"><ele>383.2857142857143</ele><time>2026-04-24T17:28:50.375Z</time></trkpt><trkpt lat="46.0550861" lon="12.1384096"><ele>382.7142857142857</ele><time>2026-04-24T17:28:53.373Z</time></trkpt><trkpt lat="46.0551489" lon="12.1383573"><ele>382.14285714285717</ele><time>2026-04-24T17:29:01.372Z</time></trkpt><trkpt lat="46.0552131" lon="12.1383172"><ele>381.57142857142856</ele><time>2026-04-24T17:29:05.37Z</time></trkpt><trkpt lat="46.0552814" lon="12.1383308"><ele>381.0</ele><time>2026-04-24T17:29:09.374Z</time></trkpt><trkpt lat="46.0553314" lon="12.1384063"><ele>381.0</ele><time>2026-04-24T17:29:13.377Z</time></trkpt><trkpt lat="46.0553561" lon="12.1384933"><ele>381.0</ele><time>2026-04-24T17:29:18.372Z</time></trkpt><trkpt lat="46.055334" lon="12.1385991"><ele>381.0</ele><time>2026-04-24T17:29:49.37Z</time></trkpt><trkpt lat="46.0553038" lon="12.138681"><ele>381.0</ele><time>2026-04-24T17:29:55.369Z</time></trkpt><trkpt lat="46.0552871" lon="12.1387944"><ele>381.0</ele><time>2026-04-24T17:30:06.372Z</time></trkpt><trkpt lat="46.0553334" lon="12.1388624"><ele>381.0</ele><time>2026-04-24T17:30:16.37Z</time></trkpt><trkpt lat="46.0553702" lon="12.1389386"><ele>381.0</ele><time>2026-04-24T17:30:24.372Z</time></trkpt><trkpt lat="46.0554409" lon="12.1389456"><ele>381.0</ele><time>2026-04-24T17:30:41.373Z</time></trkpt><trkpt lat="46.0555043" lon="12.138917"><ele>381.0</ele><time>2026-04-24T17:30:44.399Z</time></trkpt><trkpt lat="46.055567" lon="12.1388788"><ele>381.0</ele><time>2026-04-24T17:30:47.373Z</time></trkpt><trkpt lat="46.0556287" lon="12.1388333"><ele>381.0</ele><time>2026-04-24T17:30:50.371Z</time></trkpt><trkpt lat="46.0556889" lon="12.1388014"><ele>381.0</ele><time>2026-04-24T17:30:53.371Z</time></trkpt><trkpt lat="46.0557663" lon="12.1387633"><ele>381.0</ele><time>2026-04-24T17:30:56.371Z</time></trkpt><trkpt lat="46.055829" lon="12.1387102"><ele>381.0</ele><time>2026-04-24T17:31:00.371Z</time></trkpt><trkpt lat="46.0558984" lon="12.1386623"><ele>381.4285714285714</ele><time>2026-04-24T17:31:04.373Z</time></trkpt><trkpt lat="46.0559642" lon="12.1385998"><ele>381.8571428571429</ele><time>2026-04-24T17:31:07.371Z</time></trkpt><trkpt lat="46.0560119" lon="12.1385292"><ele>382.2857142857143</ele><time>2026-04-24T17:31:10.373Z</time></trkpt><trkpt lat="46.0560553" lon="12.1384561"><ele>382.71428571428567</ele><time>2026-04-24T17:31:13.37Z</time></trkpt><trkpt lat="46.0561067" lon="12.1383745"><ele>383.1428571428571</ele><time>2026-04-24T17:31:17.37Z</time></trkpt><trkpt lat="46.0561425" lon="12.138273"><ele>383.57142857142856</ele><time>2026-04-24T17:31:21.368Z</time></trkpt><trkpt lat="46.0561714" lon="12.1381897"><ele>384.0</ele><time>2026-04-24T17:31:25.37Z</time></trkpt><trkpt lat="46.0562162" lon="12.138124"><ele>383.99999999999994</ele><time>2026-04-24T17:31:29.371Z</time></trkpt><trkpt lat="46.0562823" lon="12.138092"><ele>384.0</ele><time>2026-04-24T17:31:33.377Z</time></trkpt><trkpt lat="46.056347" lon="12.1380914"><ele>384.0</ele><time>2026-04-24T17:31:37.374Z</time></trkpt><trkpt lat="46.0564238" lon="12.1380916"><ele>384.0</ele><time>2026-04-24T17:31:41.376Z</time></trkpt><trkpt lat="46.0564875" lon="12.1381092"><ele>384.0</ele><time>2026-04-24T17:31:44.381Z</time></trkpt><trkpt lat="46.0565619" lon="12.1381513"><ele>383.99999999999994</ele><time>2026-04-24T17:31:47.373Z</time></trkpt><trkpt lat="46.0566262" lon="12.1381867"><ele>384.0</ele><time>2026-04-24T17:31:49.389Z</time></trkpt><trkpt lat="46.0566964" lon="12.1382361"><ele>388.85714285714283</ele><time>2026-04-24T17:31:52.387Z</time></trkpt><trkpt lat="46.0567655" lon="12.1382731"><ele>393.7142857142857</ele><time>2026-04-24T17:31:55.378Z</time></trkpt><trkpt lat="46.0568261" lon="12.1383291"><ele>398.57142857142856</ele><time>2026-04-24T17:31:59.378Z</time></trkpt><trkpt lat="46.0568932" lon="12.1383502"><ele>403.42857142857144</ele><time>2026-04-24T17:32:01.387Z</time></trkpt><trkpt lat="46.0569623" lon="12.1383673"><ele>408.2857142857143</ele><time>2026-04-24T17:32:03.374Z</time></trkpt><trkpt lat="46.057028" lon="12.1383857"><ele>413.1428571428571</ele><time>2026-04-24T17:32:06.383Z</time></trkpt><trkpt lat="46.0570855" lon="12.1384786"><ele>418.0</ele><time>2026-04-24T17:32:09.376Z</time></trkpt><trkpt lat="46.0571749" lon="12.1384876"><ele>418.00000000000006</ele><time>2026-04-24T17:32:11.375Z</time></trkpt><trkpt lat="46.0572346" lon="12.1384437"><ele>418.0</ele><time>2026-04-24T17:32:13.375Z</time></trkpt><trkpt lat="46.0573129" lon="12.1384642"><ele>418.0</ele><time>2026-04-24T17:32:17.373Z</time></trkpt><trkpt lat="46.0573902" lon="12.138502"><ele>418.0</ele><time>2026-04-24T17:32:20.372Z</time></trkpt><trkpt lat="46.0574564" lon="12.1385253"><ele>418.00000000000006</ele><time>2026-04-24T17:32:22.385Z</time></trkpt><trkpt lat="46.0575396" lon="12.1385644"><ele>418.0</ele><time>2026-04-24T17:32:25.379Z</time></trkpt><trkpt lat="46.0576139" lon="12.1386223"><ele>418.2857142857143</ele><time>2026-04-24T17:32:28.385Z</time></trkpt><trkpt lat="46.0576791" lon="12.1387086"><ele>418.57142857142856</ele><time>2026-04-24T17:32:31.377Z</time></trkpt><trkpt lat="46.0577224" lon="12.1387862"><ele>418.8571428571429</ele><time>2026-04-24T17:32:35.381Z</time></trkpt><trkpt lat="46.0577785" lon="12.1388345"><ele>419.1428571428571</ele><time>2026-04-24T17:32:38.38Z</time></trkpt><trkpt lat="46.0578365" lon="12.1388761"><ele>419.42857142857144</ele><time>2026-04-24T17:32:41.386Z</time></trkpt><trkpt lat="46.0579054" lon="12.1388786"><ele>419.7142857142857</ele><time>2026-04-24T17:32:44.387Z</time></trkpt><trkpt lat="46.0579853" lon="12.138885"><ele>420.0</ele><time>2026-04-24T17:32:48.383Z</time></trkpt><trkpt lat="46.0580613" lon="12.1388963"><ele>420.0</ele><time>2026-04-24T17:32:52.381Z</time></trkpt><trkpt lat="46.0581274" lon="12.1388991"><ele>420.0</ele><time>2026-04-24T17:32:56.378Z</time></trkpt><trkpt lat="46.0581946" lon="12.1389144"><ele>420.0</ele><time>2026-04-24T17:33:00.388Z</time></trkpt><trkpt lat="46.0582526" lon="12.1389569"><ele>420.0</ele><time>2026-04-24T17:33:04.378Z</time></trkpt><trkpt lat="46.0583352" lon="12.1389005"><ele>420.0</ele><time>2026-04-24T17:33:07.377Z</time></trkpt><trkpt lat="46.0583924" lon="12.1388598"><ele>420.0</ele><time>2026-04-24T17:33:09.379Z</time></trkpt><trkpt lat="46.058454" lon="12.138829"><ele>420.0</ele><time>2026-04-24T17:33:11.381Z</time></trkpt><trkpt lat="46.0585412" lon="12.1388239"><ele>420.5</ele><time>2026-04-24T17:33:14.384Z</time></trkpt><trkpt lat="46.0586133" lon="12.1388239"><ele>421.0</ele><time>2026-04-24T17:33:16.382Z</time></trkpt><trkpt lat="46.0586802" lon="12.1388181"><ele>421.5</ele><time>2026-04-24T17:33:18.381Z</time></trkpt><trkpt lat="46.0587733" lon="12.1387932"><ele>422.0</ele><time>2026-04-24T17:33:20.382Z</time></trkpt><trkpt lat="46.0588688" lon="12.1387581"><ele>422.5</ele><time>2026-04-24T17:33:22.382Z</time></trkpt><trkpt lat="46.0589463" lon="12.1386989"><ele>423.0</ele><time>2026-04-24T17:33:24.39Z</time></trkpt><trkpt lat="46.0590232" lon="12.1386192"><ele>423.0</ele><time>2026-04-24T17:33:26.375Z</time></trkpt><trkpt lat="46.0591088" lon="12.1385473"><ele>423.0</ele><time>2026-04-24T17:33:28.377Z</time></trkpt><trkpt lat="46.0591795" lon="12.1384511"><ele>423.0</ele><time>2026-04-24T17:33:30.384Z</time></trkpt><trkpt lat="46.0592459" lon="12.1383579"><ele>423.0</ele><time>2026-04-24T17:33:32.383Z</time></trkpt><trkpt lat="46.059311" lon="12.138273"><ele>423.0</ele><time>2026-04-24T17:33:34.376Z</time></trkpt><trkpt lat="46.0593704" lon="12.1381848"><ele>419.85714285714283</ele><time>2026-04-24T17:33:36.382Z</time></trkpt><trkpt lat="46.0594242" lon="12.1381169"><ele>416.7142857142857</ele><time>2026-04-24T17:33:38.387Z</time></trkpt><trkpt lat="46.0594858" lon="12.1380894"><ele>413.57142857142856</ele><time>2026-04-24T17:33:40.392Z</time></trkpt><trkpt lat="46.0595606" lon="12.1380833"><ele>410.42857142857144</ele><time>2026-04-24T17:33:42.397Z</time></trkpt><trkpt lat="46.0596308" lon="12.1380623"><ele>407.28571428571433</ele><time>2026-04-24T17:33:44.403Z</time></trkpt><trkpt lat="46.0596977" lon="12.1380433"><ele>404.14285714285717</ele><time>2026-04-24T17:33:46.381Z</time></trkpt><trkpt lat="46.059762" lon="12.1380172"><ele>401.0</ele><time>2026-04-24T17:33:48.388Z</time></trkpt><trkpt lat="46.0598261" lon="12.1380026"><ele>400.99999999999994</ele><time>2026-04-24T17:33:50.384Z</time></trkpt><trkpt lat="46.0599493" lon="12.1380099"><ele>401.0</ele><time>2026-04-24T17:33:53.384Z</time></trkpt><trkpt lat="46.0600143" lon="12.1379974"><ele>401.0</ele><time>2026-04-24T17:33:54.385Z</time></trkpt><trkpt lat="46.0600816" lon="12.1380423"><ele>401.0</ele><time>2026-04-24T17:33:56.385Z</time></trkpt><trkpt lat="46.0601181" lon="12.1381212"><ele>400.99999999999994</ele><time>2026-04-24T17:33:58.385Z</time></trkpt><trkpt lat="46.0601677" lon="12.1381974"><ele>401.0</ele><time>2026-04-24T17:34:00.375Z</time></trkpt><trkpt lat="46.0602612" lon="12.1382257"><ele>404.16666666666663</ele><time>2026-04-24T17:34:03.383Z</time></trkpt><trkpt lat="46.060348" lon="12.1381993"><ele>407.3333333333333</ele><time>2026-04-24T17:34:06.372Z</time></trkpt><trkpt lat="46.060419" lon="12.138229"><ele>410.5</ele><time>2026-04-24T17:34:07.376Z</time></trkpt><trkpt lat="46.0605001" lon="12.1381743"><ele>413.66666666666663</ele><time>2026-04-24T17:34:10.38Z</time></trkpt><trkpt lat="46.0605744" lon="12.1381439"><ele>416.8333333333333</ele><time>2026-04-24T17:34:12.384Z</time></trkpt><trkpt lat="46.0606103" lon="12.138017"><ele>420.0</ele><time>2026-04-24T17:34:14.384Z</time></trkpt><trkpt lat="46.0606655" lon="12.1379676"><ele>420.0</ele><time>2026-04-24T17:34:16.379Z</time></trkpt><trkpt lat="46.0607503" lon="12.1379834"><ele>420.0</ele><time>2026-04-24T17:34:19.375Z</time></trkpt><trkpt lat="46.0608271" lon="12.1379663"><ele>420.0</ele><time>2026-04-24T17:34:21.383Z</time></trkpt><trkpt lat="46.0609077" lon="12.1379284"><ele>420.0</ele><time>2026-04-24T17:34:23.373Z</time></trkpt><trkpt lat="46.060988" lon="12.1378724"><ele>420.0</ele><time>2026-04-24T17:34:25.382Z</time></trkpt><trkpt lat="46.0610588" lon="12.1378001"><ele>420.0</ele><time>2026-04-24T17:34:27.382Z</time></trkpt><trkpt lat="46.0611265" lon="12.1377344"><ele>418.8333333333333</ele><time>2026-04-24T17:34:29.385Z</time></trkpt><trkpt lat="46.0611936" lon="12.137663"><ele>417.66666666666663</ele><time>2026-04-24T17:34:31.379Z</time></trkpt><trkpt lat="46.0612466" lon="12.1375296"><ele>416.5</ele><time>2026-04-24T17:34:33.383Z</time></trkpt><trkpt lat="46.0612985" lon="12.1374428"><ele>415.3333333333333</ele><time>2026-04-24T17:34:35.382Z</time></trkpt><trkpt lat="46.0613796" lon="12.1374017"><ele>414.16666666666663</ele><time>2026-04-24T17:34:38.381Z</time></trkpt><trkpt lat="46.0614646" lon="12.1373729"><ele>413.0</ele><time>2026-04-24T17:34:41.383Z</time></trkpt><trkpt lat="46.0615433" lon="12.1373497"><ele>410.49999999999994</ele><time>2026-04-24T17:34:44.381Z</time></trkpt><trkpt lat="46.0616199" lon="12.1373224"><ele>408.0</ele><time>2026-04-24T17:34:48.385Z</time></trkpt><trkpt lat="46.061686" lon="12.1373081"><ele>405.5</ele><time>2026-04-24T17:34:52.383Z</time></trkpt><trkpt lat="46.0617542" lon="12.137285"><ele>403.0</ele><time>2026-04-24T17:34:55.384Z</time></trkpt><trkpt lat="46.0618311" lon="12.1371892"><ele>400.49999999999994</ele><time>2026-04-24T17:34:58.384Z</time></trkpt><trkpt lat="46.0618938" lon="12.1370971"><ele>398.0</ele><time>2026-04-24T17:35:00.384Z</time></trkpt><trkpt lat="46.0619445" lon="12.1370056"><ele>397.99999999999994</ele><time>2026-04-24T17:35:02.376Z</time></trkpt><trkpt lat="46.0619802" lon="12.1369008"><ele>398.0</ele><time>2026-04-24T17:35:04.386Z</time></trkpt><trkpt lat="46.062003" lon="12.1368117"><ele>398.0</ele><time>2026-04-24T17:35:06.379Z</time></trkpt><trkpt lat="46.0620216" lon="12.136691"><ele>398.0</ele><time>2026-04-24T17:35:09.376Z</time></trkpt><trkpt lat="46.0620623" lon="12.1365915"><ele>397.99999999999994</ele><time>2026-04-24T17:35:11.383Z</time></trkpt><trkpt lat="46.062132" lon="12.1364735"><ele>398.0</ele><time>2026-04-24T17:35:13.377Z</time></trkpt><trkpt lat="46.0622018" lon="12.1363232"><ele>397.79999999999995</ele><time>2026-04-24T17:35:15.382Z</time></trkpt><trkpt lat="46.062237" lon="12.1362422"><ele>397.6</ele><time>2026-04-24T17:35:16.383Z</time></trkpt><trkpt lat="46.0622707" lon="12.1361571"><ele>397.4</ele><time>2026-04-24T17:35:17.382Z</time></trkpt><trkpt lat="46.0623063" lon="12.1360702"><ele>397.20000000000005</ele><time>2026-04-24T17:35:18.383Z</time></trkpt><trkpt lat="46.0623635" lon="12.135912"><ele>397.0</ele><time>2026-04-24T17:35:20.382Z</time></trkpt><trkpt lat="46.0624101" lon="12.1357498"><ele>395.50000000000006</ele><time>2026-04-24T17:35:22.375Z</time></trkpt><trkpt lat="46.0624545" lon="12.1355894"><ele>394.0</ele><time>2026-04-24T17:35:24.383Z</time></trkpt><trkpt lat="46.0624819" lon="12.1355045"><ele>392.5</ele><time>2026-04-24T17:35:25.377Z</time></trkpt><trkpt lat="46.0625109" lon="12.1354202"><ele>391.0</ele><time>2026-04-24T17:35:26.383Z</time></trkpt><trkpt lat="46.0625463" lon="12.1353382"><ele>389.50000000000006</ele><time>2026-04-24T17:35:27.385Z</time></trkpt><trkpt lat="46.0625875" lon="12.1352565"><ele>388.0</ele><time>2026-04-24T17:35:28.376Z</time></trkpt><trkpt lat="46.0626338" lon="12.13518"><ele>388.00000000000006</ele><time>2026-04-24T17:35:29.375Z</time></trkpt><trkpt lat="46.0626888" lon="12.1351188"><ele>388.0</ele><time>2026-04-24T17:35:30.385Z</time></trkpt><trkpt lat="46.0627397" lon="12.1350608"><ele>388.0</ele><time>2026-04-24T17:35:31.377Z</time></trkpt><trkpt lat="46.0627905" lon="12.1350042"><ele>388.0</ele><time>2026-04-24T17:35:32.383Z</time></trkpt><trkpt lat="46.0628876" lon="12.1349006"><ele>388.00000000000006</ele><time>2026-04-24T17:35:34.382Z</time></trkpt><trkpt lat="46.0629992" lon="12.1348776"><ele>388.0</ele><time>2026-04-24T17:35:36.383Z</time></trkpt><trkpt lat="46.0631211" lon="12.1348751"><ele>387.79999999999995</ele><time>2026-04-24T17:35:38.38Z</time></trkpt><trkpt lat="46.0632324" lon="12.1348727"><ele>387.6</ele><time>2026-04-24T17:35:40.384Z</time></trkpt><trkpt lat="46.0632844" lon="12.1347686"><ele>387.4</ele><time>2026-04-24T17:35:42.387Z</time></trkpt><trkpt lat="46.0632916" lon="12.1346402"><ele>387.20000000000005</ele><time>2026-04-24T17:35:44.383Z</time></trkpt><trkpt lat="46.0633639" lon="12.1346056"><ele>387.0</ele><time>2026-04-24T17:35:46.384Z</time></trkpt><trkpt lat="46.0634323" lon="12.1346965"><ele>386.20000000000005</ele><time>2026-04-24T17:35:48.379Z</time></trkpt><trkpt lat="46.0634833" lon="12.1348531"><ele>385.4</ele><time>2026-04-24T17:35:50.373Z</time></trkpt><trkpt lat="46.0635436" lon="12.1349835"><ele>384.6</ele><time>2026-04-24T17:35:52.382Z</time></trkpt><trkpt lat="46.063625" lon="12.1349931"><ele>383.79999999999995</ele><time>2026-04-24T17:35:54.384Z</time></trkpt><trkpt lat="46.0637033" lon="12.1349278"><ele>383.0</ele><time>2026-04-24T17:35:56.383Z</time></trkpt><trkpt lat="46.0638159" lon="12.1348971"><ele>382.2</ele><time>2026-04-24T17:35:58.384Z</time></trkpt><trkpt lat="46.0639319" lon="12.1348598"><ele>381.4</ele><time>2026-04-24T17:36:00.382Z</time></trkpt><trkpt lat="46.0640529" lon="12.1348404"><ele>380.59999999999997</ele><time>2026-04-24T17:36:02.381Z</time></trkpt><trkpt lat="46.0641159" lon="12.1348218"><ele>379.79999999999995</ele><time>2026-04-24T17:36:03.376Z</time></trkpt><trkpt lat="46.0642313" lon="12.134795"><ele>379.0</ele><time>2026-04-24T17:36:05.388Z</time></trkpt><trkpt lat="46.0643499" lon="12.1347557"><ele>377.8333333333333</ele><time>2026-04-24T17:36:07.374Z</time></trkpt><trkpt lat="46.0644116" lon="12.1347347"><ele>376.66666666666663</ele><time>2026-04-24T17:36:08.388Z</time></trkpt><trkpt lat="46.0645266" lon="12.1347006"><ele>375.5</ele><time>2026-04-24T17:36:10.375Z</time></trkpt><trkpt lat="46.0646488" lon="12.134672"><ele>374.3333333333333</ele><time>2026-04-24T17:36:12.384Z</time></trkpt><trkpt lat="46.0647116" lon="12.1346582"><ele>373.1666666666667</ele><time>2026-04-24T17:36:13.374Z</time></trkpt><trkpt lat="46.0647772" lon="12.1346403"><ele>372.0</ele><time>2026-04-24T17:36:14.383Z</time></trkpt><trkpt lat="46.0649066" lon="12.1346306"><ele>371.8571428571429</ele><time>2026-04-24T17:36:16.384Z</time></trkpt><trkpt lat="46.0649728" lon="12.1346246"><ele>371.7142857142857</ele><time>2026-04-24T17:36:17.382Z</time></trkpt><trkpt lat="46.0650397" lon="12.134622"><ele>371.57142857142856</ele><time>2026-04-24T17:36:18.382Z</time></trkpt><trkpt lat="46.0651627" lon="12.1346022"><ele>371.42857142857144</ele><time>2026-04-24T17:36:20.37Z</time></trkpt><trkpt lat="46.0652259" lon="12.1345928"><ele>371.2857142857143</ele><time>2026-04-24T17:36:21.384Z</time></trkpt><trkpt lat="46.0652891" lon="12.1345801"><ele>371.14285714285717</ele><time>2026-04-24T17:36:22.382Z</time></trkpt><trkpt lat="46.0653509" lon="12.1345569"><ele>371.0</ele><time>2026-04-24T17:36:23.382Z</time></trkpt><trkpt lat="46.0654618" lon="12.1344673"><ele>371.0</ele><time>2026-04-24T17:36:25.383Z</time></trkpt><trkpt lat="46.06551" lon="12.1344064"><ele>371.0</ele><time>2026-04-24T17:36:26.381Z</time></trkpt><trkpt lat="46.0656015" lon="12.1342912"><ele>371.0</ele><time>2026-04-24T17:36:28.384Z</time></trkpt><trkpt lat="46.0656807" lon="12.1341639"><ele>371.0</ele><time>2026-04-24T17:36:30.367Z</time></trkpt><trkpt lat="46.0657436" lon="12.1340457"><ele>371.0</ele><time>2026-04-24T17:36:32.383Z</time></trkpt><trkpt lat="46.0658085" lon="12.134021"><ele>371.20000000000005</ele><time>2026-04-24T17:36:34.373Z</time></trkpt><trkpt lat="46.0658805" lon="12.1340988"><ele>371.40000000000003</ele><time>2026-04-24T17:36:36.382Z</time></trkpt><trkpt lat="46.0659673" lon="12.1341569"><ele>371.6</ele><time>2026-04-24T17:36:38.397Z</time></trkpt><trkpt lat="46.0660697" lon="12.1342158"><ele>371.8</ele><time>2026-04-24T17:36:40.387Z</time></trkpt><trkpt lat="46.0661543" lon="12.1343486"><ele>372.0</ele><time>2026-04-24T17:36:42.384Z</time></trkpt><trkpt lat="46.0662007" lon="12.1344146"><ele>372.0</ele><time>2026-04-24T17:36:43.383Z</time></trkpt><trkpt lat="46.0662476" lon="12.1344812"><ele>372.0</ele><time>2026-04-24T17:36:44.383Z</time></trkpt><trkpt lat="46.0662908" lon="12.1345504"><ele>372.0</ele><time>2026-04-24T17:36:45.383Z</time></trkpt><trkpt lat="46.0663425" lon="12.1346116"><ele>372.0</ele><time>2026-04-24T17:36:46.382Z</time></trkpt><trkpt lat="46.066396" lon="12.1346659"><ele>372.0</ele><time>2026-04-24T17:36:47.391Z</time></trkpt><trkpt lat="46.0664983" lon="12.1347609"><ele>372.0</ele><time>2026-04-24T17:36:49.371Z</time></trkpt><trkpt lat="46.0665912" lon="12.1348617"><ele>371.6</ele><time>2026-04-24T17:36:51.383Z</time></trkpt><trkpt lat="46.0666857" lon="12.1349365"><ele>371.20000000000005</ele><time>2026-04-24T17:36:53.371Z</time></trkpt><trkpt lat="46.0667858" lon="12.1350085"><ele>370.8</ele><time>2026-04-24T17:36:55.373Z</time></trkpt><trkpt lat="46.0668865" lon="12.1351036"><ele>370.4</ele><time>2026-04-24T17:36:57.379Z</time></trkpt><trkpt lat="46.0669444" lon="12.1351566"><ele>370.0</ele><time>2026-04-24T17:36:58.375Z</time></trkpt><trkpt lat="46.0670026" lon="12.1351983"><ele>369.99999999999994</ele><time>2026-04-24T17:36:59.382Z</time></trkpt><trkpt lat="46.0670679" lon="12.1352294"><ele>370.0</ele><time>2026-04-24T17:37:00.382Z</time></trkpt><trkpt lat="46.0671336" lon="12.1352582"><ele>370.0</ele><time>2026-04-24T17:37:01.383Z</time></trkpt><trkpt lat="46.0672061" lon="12.1352799"><ele>370.0</ele><time>2026-04-24T17:37:02.381Z</time></trkpt><trkpt lat="46.0672764" lon="12.1352897"><ele>370.0</ele><time>2026-04-24T17:37:03.379Z</time></trkpt><trkpt lat="46.0673479" lon="12.1353053"><ele>369.99999999999994</ele><time>2026-04-24T17:37:04.376Z</time></trkpt><trkpt lat="46.0674199" lon="12.1353298"><ele>370.0</ele><time>2026-04-24T17:37:05.37Z</time></trkpt><trkpt lat="46.0674953" lon="12.1353514"><ele>369.57142857142856</ele><time>2026-04-24T17:37:06.373Z</time></trkpt><trkpt lat="46.0675662" lon="12.1353713"><ele>369.1428571428571</ele><time>2026-04-24T17:37:07.383Z</time></trkpt><trkpt lat="46.0676375" lon="12.1353726"><ele>368.71428571428567</ele><time>2026-04-24T17:37:08.375Z</time></trkpt><trkpt lat="46.0677113" lon="12.1353643"><ele>368.2857142857143</ele><time>2026-04-24T17:37:09.383Z</time></trkpt><trkpt lat="46.0677812" lon="12.1353401"><ele>367.8571428571429</ele><time>2026-04-24T17:37:10.376Z</time></trkpt><trkpt lat="46.0678533" lon="12.1353124"><ele>367.4285714285714</ele><time>2026-04-24T17:37:11.385Z</time></trkpt><trkpt lat="46.0679222" lon="12.1352783"><ele>367.0</ele><time>2026-04-24T17:37:12.384Z</time></trkpt><trkpt lat="46.0679898" lon="12.1352399"><ele>367.0</ele><time>2026-04-24T17:37:13.376Z</time></trkpt><trkpt lat="46.0680517" lon="12.1351862"><ele>367.0</ele><time>2026-04-24T17:37:14.382Z</time></trkpt><trkpt lat="46.0681" lon="12.1351123"><ele>367.0</ele><time>2026-04-24T17:37:15.386Z</time></trkpt><trkpt lat="46.0681407" lon="12.1350333"><ele>367.0</ele><time>2026-04-24T17:37:16.382Z</time></trkpt><trkpt lat="46.0681869" lon="12.1349575"><ele>367.0</ele><time>2026-04-24T17:37:17.383Z</time></trkpt><trkpt lat="46.068229" lon="12.1348698"><ele>367.0</ele><time>2026-04-24T17:37:18.381Z</time></trkpt><trkpt lat="46.0682824" lon="12.1347904"><ele>367.0</ele><time>2026-04-24T17:37:19.378Z</time></trkpt><trkpt lat="46.068337" lon="12.1347231"><ele>366.4285714285714</ele><time>2026-04-24T17:37:20.381Z</time></trkpt><trkpt lat="46.068397" lon="12.1346682"><ele>365.8571428571429</ele><time>2026-04-24T17:37:21.382Z</time></trkpt><trkpt lat="46.0684718" lon="12.134635"><ele>365.2857142857143</ele><time>2026-04-24T17:37:22.374Z</time></trkpt><trkpt lat="46.0685401" lon="12.1345974"><ele>364.71428571428567</ele><time>2026-04-24T17:37:23.383Z</time></trkpt><trkpt lat="46.0686068" lon="12.1345663"><ele>364.1428571428571</ele><time>2026-04-24T17:37:24.381Z</time></trkpt><trkpt lat="46.0686719" lon="12.1345376"><ele>363.57142857142856</ele><time>2026-04-24T17:37:25.382Z</time></trkpt><trkpt lat="46.068738" lon="12.1345162"><ele>363.0</ele><time>2026-04-24T17:37:26.381Z</time></trkpt><trkpt lat="46.0688054" lon="12.134499"><ele>363.0</ele><time>2026-04-24T17:37:27.376Z</time></trkpt><trkpt lat="46.0688736" lon="12.1344903"><ele>363.0</ele><time>2026-04-24T17:37:28.374Z</time></trkpt><trkpt lat="46.0690074" lon="12.1344602"><ele>363.0</ele><time>2026-04-24T17:37:30.388Z</time></trkpt><trkpt lat="46.069073" lon="12.1344468"><ele>363.0</ele><time>2026-04-24T17:37:31.381Z</time></trkpt><trkpt lat="46.0691823" lon="12.134381"><ele>363.0</ele><time>2026-04-24T17:37:33.383Z</time></trkpt><trkpt lat="46.0692787" lon="12.134279"><ele>363.0</ele><time>2026-04-24T17:37:35.382Z</time></trkpt><trkpt lat="46.0693282" lon="12.1341339"><ele>363.0</ele><time>2026-04-24T17:37:37.383Z</time></trkpt><trkpt lat="46.0693628" lon="12.1339699"><ele>363.0</ele><time>2026-04-24T17:37:39.373Z</time></trkpt><trkpt lat="46.0693788" lon="12.1338761"><ele>363.0</ele><time>2026-04-24T17:37:40.381Z</time></trkpt><trkpt lat="46.0693932" lon="12.1337825"><ele>363.0</ele><time>2026-04-24T17:37:41.38Z</time></trkpt><trkpt lat="46.0694193" lon="12.1335999"><ele>362.99999999999994</ele><time>2026-04-24T17:37:43.383Z</time></trkpt><trkpt lat="46.0694303" lon="12.1335061"><ele>363.0</ele><time>2026-04-24T17:37:44.383Z</time></trkpt><trkpt lat="46.0694401" lon="12.1334064"><ele>363.0</ele><time>2026-04-24T17:37:45.376Z</time></trkpt><trkpt lat="46.0694458" lon="12.1333075"><ele>363.0</ele><time>2026-04-24T17:37:46.383Z</time></trkpt><trkpt lat="46.0694555" lon="12.1332142"><ele>363.0</ele><time>2026-04-24T17:37:47.372Z</time></trkpt><trkpt lat="46.0694684" lon="12.1331196"><ele>362.99999999999994</ele><time>2026-04-24T17:37:48.378Z</time></trkpt><trkpt lat="46.0694745" lon="12.1330213"><ele>363.0</ele><time>2026-04-24T17:37:49.373Z</time></trkpt><trkpt lat="46.0694863" lon="12.1329287"><ele>362.8333333333333</ele><time>2026-04-24T17:37:50.379Z</time></trkpt><trkpt lat="46.0694954" lon="12.1328347"><ele>362.6666666666667</ele><time>2026-04-24T17:37:51.382Z</time></trkpt><trkpt lat="46.0695235" lon="12.1326626"><ele>362.5</ele><time>2026-04-24T17:37:53.385Z</time></trkpt><trkpt lat="46.0695402" lon="12.132573"><ele>362.33333333333337</ele><time>2026-04-24T17:37:54.376Z</time></trkpt><trkpt lat="46.0695779" lon="12.1324022"><ele>362.1666666666667</ele><time>2026-04-24T17:37:56.383Z</time></trkpt><trkpt lat="46.0696036" lon="12.1323167"><ele>362.0</ele><time>2026-04-24T17:37:57.379Z</time></trkpt><trkpt lat="46.0696312" lon="12.132229"><ele>362.0</ele><time>2026-04-24T17:37:58.38Z</time></trkpt><trkpt lat="46.0696507" lon="12.1321401"><ele>362.0</ele><time>2026-04-24T17:37:59.374Z</time></trkpt><trkpt lat="46.0696932" lon="12.131964"><ele>362.0</ele><time>2026-04-24T17:38:01.375Z</time></trkpt><trkpt lat="46.0697133" lon="12.1318747"><ele>362.0</ele><time>2026-04-24T17:38:02.382Z</time></trkpt><trkpt lat="46.0697234" lon="12.1317837"><ele>362.0</ele><time>2026-04-24T17:38:03.372Z</time></trkpt><trkpt lat="46.0697484" lon="12.1316061"><ele>362.0</ele><time>2026-04-24T17:38:05.374Z</time></trkpt><trkpt lat="46.0697609" lon="12.1315145"><ele>362.0</ele><time>2026-04-24T17:38:06.384Z</time></trkpt><trkpt lat="46.0697726" lon="12.1314204"><ele>362.0</ele><time>2026-04-24T17:38:07.384Z</time></trkpt><trkpt lat="46.0697929" lon="12.1312374"><ele>362.0</ele><time>2026-04-24T17:38:09.378Z</time></trkpt><trkpt lat="46.069805" lon="12.1311443"><ele>362.0</ele><time>2026-04-24T17:38:10.375Z</time></trkpt><trkpt lat="46.0698119" lon="12.131047"><ele>362.0</ele><time>2026-04-24T17:38:11.383Z</time></trkpt><trkpt lat="46.069822" lon="12.1309512"><ele>362.0</ele><time>2026-04-24T17:38:12.382Z</time></trkpt><trkpt lat="46.0698461" lon="12.1307687"><ele>361.85714285714283</ele><time>2026-04-24T17:38:14.384Z</time></trkpt><trkpt lat="46.0698575" lon="12.1306736"><ele>361.71428571428567</ele><time>2026-04-24T17:38:15.382Z</time></trkpt><trkpt lat="46.069867" lon="12.1305767"><ele>361.57142857142856</ele><time>2026-04-24T17:38:16.383Z</time></trkpt><trkpt lat="46.0698798" lon="12.1304819"><ele>361.42857142857144</ele><time>2026-04-24T17:38:17.377Z</time></trkpt><trkpt lat="46.0698935" lon="12.1303874"><ele>361.2857142857143</ele><time>2026-04-24T17:38:18.372Z</time></trkpt><trkpt lat="46.069904" lon="12.1302941"><ele>361.14285714285717</ele><time>2026-04-24T17:38:19.384Z</time></trkpt><trkpt lat="46.0699126" lon="12.1301967"><ele>361.0</ele><time>2026-04-24T17:38:20.375Z</time></trkpt><trkpt lat="46.0699201" lon="12.1300991"><ele>361.25</ele><time>2026-04-24T17:38:21.382Z</time></trkpt><trkpt lat="46.0699424" lon="12.1299218"><ele>361.5</ele><time>2026-04-24T17:38:23.383Z</time></trkpt><trkpt lat="46.0699619" lon="12.1297481"><ele>361.75</ele><time>2026-04-24T17:38:25.378Z</time></trkpt><trkpt lat="46.0699837" lon="12.129582"><ele>362.0</ele><time>2026-04-24T17:38:27.382Z</time></trkpt><trkpt lat="46.0699777" lon="12.1294131"><ele>361.85714285714283</ele><time>2026-04-24T17:38:29.382Z</time></trkpt><trkpt lat="46.0699682" lon="12.1293213"><ele>361.71428571428567</ele><time>2026-04-24T17:38:30.384Z</time></trkpt><trkpt lat="46.0699552" lon="12.1292312"><ele>361.57142857142856</ele><time>2026-04-24T17:38:31.383Z</time></trkpt><trkpt lat="46.06994" lon="12.1291416"><ele>361.42857142857144</ele><time>2026-04-24T17:38:32.384Z</time></trkpt><trkpt lat="46.0699113" lon="12.1289761"><ele>361.2857142857143</ele><time>2026-04-24T17:38:34.373Z</time></trkpt><trkpt lat="46.0699008" lon="12.1288858"><ele>361.14285714285717</ele><time>2026-04-24T17:38:35.372Z</time></trkpt><trkpt lat="46.0698884" lon="12.1287965"><ele>361.0</ele><time>2026-04-24T17:38:36.385Z</time></trkpt><trkpt lat="46.0698829" lon="12.1287033"><ele>361.0</ele><time>2026-04-24T17:38:37.384Z</time></trkpt><trkpt lat="46.0698973" lon="12.1286142"><ele>361.0</ele><time>2026-04-24T17:38:38.382Z</time></trkpt><trkpt lat="46.0699231" lon="12.1284648"><ele>361.0</ele><time>2026-04-24T17:38:40.383Z</time></trkpt><trkpt lat="46.0699515" lon="12.1283265"><ele>361.0</ele><time>2026-04-24T17:38:42.38Z</time></trkpt><trkpt lat="46.0700263" lon="12.1282629"><ele>361.0</ele><time>2026-04-24T17:38:44.383Z</time></trkpt><trkpt lat="46.0701126" lon="12.1283011"><ele>361.0</ele><time>2026-04-24T17:38:46.392Z</time></trkpt><trkpt lat="46.0702064" lon="12.1283821"><ele>360.75</ele><time>2026-04-24T17:38:48.383Z</time></trkpt><trkpt lat="46.0703167" lon="12.1284743"><ele>360.5</ele><time>2026-04-24T17:38:50.382Z</time></trkpt><trkpt lat="46.070421" lon="12.1285656"><ele>360.25</ele><time>2026-04-24T17:38:52.383Z</time></trkpt><trkpt lat="46.0705196" lon="12.1286624"><ele>360.0</ele><time>2026-04-24T17:38:54.384Z</time></trkpt><trkpt lat="46.0706212" lon="12.1287583"><ele>360.0</ele><time>2026-04-24T17:38:56.383Z</time></trkpt><trkpt lat="46.0707187" lon="12.1288419"><ele>360.0</ele><time>2026-04-24T17:38:58.372Z</time></trkpt><trkpt lat="46.0708198" lon="12.1289327"><ele>360.0</ele><time>2026-04-24T17:39:00.38Z</time></trkpt><trkpt lat="46.0709233" lon="12.129021"><ele>360.0</ele><time>2026-04-24T17:39:02.383Z</time></trkpt><trkpt lat="46.0709794" lon="12.1290695"><ele>360.0</ele><time>2026-04-24T17:39:03.375Z</time></trkpt><trkpt lat="46.0710377" lon="12.1291163"><ele>360.1666666666667</ele><time>2026-04-24T17:39:04.383Z</time></trkpt><trkpt lat="46.0710948" lon="12.1291567"><ele>360.3333333333333</ele><time>2026-04-24T17:39:05.383Z</time></trkpt><trkpt lat="46.0711596" lon="12.1292054"><ele>360.5</ele><time>2026-04-24T17:39:06.382Z</time></trkpt><trkpt lat="46.0712272" lon="12.1292587"><ele>360.66666666666663</ele><time>2026-04-24T17:39:07.377Z</time></trkpt><trkpt lat="46.0712968" lon="12.1292994"><ele>360.8333333333333</ele><time>2026-04-24T17:39:08.381Z</time></trkpt><trkpt lat="46.0713561" lon="12.1293367"><ele>361.0</ele><time>2026-04-24T17:39:09.383Z</time></trkpt><trkpt lat="46.0714608" lon="12.1294318"><ele>361.0</ele><time>2026-04-24T17:39:11.382Z</time></trkpt><trkpt lat="46.0715703" lon="12.1295229"><ele>361.0</ele><time>2026-04-24T17:39:13.383Z</time></trkpt><trkpt lat="46.071631" lon="12.1295635"><ele>361.0</ele><time>2026-04-24T17:39:14.372Z</time></trkpt><trkpt lat="46.0716891" lon="12.1296016"><ele>361.0</ele><time>2026-04-24T17:39:15.379Z</time></trkpt><trkpt lat="46.0717535" lon="12.1296424"><ele>361.0</ele><time>2026-04-24T17:39:16.377Z</time></trkpt><trkpt lat="46.0718184" lon="12.1296856"><ele>361.0</ele><time>2026-04-24T17:39:17.381Z</time></trkpt><trkpt lat="46.071886" lon="12.1297317"><ele>359.66666666666663</ele><time>2026-04-24T17:39:18.374Z</time></trkpt><trkpt lat="46.0719525" lon="12.1297859"><ele>358.3333333333333</ele><time>2026-04-24T17:39:19.382Z</time></trkpt><trkpt lat="46.0720107" lon="12.1298563"><ele>357.0</ele><time>2026-04-24T17:39:20.382Z</time></trkpt><trkpt lat="46.0720631" lon="12.1299351"><ele>355.6666666666667</ele><time>2026-04-24T17:39:21.382Z</time></trkpt><trkpt lat="46.0721171" lon="12.1300204"><ele>354.33333333333337</ele><time>2026-04-24T17:39:22.383Z</time></trkpt><trkpt lat="46.0721699" lon="12.1301068"><ele>353.0</ele><time>2026-04-24T17:39:23.378Z</time></trkpt><trkpt lat="46.0722205" lon="12.1301924"><ele>353.0</ele><time>2026-04-24T17:39:24.383Z</time></trkpt><trkpt lat="46.072269" lon="12.1302824"><ele>353.0</ele><time>2026-04-24T17:39:25.369Z</time></trkpt><trkpt lat="46.0723264" lon="12.130363"><ele>353.0</ele><time>2026-04-24T17:39:26.383Z</time></trkpt><trkpt lat="46.0723779" lon="12.1304488"><ele>353.0</ele><time>2026-04-24T17:39:27.381Z</time></trkpt><trkpt lat="46.0724251" lon="12.130533"><ele>353.0</ele><time>2026-04-24T17:39:28.383Z</time></trkpt><trkpt lat="46.0724685" lon="12.1306218"><ele>353.0</ele><time>2026-04-24T17:39:29.383Z</time></trkpt><trkpt lat="46.0725159" lon="12.1307021"><ele>352.5</ele><time>2026-04-24T17:39:30.382Z</time></trkpt><trkpt lat="46.0725649" lon="12.1307805"><ele>352.0</ele><time>2026-04-24T17:39:31.375Z</time></trkpt><trkpt lat="46.0726154" lon="12.1308578"><ele>351.5</ele><time>2026-04-24T17:39:32.384Z</time></trkpt><trkpt lat="46.0726621" lon="12.1309293"><ele>351.0</ele><time>2026-04-24T17:39:33.384Z</time></trkpt><trkpt lat="46.0727006" lon="12.1310048"><ele>350.5</ele><time>2026-04-24T17:39:34.376Z</time></trkpt><trkpt lat="46.072742" lon="12.1310745"><ele>350.0</ele><time>2026-04-24T17:39:35.38Z</time></trkpt><trkpt lat="46.0728219" lon="12.131197"><ele>350.0</ele><time>2026-04-24T17:39:37.383Z</time></trkpt><trkpt lat="46.0728921" lon="12.1313151"><ele>350.0</ele><time>2026-04-24T17:39:39.385Z</time></trkpt><trkpt lat="46.0729634" lon="12.1314227"><ele>350.0</ele><time>2026-04-24T17:39:41.385Z</time></trkpt><trkpt lat="46.07303" lon="12.1315249"><ele>350.0</ele><time>2026-04-24T17:39:43.376Z</time></trkpt><trkpt lat="46.0730907" lon="12.1316122"><ele>350.0</ele><time>2026-04-24T17:39:45.382Z</time></trkpt><trkpt lat="46.0731492" lon="12.1317032"><ele>349.6666666666667</ele><time>2026-04-24T17:39:47.38Z</time></trkpt><trkpt lat="46.073208" lon="12.1317938"><ele>349.33333333333337</ele><time>2026-04-24T17:39:49.382Z</time></trkpt><trkpt lat="46.0732673" lon="12.1318842"><ele>349.0</ele><time>2026-04-24T17:39:51.379Z</time></trkpt><trkpt lat="46.0733225" lon="12.1319786"><ele>348.6666666666667</ele><time>2026-04-24T17:39:53.384Z</time></trkpt><trkpt lat="46.0733758" lon="12.1320712"><ele>348.3333333333333</ele><time>2026-04-24T17:39:55.382Z</time></trkpt><trkpt lat="46.0734239" lon="12.132172"><ele>348.0</ele><time>2026-04-24T17:39:57.382Z</time></trkpt><trkpt lat="46.0734659" lon="12.1322812"><ele>348.3333333333333</ele><time>2026-04-24T17:39:59.377Z</time></trkpt><trkpt lat="46.0735091" lon="12.1323929"><ele>348.6666666666667</ele><time>2026-04-24T17:40:01.383Z</time></trkpt><trkpt lat="46.0735461" lon="12.1325052"><ele>349.0</ele><time>2026-04-24T17:40:03.384Z</time></trkpt><trkpt lat="46.0735799" lon="12.1326217"><ele>349.33333333333337</ele><time>2026-04-24T17:40:05.381Z</time></trkpt><trkpt lat="46.0735997" lon="12.1327268"><ele>349.6666666666667</ele><time>2026-04-24T17:40:07.377Z</time></trkpt><trkpt lat="46.0736338" lon="12.1328037"><ele>350.0</ele><time>2026-04-24T17:40:09.374Z</time></trkpt><trkpt lat="46.0737219" lon="12.1328206"><ele>350.0</ele><time>2026-04-24T17:40:12.382Z</time></trkpt><trkpt lat="46.0737998" lon="12.1327954"><ele>350.0</ele><time>2026-04-24T17:40:14.376Z</time></trkpt><trkpt lat="46.0738767" lon="12.1328585"><ele>350.0</ele><time>2026-04-24T17:40:16.383Z</time></trkpt><trkpt lat="46.0739355" lon="12.1329446"><ele>350.0</ele><time>2026-04-24T17:40:18.382Z</time></trkpt><trkpt lat="46.0739979" lon="12.1330444"><ele>350.0</ele><time>2026-04-24T17:40:20.384Z</time></trkpt><trkpt lat="46.0740561" lon="12.1331428"><ele>350.0</ele><time>2026-04-24T17:40:22.382Z</time></trkpt><trkpt lat="46.0741171" lon="12.1332563"><ele>349.2</ele><time>2026-04-24T17:40:24.376Z</time></trkpt><trkpt lat="46.0741817" lon="12.1333698"><ele>348.4</ele><time>2026-04-24T17:40:26.383Z</time></trkpt><trkpt lat="46.074251" lon="12.1334837"><ele>347.6</ele><time>2026-04-24T17:40:28.381Z</time></trkpt><trkpt lat="46.0743202" lon="12.133607"><ele>346.8</ele><time>2026-04-24T17:40:30.382Z</time></trkpt><trkpt lat="46.0743864" lon="12.1337265"><ele>346.0</ele><time>2026-04-24T17:40:32.383Z</time></trkpt><trkpt lat="46.0744667" lon="12.1338356"><ele>346.0</ele><time>2026-04-24T17:40:34.376Z</time></trkpt><trkpt lat="46.0745403" lon="12.1339479"><ele>346.0</ele><time>2026-04-24T17:40:36.383Z</time></trkpt><trkpt lat="46.0746322" lon="12.1340501"><ele>346.0</ele><time>2026-04-24T17:40:38.387Z</time></trkpt><trkpt lat="46.0746859" lon="12.1341008"><ele>346.0</ele><time>2026-04-24T17:40:39.375Z</time></trkpt><trkpt lat="46.0747468" lon="12.1341356"><ele>346.0</ele><time>2026-04-24T17:40:40.378Z</time></trkpt><trkpt lat="46.0748636" lon="12.1342033"><ele>345.57142857142856</ele><time>2026-04-24T17:40:42.387Z</time></trkpt><trkpt lat="46.0749321" lon="12.1342356"><ele>345.14285714285717</ele><time>2026-04-24T17:40:43.382Z</time></trkpt><trkpt lat="46.0750026" lon="12.1342502"><ele>344.7142857142857</ele><time>2026-04-24T17:40:44.383Z</time></trkpt><trkpt lat="46.0750718" lon="12.13427"><ele>344.2857142857143</ele><time>2026-04-24T17:40:45.373Z</time></trkpt><trkpt lat="46.0751461" lon="12.1342961"><ele>343.8571428571429</ele><time>2026-04-24T17:40:46.382Z</time></trkpt><trkpt lat="46.0752185" lon="12.1343138"><ele>343.42857142857144</ele><time>2026-04-24T17:40:47.379Z</time></trkpt><trkpt lat="46.0752891" lon="12.134326"><ele>343.0</ele><time>2026-04-24T17:40:48.382Z</time></trkpt><trkpt lat="46.075364" lon="12.1343473"><ele>342.85714285714283</ele><time>2026-04-24T17:40:49.382Z</time></trkpt><trkpt lat="46.0754326" lon="12.1343732"><ele>342.7142857142857</ele><time>2026-04-24T17:40:50.383Z</time></trkpt><trkpt lat="46.0755054" lon="12.1343954"><ele>342.57142857142856</ele><time>2026-04-24T17:40:51.375Z</time></trkpt><trkpt lat="46.0755792" lon="12.1344222"><ele>342.42857142857144</ele><time>2026-04-24T17:40:52.382Z</time></trkpt><trkpt lat="46.0756553" lon="12.1344445"><ele>342.2857142857143</ele><time>2026-04-24T17:40:53.379Z</time></trkpt><trkpt lat="46.0757275" lon="12.1344643"><ele>342.1428571428571</ele><time>2026-04-24T17:40:54.374Z</time></trkpt><trkpt lat="46.0758009" lon="12.1344908"><ele>342.0</ele><time>2026-04-24T17:40:55.377Z</time></trkpt><trkpt lat="46.0758725" lon="12.1345237"><ele>340.8333333333333</ele><time>2026-04-24T17:40:56.384Z</time></trkpt><trkpt lat="46.0759468" lon="12.1345657"><ele>339.6666666666667</ele><time>2026-04-24T17:40:57.384Z</time></trkpt><trkpt lat="46.0760217" lon="12.134602"><ele>338.5</ele><time>2026-04-24T17:40:58.382Z</time></trkpt><trkpt lat="46.0760952" lon="12.134654"><ele>337.33333333333337</ele><time>2026-04-24T17:40:59.383Z</time></trkpt><trkpt lat="46.0761626" lon="12.1347083"><ele>336.1666666666667</ele><time>2026-04-24T17:41:00.382Z</time></trkpt><trkpt lat="46.0762312" lon="12.1347672"><ele>335.0</ele><time>2026-04-24T17:41:01.382Z</time></trkpt><trkpt lat="46.076291" lon="12.1348289"><ele>334.99999999999994</ele><time>2026-04-24T17:41:02.382Z</time></trkpt><trkpt lat="46.076352" lon="12.1348941"><ele>335.0</ele><time>2026-04-24T17:41:03.376Z</time></trkpt><trkpt lat="46.0764066" lon="12.134953"><ele>335.0</ele><time>2026-04-24T17:41:04.375Z</time></trkpt><trkpt lat="46.0764598" lon="12.1350137"><ele>335.0</ele><time>2026-04-24T17:41:05.382Z</time></trkpt><trkpt lat="46.076511" lon="12.1350725"><ele>335.0</ele><time>2026-04-24T17:41:06.382Z</time></trkpt><trkpt lat="46.0765658" lon="12.1351331"><ele>334.99999999999994</ele><time>2026-04-24T17:41:07.381Z</time></trkpt><trkpt lat="46.0766199" lon="12.135192"><ele>335.0</ele><time>2026-04-24T17:41:08.382Z</time></trkpt><trkpt lat="46.0767187" lon="12.1352963"><ele>334.4</ele><time>2026-04-24T17:41:10.38Z</time></trkpt><trkpt lat="46.0768183" lon="12.1354041"><ele>333.8</ele><time>2026-04-24T17:41:12.384Z</time></trkpt><trkpt lat="46.0769692" lon="12.1355642"><ele>333.20000000000005</ele><time>2026-04-24T17:41:15.381Z</time></trkpt><trkpt lat="46.077023" lon="12.1356169"><ele>332.6</ele><time>2026-04-24T17:41:16.382Z</time></trkpt><trkpt lat="46.077075" lon="12.1356727"><ele>332.0</ele><time>2026-04-24T17:41:17.384Z</time></trkpt><trkpt lat="46.0771279" lon="12.1357301"><ele>332.0</ele><time>2026-04-24T17:41:18.382Z</time></trkpt><trkpt lat="46.0771788" lon="12.1357874"><ele>332.0</ele><time>2026-04-24T17:41:19.376Z</time></trkpt><trkpt lat="46.0772315" lon="12.1358473"><ele>332.0</ele><time>2026-04-24T17:41:20.382Z</time></trkpt><trkpt lat="46.0772843" lon="12.1359049"><ele>332.0</ele><time>2026-04-24T17:41:21.382Z</time></trkpt><trkpt lat="46.0773376" lon="12.1359655"><ele>332.0</ele><time>2026-04-24T17:41:22.381Z</time></trkpt><trkpt lat="46.0773919" lon="12.1360235"><ele>332.0</ele><time>2026-04-24T17:41:23.381Z</time></trkpt><trkpt lat="46.0774443" lon="12.1360787"><ele>332.0</ele><time>2026-04-24T17:41:24.381Z</time></trkpt><trkpt lat="46.0774978" lon="12.1361337"><ele>332.0</ele><time>2026-04-24T17:41:25.382Z</time></trkpt><trkpt lat="46.0775495" lon="12.1361869"><ele>332.0</ele><time>2026-04-24T17:41:26.381Z</time></trkpt><trkpt lat="46.077602" lon="12.1362472"><ele>332.0</ele><time>2026-04-24T17:41:27.377Z</time></trkpt><trkpt lat="46.0776564" lon="12.1363075"><ele>332.0</ele><time>2026-04-24T17:41:28.381Z</time></trkpt><trkpt lat="46.0777083" lon="12.1363601"><ele>332.0</ele><time>2026-04-24T17:41:29.381Z</time></trkpt><trkpt lat="46.0777594" lon="12.1364176"><ele>332.0</ele><time>2026-04-24T17:41:30.381Z</time></trkpt><trkpt lat="46.0778139" lon="12.1364761"><ele>332.0</ele><time>2026-04-24T17:41:31.375Z</time></trkpt><trkpt lat="46.0778643" lon="12.1365438"><ele>332.1666666666667</ele><time>2026-04-24T17:41:32.38Z</time></trkpt><trkpt lat="46.077914" lon="12.136608"><ele>332.33333333333337</ele><time>2026-04-24T17:41:33.384Z</time></trkpt><trkpt lat="46.077967" lon="12.1366665"><ele>332.5</ele><time>2026-04-24T17:41:34.375Z</time></trkpt><trkpt lat="46.0780174" lon="12.1367225"><ele>332.6666666666667</ele><time>2026-04-24T17:41:35.375Z</time></trkpt><trkpt lat="46.0780653" lon="12.1367821"><ele>332.8333333333333</ele><time>2026-04-24T17:41:36.376Z</time></trkpt><trkpt lat="46.07814" lon="12.1369268"><ele>333.0</ele><time>2026-04-24T17:41:38.382Z</time></trkpt><trkpt lat="46.0782035" lon="12.1370755"><ele>332.5</ele><time>2026-04-24T17:41:40.382Z</time></trkpt><trkpt lat="46.0782724" lon="12.1372162"><ele>332.0</ele><time>2026-04-24T17:41:42.383Z</time></trkpt><trkpt lat="46.0783371" lon="12.1373538"><ele>331.5</ele><time>2026-04-24T17:41:44.382Z</time></trkpt><trkpt lat="46.0783926" lon="12.1374957"><ele>331.0</ele><time>2026-04-24T17:41:46.382Z</time></trkpt><trkpt lat="46.0784332" lon="12.1376593"><ele>331.0</ele><time>2026-04-24T17:41:48.384Z</time></trkpt><trkpt lat="46.0784555" lon="12.137746"><ele>331.0</ele><time>2026-04-24T17:41:49.382Z</time></trkpt><trkpt lat="46.0784798" lon="12.1378315"><ele>331.0</ele><time>2026-04-24T17:41:50.381Z</time></trkpt><trkpt lat="46.0785006" lon="12.1379189"><ele>331.0</ele><time>2026-04-24T17:41:51.376Z</time></trkpt><trkpt lat="46.0785237" lon="12.1380094"><ele>331.0</ele><time>2026-04-24T17:41:52.383Z</time></trkpt><trkpt lat="46.0785485" lon="12.138096"><ele>331.0</ele><time>2026-04-24T17:41:53.382Z</time></trkpt><trkpt lat="46.0785712" lon="12.1381813"><ele>331.0</ele><time>2026-04-24T17:41:54.382Z</time></trkpt><trkpt lat="46.0785923" lon="12.1382677"><ele>331.0</ele><time>2026-04-24T17:41:55.384Z</time></trkpt><trkpt lat="46.0786139" lon="12.1383541"><ele>331.0</ele><time>2026-04-24T17:41:56.382Z</time></trkpt><trkpt lat="46.0786368" lon="12.1384448"><ele>331.0</ele><time>2026-04-24T17:41:57.384Z</time></trkpt><trkpt lat="46.078661" lon="12.1385354"><ele>331.0</ele><time>2026-04-24T17:41:58.382Z</time></trkpt><trkpt lat="46.078711" lon="12.1387029"><ele>331.0</ele><time>2026-04-24T17:42:00.374Z</time></trkpt><trkpt lat="46.0787373" lon="12.1387862"><ele>331.0</ele><time>2026-04-24T17:42:01.385Z</time></trkpt><trkpt lat="46.0787619" lon="12.1388741"><ele>331.0</ele><time>2026-04-24T17:42:02.384Z</time></trkpt><trkpt lat="46.0788092" lon="12.1390364"><ele>331.0</ele><time>2026-04-24T17:42:04.381Z</time></trkpt><trkpt lat="46.0788332" lon="12.1391259"><ele>331.0</ele><time>2026-04-24T17:42:05.382Z</time></trkpt><trkpt lat="46.0788551" lon="12.1392136"><ele>331.0</ele><time>2026-04-24T17:42:06.373Z</time></trkpt><trkpt lat="46.0789029" lon="12.1393833"><ele>331.0</ele><time>2026-04-24T17:42:08.377Z</time></trkpt><trkpt lat="46.0789464" lon="12.1395511"><ele>331.0</ele><time>2026-04-24T17:42:10.382Z</time></trkpt><trkpt lat="46.0789743" lon="12.1396338"><ele>331.0</ele><time>2026-04-24T17:42:11.377Z</time></trkpt><trkpt lat="46.0790162" lon="12.1397976"><ele>331.0</ele><time>2026-04-24T17:42:13.375Z</time></trkpt><trkpt lat="46.0790623" lon="12.1399576"><ele>331.0</ele><time>2026-04-24T17:42:15.375Z</time></trkpt><trkpt lat="46.0791072" lon="12.1401263"><ele>331.0</ele><time>2026-04-24T17:42:17.382Z</time></trkpt><trkpt lat="46.079152" lon="12.1402887"><ele>330.8333333333333</ele><time>2026-04-24T17:42:19.386Z</time></trkpt><trkpt lat="46.0791993" lon="12.1404531"><ele>330.66666666666663</ele><time>2026-04-24T17:42:21.374Z</time></trkpt><trkpt lat="46.0792452" lon="12.1406154"><ele>330.5</ele><time>2026-04-24T17:42:23.376Z</time></trkpt><trkpt lat="46.0792717" lon="12.1406991"><ele>330.3333333333333</ele><time>2026-04-24T17:42:24.383Z</time></trkpt><trkpt lat="46.0792971" lon="12.1407828"><ele>330.1666666666667</ele><time>2026-04-24T17:42:25.383Z</time></trkpt><trkpt lat="46.0793227" lon="12.1408676"><ele>330.0</ele><time>2026-04-24T17:42:26.382Z</time></trkpt><trkpt lat="46.0793673" lon="12.1410311"><ele>330.4</ele><time>2026-04-24T17:42:28.369Z</time></trkpt><trkpt lat="46.0793908" lon="12.1411157"><ele>330.8</ele><time>2026-04-24T17:42:29.382Z</time></trkpt><trkpt lat="46.0794401" lon="12.1412771"><ele>331.20000000000005</ele><time>2026-04-24T17:42:31.381Z</time></trkpt><trkpt lat="46.0794876" lon="12.1414405"><ele>331.6</ele><time>2026-04-24T17:42:33.382Z</time></trkpt><trkpt lat="46.0795326" lon="12.1416099"><ele>332.0</ele><time>2026-04-24T17:42:35.382Z</time></trkpt><trkpt lat="46.0795766" lon="12.1417724"><ele>332.20000000000005</ele><time>2026-04-24T17:42:37.383Z</time></trkpt><trkpt lat="46.0796204" lon="12.1419368"><ele>332.4</ele><time>2026-04-24T17:42:39.382Z</time></trkpt><trkpt lat="46.0796436" lon="12.1420221"><ele>332.6</ele><time>2026-04-24T17:42:40.375Z</time></trkpt><trkpt lat="46.0796888" lon="12.142188"><ele>332.79999999999995</ele><time>2026-04-24T17:42:42.382Z</time></trkpt><trkpt lat="46.0797105" lon="12.1422735"><ele>333.0</ele><time>2026-04-24T17:42:43.381Z</time></trkpt><trkpt lat="46.0797532" lon="12.1424355"><ele>333.0</ele><time>2026-04-24T17:42:45.384Z</time></trkpt><trkpt lat="46.0797774" lon="12.1425209"><ele>333.0</ele><time>2026-04-24T17:42:46.384Z</time></trkpt><trkpt lat="46.0798026" lon="12.1426043"><ele>333.0</ele><time>2026-04-24T17:42:47.375Z</time></trkpt><trkpt lat="46.0798505" lon="12.1427653"><ele>333.0</ele><time>2026-04-24T17:42:49.381Z</time></trkpt><trkpt lat="46.0798949" lon="12.1429322"><ele>333.0</ele><time>2026-04-24T17:42:51.374Z</time></trkpt><trkpt lat="46.0799393" lon="12.1430938"><ele>333.0</ele><time>2026-04-24T17:42:53.383Z</time></trkpt><trkpt lat="46.079964" lon="12.1431773"><ele>333.0</ele><time>2026-04-24T17:42:54.381Z</time></trkpt><trkpt lat="46.0800122" lon="12.1433393"><ele>333.0</ele><time>2026-04-24T17:42:56.384Z</time></trkpt><trkpt lat="46.0800804" lon="12.1435861"><ele>333.0</ele><time>2026-04-24T17:42:59.379Z</time></trkpt><trkpt lat="46.0801229" lon="12.1437489"><ele>333.0</ele><time>2026-04-24T17:43:01.378Z</time></trkpt><trkpt lat="46.0801705" lon="12.1439097"><ele>333.0</ele><time>2026-04-24T17:43:03.383Z</time></trkpt><trkpt lat="46.0801923" lon="12.1439953"><ele>333.0</ele><time>2026-04-24T17:43:04.384Z</time></trkpt><trkpt lat="46.0802171" lon="12.1440835"><ele>333.0</ele><time>2026-04-24T17:43:05.376Z</time></trkpt><trkpt lat="46.0802599" lon="12.1442504"><ele>333.0</ele><time>2026-04-24T17:43:07.382Z</time></trkpt><trkpt lat="46.0803058" lon="12.1444175"><ele>333.2</ele><time>2026-04-24T17:43:09.382Z</time></trkpt><trkpt lat="46.0803542" lon="12.1445795"><ele>333.4</ele><time>2026-04-24T17:43:11.367Z</time></trkpt><trkpt lat="46.0803768" lon="12.1446644"><ele>333.59999999999997</ele><time>2026-04-24T17:43:12.383Z</time></trkpt><trkpt lat="46.0804193" lon="12.1448321"><ele>333.79999999999995</ele><time>2026-04-24T17:43:14.379Z</time></trkpt><trkpt lat="46.0804654" lon="12.1450002"><ele>334.0</ele><time>2026-04-24T17:43:16.381Z</time></trkpt><trkpt lat="46.0804877" lon="12.1450861"><ele>334.75</ele><time>2026-04-24T17:43:17.385Z</time></trkpt><trkpt lat="46.080537" lon="12.1452454"><ele>335.5</ele><time>2026-04-24T17:43:19.381Z</time></trkpt><trkpt lat="46.0805838" lon="12.1454129"><ele>336.25</ele><time>2026-04-24T17:43:21.381Z</time></trkpt><trkpt lat="46.0806294" lon="12.145578"><ele>337.0</ele><time>2026-04-24T17:43:23.382Z</time></trkpt><trkpt lat="46.0806791" lon="12.1457452"><ele>336.8</ele><time>2026-04-24T17:43:25.375Z</time></trkpt><trkpt lat="46.0807025" lon="12.1458305"><ele>336.6</ele><time>2026-04-24T17:43:26.382Z</time></trkpt><trkpt lat="46.0807437" lon="12.1459954"><ele>336.40000000000003</ele><time>2026-04-24T17:43:28.382Z</time></trkpt><trkpt lat="46.080765" lon="12.1460812"><ele>336.20000000000005</ele><time>2026-04-24T17:43:29.381Z</time></trkpt><trkpt lat="46.0808135" lon="12.1462391"><ele>336.0</ele><time>2026-04-24T17:43:31.379Z</time></trkpt><trkpt lat="46.080861" lon="12.1464033"><ele>336.20000000000005</ele><time>2026-04-24T17:43:33.381Z</time></trkpt><trkpt lat="46.0809027" lon="12.1465643"><ele>336.40000000000003</ele><time>2026-04-24T17:43:35.381Z</time></trkpt><trkpt lat="46.0809533" lon="12.1467261"><ele>336.6</ele><time>2026-04-24T17:43:37.374Z</time></trkpt><trkpt lat="46.0809988" lon="12.1468865"><ele>336.8</ele><time>2026-04-24T17:43:39.379Z</time></trkpt><trkpt lat="46.0810208" lon="12.1469746"><ele>337.0</ele><time>2026-04-24T17:43:40.377Z</time></trkpt><trkpt lat="46.0810672" lon="12.1471396"><ele>337.0</ele><time>2026-04-24T17:43:42.383Z</time></trkpt><trkpt lat="46.0811145" lon="12.147301"><ele>337.0</ele><time>2026-04-24T17:43:44.382Z</time></trkpt><trkpt lat="46.0811612" lon="12.1474688"><ele>337.0</ele><time>2026-04-24T17:43:46.381Z</time></trkpt><trkpt lat="46.0811757" lon="12.1475572"><ele>337.0</ele><time>2026-04-24T17:43:47.379Z</time></trkpt><trkpt lat="46.0812214" lon="12.1477278"><ele>337.0</ele><time>2026-04-24T17:43:49.383Z</time></trkpt><trkpt lat="46.0812637" lon="12.1477958"><ele>337.42857142857144</ele><time>2026-04-24T17:43:50.382Z</time></trkpt><trkpt lat="46.0813066" lon="12.1478625"><ele>337.8571428571429</ele><time>2026-04-24T17:43:51.383Z</time></trkpt><trkpt lat="46.0813424" lon="12.1479414"><ele>338.28571428571433</ele><time>2026-04-24T17:43:52.38Z</time></trkpt><trkpt lat="46.0813753" lon="12.1480221"><ele>338.7142857142857</ele><time>2026-04-24T17:43:53.381Z</time></trkpt><trkpt lat="46.0814112" lon="12.1481032"><ele>339.1428571428571</ele><time>2026-04-24T17:43:54.382Z</time></trkpt><trkpt lat="46.0814423" lon="12.1481841"><ele>339.5714285714286</ele><time>2026-04-24T17:43:55.382Z</time></trkpt><trkpt lat="46.0814758" lon="12.1482642"><ele>340.0</ele><time>2026-04-24T17:43:56.383Z</time></trkpt><trkpt lat="46.0815351" lon="12.1484185"><ele>340.0</ele><time>2026-04-24T17:43:58.381Z</time></trkpt><trkpt lat="46.0815675" lon="12.1485074"><ele>340.0</ele><time>2026-04-24T17:43:59.384Z</time></trkpt><trkpt lat="46.0816019" lon="12.1485848"><ele>340.0</ele><time>2026-04-24T17:44:00.381Z</time></trkpt><trkpt lat="46.0816669" lon="12.1487379"><ele>340.0</ele><time>2026-04-24T17:44:02.383Z</time></trkpt><trkpt lat="46.0817013" lon="12.1488192"><ele>340.0</ele><time>2026-04-24T17:44:03.375Z</time></trkpt><trkpt lat="46.0817381" lon="12.1488988"><ele>340.0</ele><time>2026-04-24T17:44:04.382Z</time></trkpt><trkpt lat="46.0818007" lon="12.1490578"><ele>340.16666666666663</ele><time>2026-04-24T17:44:06.383Z</time></trkpt><trkpt lat="46.0818342" lon="12.1491392"><ele>340.3333333333333</ele><time>2026-04-24T17:44:07.375Z</time></trkpt><trkpt lat="46.0818883" lon="12.1492856"><ele>340.5</ele><time>2026-04-24T17:44:09.377Z</time></trkpt><trkpt lat="46.0819357" lon="12.1493929"><ele>340.6666666666667</ele><time>2026-04-24T17:44:10.379Z</time></trkpt><trkpt lat="46.0819728" lon="12.1494733"><ele>340.83333333333337</ele><time>2026-04-24T17:44:11.376Z</time></trkpt><trkpt lat="46.0820046" lon="12.1495602"><ele>341.0</ele><time>2026-04-24T17:44:12.381Z</time></trkpt><trkpt lat="46.0820415" lon="12.1496402"><ele>341.0</ele><time>2026-04-24T17:44:13.374Z</time></trkpt><trkpt lat="46.082077" lon="12.1497186"><ele>341.0</ele><time>2026-04-24T17:44:14.382Z</time></trkpt><trkpt lat="46.0821129" lon="12.1497978"><ele>341.0</ele><time>2026-04-24T17:44:15.373Z</time></trkpt><trkpt lat="46.0821414" lon="12.1498812"><ele>341.0</ele><time>2026-04-24T17:44:16.367Z</time></trkpt><trkpt lat="46.0821729" lon="12.1499679"><ele>341.0</ele><time>2026-04-24T17:44:17.371Z</time></trkpt><trkpt lat="46.0822086" lon="12.1500522"><ele>341.0</ele><time>2026-04-24T17:44:18.374Z</time></trkpt><trkpt lat="46.0822399" lon="12.1501342"><ele>341.0</ele><time>2026-04-24T17:44:19.373Z</time></trkpt><trkpt lat="46.0822723" lon="12.1502204"><ele>341.0</ele><time>2026-04-24T17:44:20.377Z</time></trkpt><trkpt lat="46.0823076" lon="12.1503054"><ele>341.0</ele><time>2026-04-24T17:44:21.382Z</time></trkpt><trkpt lat="46.0823404" lon="12.150387"><ele>341.0</ele><time>2026-04-24T17:44:22.383Z</time></trkpt><trkpt lat="46.0823781" lon="12.1504694"><ele>341.0</ele><time>2026-04-24T17:44:23.383Z</time></trkpt><trkpt lat="46.0824151" lon="12.1505481"><ele>341.0</ele><time>2026-04-24T17:44:24.382Z</time></trkpt><trkpt lat="46.0824553" lon="12.1506318"><ele>341.0</ele><time>2026-04-24T17:44:25.38Z</time></trkpt><trkpt lat="46.0824953" lon="12.1507078"><ele>341.0</ele><time>2026-04-24T17:44:26.377Z</time></trkpt><trkpt lat="46.0825376" lon="12.1507816"><ele>340.42857142857144</ele><time>2026-04-24T17:44:27.375Z</time></trkpt><trkpt lat="46.0825806" lon="12.1508529"><ele>339.8571428571429</ele><time>2026-04-24T17:44:28.382Z</time></trkpt><trkpt lat="46.0826245" lon="12.1509209"><ele>339.28571428571433</ele><time>2026-04-24T17:44:29.381Z</time></trkpt><trkpt lat="46.0826709" lon="12.1509871"><ele>338.7142857142857</ele><time>2026-04-24T17:44:30.381Z</time></trkpt><trkpt lat="46.0827204" lon="12.1510517"><ele>338.14285714285717</ele><time>2026-04-24T17:44:31.382Z</time></trkpt><trkpt lat="46.0827682" lon="12.1511146"><ele>337.5714285714286</ele><time>2026-04-24T17:44:32.38Z</time></trkpt><trkpt lat="46.082817" lon="12.1511759"><ele>337.0</ele><time>2026-04-24T17:44:33.38Z</time></trkpt><trkpt lat="46.0828677" lon="12.1512401"><ele>337.0</ele><time>2026-04-24T17:44:34.38Z</time></trkpt><trkpt lat="46.0829173" lon="12.1513018"><ele>337.0</ele><time>2026-04-24T17:44:35.374Z</time></trkpt><trkpt lat="46.0829675" lon="12.15136"><ele>337.0</ele><time>2026-04-24T17:44:36.382Z</time></trkpt><trkpt lat="46.0830193" lon="12.1514193"><ele>337.0</ele><time>2026-04-24T17:44:37.373Z</time></trkpt><trkpt lat="46.0830695" lon="12.1514773"><ele>337.0</ele><time>2026-04-24T17:44:38.384Z</time></trkpt><trkpt lat="46.0831185" lon="12.1515385"><ele>337.0</ele><time>2026-04-24T17:44:39.379Z</time></trkpt><trkpt lat="46.0832117" lon="12.1516587"><ele>335.8333333333333</ele><time>2026-04-24T17:44:41.374Z</time></trkpt><trkpt lat="46.0833074" lon="12.1517712"><ele>334.66666666666663</ele><time>2026-04-24T17:44:43.382Z</time></trkpt><trkpt lat="46.0833569" lon="12.1518314"><ele>333.5</ele><time>2026-04-24T17:44:44.383Z</time></trkpt><trkpt lat="46.0834067" lon="12.1518907"><ele>332.3333333333333</ele><time>2026-04-24T17:44:45.381Z</time></trkpt><trkpt lat="46.0834571" lon="12.1519548"><ele>331.1666666666667</ele><time>2026-04-24T17:44:46.383Z</time></trkpt><trkpt lat="46.0835051" lon="12.1520142"><ele>330.0</ele><time>2026-04-24T17:44:47.381Z</time></trkpt><trkpt lat="46.0836036" lon="12.1521343"><ele>330.00000000000006</ele><time>2026-04-24T17:44:49.382Z</time></trkpt><trkpt lat="46.0836534" lon="12.1521951"><ele>330.0</ele><time>2026-04-24T17:44:50.382Z</time></trkpt><trkpt lat="46.0837027" lon="12.1522532"><ele>330.0</ele><time>2026-04-24T17:44:51.381Z</time></trkpt><trkpt lat="46.0837521" lon="12.1523111"><ele>330.0</ele><time>2026-04-24T17:44:52.381Z</time></trkpt><trkpt lat="46.083801" lon="12.1523721"><ele>330.0</ele><time>2026-04-24T17:44:53.38Z</time></trkpt><trkpt lat="46.0838516" lon="12.1524307"><ele>330.00000000000006</ele><time>2026-04-24T17:44:54.375Z</time></trkpt><trkpt lat="46.0839008" lon="12.1524896"><ele>330.0</ele><time>2026-04-24T17:44:55.38Z</time></trkpt><trkpt lat="46.083951" lon="12.1525514"><ele>330.00000000000006</ele><time>2026-04-24T17:44:56.378Z</time></trkpt><trkpt lat="46.0840019" lon="12.1526098"><ele>330.0</ele><time>2026-04-24T17:44:57.465Z</time></trkpt><trkpt lat="46.0840529" lon="12.1526714"><ele>330.0</ele><time>2026-04-24T17:44:58.382Z</time></trkpt><trkpt lat="46.0841026" lon="12.1527314"><ele>330.0</ele><time>2026-04-24T17:44:59.382Z</time></trkpt><trkpt lat="46.0841543" lon="12.1527912"><ele>330.0</ele><time>2026-04-24T17:45:00.38Z</time></trkpt><trkpt lat="46.0842035" lon="12.1528564"><ele>330.00000000000006</ele><time>2026-04-24T17:45:01.382Z</time></trkpt><trkpt lat="46.084255" lon="12.1529202"><ele>330.0</ele><time>2026-04-24T17:45:02.381Z</time></trkpt><trkpt lat="46.0843052" lon="12.152984"><ele>330.1666666666667</ele><time>2026-04-24T17:45:03.382Z</time></trkpt><trkpt lat="46.0843548" lon="12.1530458"><ele>330.3333333333333</ele><time>2026-04-24T17:45:04.376Z</time></trkpt><trkpt lat="46.0844011" lon="12.1531093"><ele>330.5</ele><time>2026-04-24T17:45:05.375Z</time></trkpt><trkpt lat="46.0844449" lon="12.1531819"><ele>330.66666666666663</ele><time>2026-04-24T17:45:06.376Z</time></trkpt><trkpt lat="46.0845227" lon="12.1533236"><ele>330.8333333333333</ele><time>2026-04-24T17:45:08.379Z</time></trkpt><trkpt lat="46.0845955" lon="12.1534715"><ele>331.0</ele><time>2026-04-24T17:45:10.381Z</time></trkpt><trkpt lat="46.0846629" lon="12.1536199"><ele>331.6</ele><time>2026-04-24T17:45:12.383Z</time></trkpt><trkpt lat="46.0846996" lon="12.1536971"><ele>332.20000000000005</ele><time>2026-04-24T17:45:13.383Z</time></trkpt><trkpt lat="46.0847709" lon="12.1538332"><ele>332.79999999999995</ele><time>2026-04-24T17:45:15.372Z</time></trkpt><trkpt lat="46.0848377" lon="12.1539771"><ele>333.4</ele><time>2026-04-24T17:45:17.375Z</time></trkpt><trkpt lat="46.0849017" lon="12.1541144"><ele>334.0</ele><time>2026-04-24T17:45:19.383Z</time></trkpt><trkpt lat="46.0849687" lon="12.154252"><ele>335.2</ele><time>2026-04-24T17:45:21.384Z</time></trkpt><trkpt lat="46.0850043" lon="12.154327"><ele>336.4</ele><time>2026-04-24T17:45:22.381Z</time></trkpt><trkpt lat="46.0850676" lon="12.1544651"><ele>337.6</ele><time>2026-04-24T17:45:24.374Z</time></trkpt><trkpt lat="46.0851329" lon="12.1546124"><ele>338.8</ele><time>2026-04-24T17:45:26.385Z</time></trkpt><trkpt lat="46.0852024" lon="12.1547538"><ele>340.0</ele><time>2026-04-24T17:45:28.376Z</time></trkpt><trkpt lat="46.0852644" lon="12.1549006"><ele>340.6</ele><time>2026-04-24T17:45:30.377Z</time></trkpt><trkpt lat="46.0853289" lon="12.1550389"><ele>341.2</ele><time>2026-04-24T17:45:32.383Z</time></trkpt><trkpt lat="46.0853839" lon="12.1551756"><ele>341.79999999999995</ele><time>2026-04-24T17:45:34.372Z</time></trkpt><trkpt lat="46.0854376" lon="12.1553077"><ele>342.4</ele><time>2026-04-24T17:45:36.381Z</time></trkpt><trkpt lat="46.0854964" lon="12.1554405"><ele>343.0</ele><time>2026-04-24T17:45:38.376Z</time></trkpt><trkpt lat="46.0855572" lon="12.1555672"><ele>343.0</ele><time>2026-04-24T17:45:40.383Z</time></trkpt><trkpt lat="46.0856184" lon="12.1557001"><ele>343.0</ele><time>2026-04-24T17:45:42.374Z</time></trkpt><trkpt lat="46.0856818" lon="12.1558336"><ele>343.0</ele><time>2026-04-24T17:45:44.372Z</time></trkpt><trkpt lat="46.085742" lon="12.155966"><ele>343.0</ele><time>2026-04-24T17:45:46.381Z</time></trkpt><trkpt lat="46.0858003" lon="12.1560969"><ele>343.0</ele><time>2026-04-24T17:45:48.382Z</time></trkpt><trkpt lat="46.0858573" lon="12.1562224"><ele>342.79999999999995</ele><time>2026-04-24T17:45:50.382Z</time></trkpt><trkpt lat="46.0859203" lon="12.1563569"><ele>342.6</ele><time>2026-04-24T17:45:52.381Z</time></trkpt><trkpt lat="46.0859885" lon="12.1564921"><ele>342.4</ele><time>2026-04-24T17:45:54.377Z</time></trkpt><trkpt lat="46.0860446" lon="12.1566289"><ele>342.20000000000005</ele><time>2026-04-24T17:45:56.381Z</time></trkpt><trkpt lat="46.0861053" lon="12.1567593"><ele>342.0</ele><time>2026-04-24T17:45:58.381Z</time></trkpt><trkpt lat="46.0861609" lon="12.156899"><ele>341.75</ele><time>2026-04-24T17:46:00.382Z</time></trkpt><trkpt lat="46.0862192" lon="12.1570417"><ele>341.5</ele><time>2026-04-24T17:46:02.382Z</time></trkpt><trkpt lat="46.0862817" lon="12.1571786"><ele>341.25</ele><time>2026-04-24T17:46:04.376Z</time></trkpt><trkpt lat="46.0863398" lon="12.1573186"><ele>341.0</ele><time>2026-04-24T17:46:06.376Z</time></trkpt><trkpt lat="46.0864088" lon="12.1574494"><ele>340.5</ele><time>2026-04-24T17:46:08.383Z</time></trkpt><trkpt lat="46.086476" lon="12.1575898"><ele>340.0</ele><time>2026-04-24T17:46:10.375Z</time></trkpt><trkpt lat="46.0865398" lon="12.1577278"><ele>339.5</ele><time>2026-04-24T17:46:12.382Z</time></trkpt><trkpt lat="46.0866076" lon="12.1578637"><ele>339.0</ele><time>2026-04-24T17:46:14.382Z</time></trkpt><trkpt lat="46.0866688" lon="12.1580055"><ele>338.75</ele><time>2026-04-24T17:46:16.382Z</time></trkpt><trkpt lat="46.0867265" lon="12.1581504"><ele>338.5</ele><time>2026-04-24T17:46:18.383Z</time></trkpt><trkpt lat="46.0867741" lon="12.1583057"><ele>338.25</ele><time>2026-04-24T17:46:20.377Z</time></trkpt><trkpt lat="46.0868168" lon="12.1584685"><ele>338.0</ele><time>2026-04-24T17:46:22.381Z</time></trkpt><trkpt lat="46.0868584" lon="12.1586239"><ele>338.0</ele><time>2026-04-24T17:46:24.383Z</time></trkpt><trkpt lat="46.0868976" lon="12.1587772"><ele>338.0</ele><time>2026-04-24T17:46:26.382Z</time></trkpt><trkpt lat="46.086938" lon="12.1589368"><ele>338.0</ele><time>2026-04-24T17:46:28.381Z</time></trkpt><trkpt lat="46.08698" lon="12.1590895"><ele>338.0</ele><time>2026-04-24T17:46:30.382Z</time></trkpt><trkpt lat="46.0870251" lon="12.1592362"><ele>337.79999999999995</ele><time>2026-04-24T17:46:32.38Z</time></trkpt><trkpt lat="46.0870734" lon="12.159387"><ele>337.6</ele><time>2026-04-24T17:46:34.381Z</time></trkpt><trkpt lat="46.087127" lon="12.159526"><ele>337.4</ele><time>2026-04-24T17:46:36.381Z</time></trkpt><trkpt lat="46.0871885" lon="12.1596503"><ele>337.20000000000005</ele><time>2026-04-24T17:46:38.382Z</time></trkpt><trkpt lat="46.087253" lon="12.1597622"><ele>337.0</ele><time>2026-04-24T17:46:40.382Z</time></trkpt><trkpt lat="46.0873222" lon="12.1598622"><ele>336.8</ele><time>2026-04-24T17:46:42.373Z</time></trkpt><trkpt lat="46.0873878" lon="12.1599427"><ele>336.6</ele><time>2026-04-24T17:46:44.373Z</time></trkpt><trkpt lat="46.0874649" lon="12.1600256"><ele>336.40000000000003</ele><time>2026-04-24T17:46:46.387Z</time></trkpt><trkpt lat="46.0875558" lon="12.1601106"><ele>336.20000000000005</ele><time>2026-04-24T17:46:48.382Z</time></trkpt><trkpt lat="46.0876487" lon="12.1601851"><ele>336.0</ele><time>2026-04-24T17:46:50.375Z</time></trkpt><trkpt lat="46.0877401" lon="12.160253"><ele>335.20000000000005</ele><time>2026-04-24T17:46:52.376Z</time></trkpt><trkpt lat="46.0877774" lon="12.1603749"><ele>334.40000000000003</ele><time>2026-04-24T17:46:54.382Z</time></trkpt><trkpt lat="46.0877659" lon="12.1605199"><ele>333.6</ele><time>2026-04-24T17:46:56.383Z</time></trkpt><trkpt lat="46.0877326" lon="12.1606805"><ele>332.8</ele><time>2026-04-24T17:46:58.373Z</time></trkpt><trkpt lat="46.0877002" lon="12.1608457"><ele>332.0</ele><time>2026-04-24T17:47:00.38Z</time></trkpt><trkpt lat="46.0876702" lon="12.1609978"><ele>331.8</ele><time>2026-04-24T17:47:02.378Z</time></trkpt><trkpt lat="46.087629" lon="12.1611419"><ele>331.6</ele><time>2026-04-24T17:47:04.381Z</time></trkpt><trkpt lat="46.0875749" lon="12.1612852"><ele>331.40000000000003</ele><time>2026-04-24T17:47:06.38Z</time></trkpt><trkpt lat="46.0875276" lon="12.1614231"><ele>331.20000000000005</ele><time>2026-04-24T17:47:08.375Z</time></trkpt><trkpt lat="46.0874776" lon="12.161555"><ele>331.0</ele><time>2026-04-24T17:47:10.374Z</time></trkpt><trkpt lat="46.0874429" lon="12.1616939"><ele>332.16666666666663</ele><time>2026-04-24T17:47:12.387Z</time></trkpt><trkpt lat="46.0874163" lon="12.1618329"><ele>333.3333333333333</ele><time>2026-04-24T17:47:14.381Z</time></trkpt><trkpt lat="46.0873958" lon="12.1619666"><ele>334.5</ele><time>2026-04-24T17:47:16.381Z</time></trkpt><trkpt lat="46.0873854" lon="12.1620805"><ele>335.6666666666667</ele><time>2026-04-24T17:47:18.389Z</time></trkpt><trkpt lat="46.0873769" lon="12.1621838"><ele>336.83333333333337</ele><time>2026-04-24T17:47:20.372Z</time></trkpt><trkpt lat="46.0873696" lon="12.1622883"><ele>338.0</ele><time>2026-04-24T17:47:22.385Z</time></trkpt><trkpt lat="46.0873599" lon="12.162388"><ele>339.42857142857144</ele><time>2026-04-24T17:47:24.376Z</time></trkpt><trkpt lat="46.087353" lon="12.1624814"><ele>340.85714285714283</ele><time>2026-04-24T17:47:26.37Z</time></trkpt><trkpt lat="46.0873526" lon="12.1625738"><ele>342.2857142857143</ele><time>2026-04-24T17:47:28.381Z</time></trkpt><trkpt lat="46.0873538" lon="12.1626646"><ele>343.7142857142857</ele><time>2026-04-24T17:47:30.381Z</time></trkpt><trkpt lat="46.0873552" lon="12.1627996"><ele>345.14285714285717</ele><time>2026-04-24T17:47:33.372Z</time></trkpt><trkpt lat="46.0873766" lon="12.1629283"><ele>346.57142857142856</ele><time>2026-04-24T17:47:36.385Z</time></trkpt><trkpt lat="46.0873973" lon="12.1630175"><ele>348.0</ele><time>2026-04-24T17:47:38.373Z</time></trkpt><trkpt lat="46.0874207" lon="12.1631089"><ele>348.0</ele><time>2026-04-24T17:47:40.377Z</time></trkpt><trkpt lat="46.0874436" lon="12.1631986"><ele>348.0</ele><time>2026-04-24T17:47:42.38Z</time></trkpt><trkpt lat="46.0874666" lon="12.1632874"><ele>348.0</ele><time>2026-04-24T17:47:44.383Z</time></trkpt><trkpt lat="46.0874935" lon="12.163374"><ele>348.0</ele><time>2026-04-24T17:47:46.387Z</time></trkpt><trkpt lat="46.0875193" lon="12.1634606"><ele>348.0</ele><time>2026-04-24T17:47:48.376Z</time></trkpt><trkpt lat="46.0875426" lon="12.1635484"><ele>348.0</ele><time>2026-04-24T17:47:50.382Z</time></trkpt><trkpt lat="46.0875682" lon="12.1636358"><ele>348.0</ele><time>2026-04-24T17:47:52.381Z</time></trkpt><trkpt lat="46.0875905" lon="12.1637242"><ele>348.0</ele><time>2026-04-24T17:47:54.378Z</time></trkpt><trkpt lat="46.0876085" lon="12.1638199"><ele>348.0</ele><time>2026-04-24T17:47:56.375Z</time></trkpt><trkpt lat="46.0876237" lon="12.1639168"><ele>348.0</ele><time>2026-04-24T17:47:58.378Z</time></trkpt><trkpt lat="46.0876355" lon="12.1640141"><ele>348.0</ele><time>2026-04-24T17:48:00.375Z</time></trkpt><trkpt lat="46.0876499" lon="12.1641092"><ele>348.0</ele><time>2026-04-24T17:48:02.376Z</time></trkpt><trkpt lat="46.0876644" lon="12.1642046"><ele>348.0</ele><time>2026-04-24T17:48:04.378Z</time></trkpt><trkpt lat="46.0876783" lon="12.1643036"><ele>348.0</ele><time>2026-04-24T17:48:06.382Z</time></trkpt><trkpt lat="46.0876964" lon="12.1644003"><ele>348.57142857142856</ele><time>2026-04-24T17:48:08.375Z</time></trkpt><trkpt lat="46.0877179" lon="12.1644984"><ele>349.14285714285717</ele><time>2026-04-24T17:48:10.387Z</time></trkpt><trkpt lat="46.087743" lon="12.1645957"><ele>349.7142857142857</ele><time>2026-04-24T17:48:12.383Z</time></trkpt><trkpt lat="46.0877678" lon="12.1646917"><ele>350.2857142857143</ele><time>2026-04-24T17:48:14.385Z</time></trkpt><trkpt lat="46.0878005" lon="12.1647854"><ele>350.85714285714283</ele><time>2026-04-24T17:48:16.38Z</time></trkpt><trkpt lat="46.0878317" lon="12.1648826"><ele>351.42857142857144</ele><time>2026-04-24T17:48:18.376Z</time></trkpt><trkpt lat="46.0878623" lon="12.1649816"><ele>352.0</ele><time>2026-04-24T17:48:20.382Z</time></trkpt><trkpt lat="46.0878984" lon="12.1650782"><ele>352.8333333333333</ele><time>2026-04-24T17:48:22.377Z</time></trkpt><trkpt lat="46.0879362" lon="12.1651786"><ele>353.66666666666663</ele><time>2026-04-24T17:48:24.383Z</time></trkpt><trkpt lat="46.0879707" lon="12.1652864"><ele>354.5</ele><time>2026-04-24T17:48:26.39Z</time></trkpt><trkpt lat="46.0879991" lon="12.1653916"><ele>355.3333333333333</ele><time>2026-04-24T17:48:28.382Z</time></trkpt><trkpt lat="46.0880313" lon="12.1654905"><ele>356.1666666666667</ele><time>2026-04-24T17:48:30.38Z</time></trkpt><trkpt lat="46.0880663" lon="12.1655953"><ele>357.0</ele><time>2026-04-24T17:48:32.383Z</time></trkpt><trkpt lat="46.0881033" lon="12.1656985"><ele>356.5</ele><time>2026-04-24T17:48:34.391Z</time></trkpt><trkpt lat="46.088137" lon="12.1658056"><ele>356.0</ele><time>2026-04-24T17:48:36.39Z</time></trkpt><trkpt lat="46.0881702" lon="12.1659135"><ele>355.5</ele><time>2026-04-24T17:48:38.383Z</time></trkpt><trkpt lat="46.0882071" lon="12.1660224"><ele>355.0</ele><time>2026-04-24T17:48:40.39Z</time></trkpt><trkpt lat="46.0882461" lon="12.1661325"><ele>354.5</ele><time>2026-04-24T17:48:42.382Z</time></trkpt><trkpt lat="46.0882805" lon="12.1662397"><ele>354.0</ele><time>2026-04-24T17:48:44.385Z</time></trkpt><trkpt lat="46.088317" lon="12.1663484"><ele>354.0</ele><time>2026-04-24T17:48:46.387Z</time></trkpt><trkpt lat="46.0883557" lon="12.1664508"><ele>354.0</ele><time>2026-04-24T17:48:48.38Z</time></trkpt><trkpt lat="46.0883854" lon="12.166563"><ele>354.0</ele><time>2026-04-24T17:48:50.379Z</time></trkpt><trkpt lat="46.0884182" lon="12.1666744"><ele>354.0</ele><time>2026-04-24T17:48:52.383Z</time></trkpt><trkpt lat="46.0884509" lon="12.1667799"><ele>354.0</ele><time>2026-04-24T17:48:54.387Z</time></trkpt><trkpt lat="46.0884815" lon="12.1668849"><ele>354.0</ele><time>2026-04-24T17:48:56.387Z</time></trkpt><trkpt lat="46.0885108" lon="12.1669932"><ele>355.0</ele><time>2026-04-24T17:48:58.39Z</time></trkpt><trkpt lat="46.0885391" lon="12.1671005"><ele>356.0</ele><time>2026-04-24T17:49:00.372Z</time></trkpt><trkpt lat="46.0885701" lon="12.1672033"><ele>357.0</ele><time>2026-04-24T17:49:02.381Z</time></trkpt><trkpt lat="46.0885993" lon="12.1673096"><ele>358.0</ele><time>2026-04-24T17:49:04.382Z</time></trkpt><trkpt lat="46.0886283" lon="12.1674168"><ele>359.0</ele><time>2026-04-24T17:49:06.369Z</time></trkpt><trkpt lat="46.0886544" lon="12.1675226"><ele>360.0</ele><time>2026-04-24T17:49:08.387Z</time></trkpt><trkpt lat="46.0886783" lon="12.167632"><ele>360.3333333333333</ele><time>2026-04-24T17:49:10.384Z</time></trkpt><trkpt lat="46.0886994" lon="12.1677453"><ele>360.6666666666667</ele><time>2026-04-24T17:49:12.384Z</time></trkpt><trkpt lat="46.088716" lon="12.1678589"><ele>361.0</ele><time>2026-04-24T17:49:14.377Z</time></trkpt><trkpt lat="46.0887232" lon="12.1679718"><ele>361.33333333333337</ele><time>2026-04-24T17:49:16.385Z</time></trkpt><trkpt lat="46.0887307" lon="12.1680827"><ele>361.6666666666667</ele><time>2026-04-24T17:49:18.382Z</time></trkpt><trkpt lat="46.0887339" lon="12.1681942"><ele>362.0</ele><time>2026-04-24T17:49:20.38Z</time></trkpt><trkpt lat="46.0887352" lon="12.1683044"><ele>362.0</ele><time>2026-04-24T17:49:22.369Z</time></trkpt><trkpt lat="46.0887359" lon="12.1684133"><ele>362.0</ele><time>2026-04-24T17:49:24.373Z</time></trkpt><trkpt lat="46.0887371" lon="12.1685202"><ele>362.0</ele><time>2026-04-24T17:49:26.379Z</time></trkpt><trkpt lat="46.0887399" lon="12.1686284"><ele>362.0</ele><time>2026-04-24T17:49:28.377Z</time></trkpt><trkpt lat="46.0887419" lon="12.1687354"><ele>362.0</ele><time>2026-04-24T17:49:30.385Z</time></trkpt><trkpt lat="46.0887375" lon="12.1688409"><ele>362.0</ele><time>2026-04-24T17:49:32.387Z</time></trkpt><trkpt lat="46.0887308" lon="12.1689426"><ele>362.0</ele><time>2026-04-24T17:49:34.384Z</time></trkpt><trkpt lat="46.08872" lon="12.169041"><ele>361.7142857142857</ele><time>2026-04-24T17:49:36.382Z</time></trkpt><trkpt lat="46.0887018" lon="12.1691332"><ele>361.42857142857144</ele><time>2026-04-24T17:49:38.378Z</time></trkpt><trkpt lat="46.0886502" lon="12.1692425"><ele>361.1428571428571</ele><time>2026-04-24T17:49:41.381Z</time></trkpt><trkpt lat="46.0885976" lon="12.1692977"><ele>360.8571428571429</ele><time>2026-04-24T17:49:43.372Z</time></trkpt><trkpt lat="46.0885412" lon="12.1693388"><ele>360.5714285714286</ele><time>2026-04-24T17:49:45.375Z</time></trkpt><trkpt lat="46.0884787" lon="12.1693778"><ele>360.2857142857143</ele><time>2026-04-24T17:49:47.379Z</time></trkpt><trkpt lat="46.0884165" lon="12.1694255"><ele>360.0</ele><time>2026-04-24T17:49:49.371Z</time></trkpt><trkpt lat="46.0883541" lon="12.16947"><ele>360.0</ele><time>2026-04-24T17:49:51.376Z</time></trkpt><trkpt lat="46.0882927" lon="12.1695169"><ele>360.0</ele><time>2026-04-24T17:49:53.369Z</time></trkpt><trkpt lat="46.0882286" lon="12.1695601"><ele>360.0</ele><time>2026-04-24T17:49:55.386Z</time></trkpt><trkpt lat="46.0881685" lon="12.1696121"><ele>360.0</ele><time>2026-04-24T17:49:57.38Z</time></trkpt><trkpt lat="46.0880751" lon="12.1696775"><ele>360.0</ele><time>2026-04-24T17:50:00.371Z</time></trkpt><trkpt lat="46.0880082" lon="12.1697163"><ele>360.0</ele><time>2026-04-24T17:50:02.371Z</time></trkpt><trkpt lat="46.0879435" lon="12.1697633"><ele>360.4285714285714</ele><time>2026-04-24T17:50:04.376Z</time></trkpt><trkpt lat="46.0878757" lon="12.1698057"><ele>360.8571428571429</ele><time>2026-04-24T17:50:06.377Z</time></trkpt><trkpt lat="46.087807" lon="12.1698473"><ele>361.2857142857143</ele><time>2026-04-24T17:50:08.386Z</time></trkpt><trkpt lat="46.0877359" lon="12.1698876"><ele>361.71428571428567</ele><time>2026-04-24T17:50:10.385Z</time></trkpt><trkpt lat="46.087665" lon="12.1699272"><ele>362.1428571428571</ele><time>2026-04-24T17:50:12.385Z</time></trkpt><trkpt lat="46.0875954" lon="12.1699649"><ele>362.57142857142856</ele><time>2026-04-24T17:50:14.383Z</time></trkpt><trkpt lat="46.0875272" lon="12.1700039"><ele>363.0</ele><time>2026-04-24T17:50:16.375Z</time></trkpt><trkpt lat="46.0874588" lon="12.170041"><ele>364.1428571428571</ele><time>2026-04-24T17:50:18.383Z</time></trkpt><trkpt lat="46.0873947" lon="12.1700772"><ele>365.2857142857143</ele><time>2026-04-24T17:50:20.378Z</time></trkpt><trkpt lat="46.087335" lon="12.1701145"><ele>366.42857142857144</ele><time>2026-04-24T17:50:22.373Z</time></trkpt><trkpt lat="46.0872761" lon="12.1701534"><ele>367.57142857142856</ele><time>2026-04-24T17:50:24.384Z</time></trkpt><trkpt lat="46.0872318" lon="12.1702215"><ele>368.7142857142857</ele><time>2026-04-24T17:50:26.373Z</time></trkpt><trkpt lat="46.0872344" lon="12.1703193"><ele>369.85714285714283</ele><time>2026-04-24T17:50:28.376Z</time></trkpt><trkpt lat="46.087267" lon="12.1704214"><ele>371.0</ele><time>2026-04-24T17:50:30.39Z</time></trkpt><trkpt lat="46.087307" lon="12.1705252"><ele>371.0</ele><time>2026-04-24T17:50:32.387Z</time></trkpt><trkpt lat="46.0873497" lon="12.1706302"><ele>371.0</ele><time>2026-04-24T17:50:34.382Z</time></trkpt><trkpt lat="46.0873863" lon="12.1707399"><ele>371.0</ele><time>2026-04-24T17:50:36.385Z</time></trkpt><trkpt lat="46.0874225" lon="12.1708465"><ele>371.0</ele><time>2026-04-24T17:50:38.386Z</time></trkpt><trkpt lat="46.0874634" lon="12.17095"><ele>371.0</ele><time>2026-04-24T17:50:40.386Z</time></trkpt><trkpt lat="46.0875013" lon="12.1710525"><ele>371.0</ele><time>2026-04-24T17:50:42.39Z</time></trkpt><trkpt lat="46.0875301" lon="12.1711574"><ele>371.1666666666667</ele><time>2026-04-24T17:50:44.397Z</time></trkpt><trkpt lat="46.0875637" lon="12.1712648"><ele>371.33333333333337</ele><time>2026-04-24T17:50:46.386Z</time></trkpt><trkpt lat="46.0876009" lon="12.17137"><ele>371.5</ele><time>2026-04-24T17:50:48.384Z</time></trkpt><trkpt lat="46.0876408" lon="12.1714741"><ele>371.6666666666667</ele><time>2026-04-24T17:50:50.379Z</time></trkpt><trkpt lat="46.0876795" lon="12.171584"><ele>371.8333333333333</ele><time>2026-04-24T17:50:52.391Z</time></trkpt><trkpt lat="46.0877195" lon="12.1716996"><ele>372.0</ele><time>2026-04-24T17:50:54.386Z</time></trkpt><trkpt lat="46.0877611" lon="12.1718119"><ele>372.0</ele><time>2026-04-24T17:50:56.386Z</time></trkpt><trkpt lat="46.0877985" lon="12.1719249"><ele>372.0</ele><time>2026-04-24T17:50:58.382Z</time></trkpt><trkpt lat="46.0878338" lon="12.1720316"><ele>372.0</ele><time>2026-04-24T17:51:00.385Z</time></trkpt><trkpt lat="46.0878746" lon="12.1721335"><ele>372.0</ele><time>2026-04-24T17:51:02.38Z</time></trkpt><trkpt lat="46.0879145" lon="12.1722363"><ele>372.0</ele><time>2026-04-24T17:51:04.382Z</time></trkpt><trkpt lat="46.0879467" lon="12.1723405"><ele>372.0</ele><time>2026-04-24T17:51:06.377Z</time></trkpt><trkpt lat="46.0879796" lon="12.1724472"><ele>372.1666666666667</ele><time>2026-04-24T17:51:08.386Z</time></trkpt><trkpt lat="46.088018" lon="12.1725562"><ele>372.3333333333333</ele><time>2026-04-24T17:51:10.385Z</time></trkpt><trkpt lat="46.0880552" lon="12.1726651"><ele>372.5</ele><time>2026-04-24T17:51:12.379Z</time></trkpt><trkpt lat="46.0880926" lon="12.1727682"><ele>372.66666666666663</ele><time>2026-04-24T17:51:14.38Z</time></trkpt><trkpt lat="46.0881276" lon="12.17288"><ele>372.8333333333333</ele><time>2026-04-24T17:51:16.38Z</time></trkpt><trkpt lat="46.0881668" lon="12.1730076"><ele>373.0</ele><time>2026-04-24T17:51:18.372Z</time></trkpt><trkpt lat="46.0882133" lon="12.1731463"><ele>372.59999999999997</ele><time>2026-04-24T17:51:20.383Z</time></trkpt><trkpt lat="46.08826" lon="12.1732887"><ele>372.2</ele><time>2026-04-24T17:51:22.376Z</time></trkpt><trkpt lat="46.0883107" lon="12.1734231"><ele>371.8</ele><time>2026-04-24T17:51:24.386Z</time></trkpt><trkpt lat="46.0883661" lon="12.1735649"><ele>371.4</ele><time>2026-04-24T17:51:26.382Z</time></trkpt><trkpt lat="46.0884162" lon="12.1737064"><ele>371.0</ele><time>2026-04-24T17:51:28.386Z</time></trkpt><trkpt lat="46.0884593" lon="12.1738478"><ele>371.0</ele><time>2026-04-24T17:51:30.378Z</time></trkpt><trkpt lat="46.0885039" lon="12.1739854"><ele>371.0</ele><time>2026-04-24T17:51:32.379Z</time></trkpt><trkpt lat="46.0885524" lon="12.1741119"><ele>371.0</ele><time>2026-04-24T17:51:34.385Z</time></trkpt><trkpt lat="46.088597" lon="12.1742371"><ele>371.0</ele><time>2026-04-24T17:51:36.385Z</time></trkpt><trkpt lat="46.0886454" lon="12.1743676"><ele>371.0</ele><time>2026-04-24T17:51:38.378Z</time></trkpt><trkpt lat="46.0886878" lon="12.174485"><ele>371.5</ele><time>2026-04-24T17:51:40.382Z</time></trkpt><trkpt lat="46.0887248" lon="12.1746079"><ele>372.0</ele><time>2026-04-24T17:51:42.379Z</time></trkpt><trkpt lat="46.0887669" lon="12.1747204"><ele>372.5</ele><time>2026-04-24T17:51:44.383Z</time></trkpt><trkpt lat="46.0888082" lon="12.1748292"><ele>373.0</ele><time>2026-04-24T17:51:46.379Z</time></trkpt><trkpt lat="46.0888426" lon="12.1749394"><ele>373.5</ele><time>2026-04-24T17:51:48.385Z</time></trkpt><trkpt lat="46.0888824" lon="12.1750435"><ele>374.0</ele><time>2026-04-24T17:51:50.385Z</time></trkpt><trkpt lat="46.088923" lon="12.1751461"><ele>374.33333333333337</ele><time>2026-04-24T17:51:52.374Z</time></trkpt><trkpt lat="46.0889637" lon="12.1752462"><ele>374.6666666666667</ele><time>2026-04-24T17:51:54.387Z</time></trkpt><trkpt lat="46.0890034" lon="12.1753505"><ele>375.0</ele><time>2026-04-24T17:51:56.386Z</time></trkpt><trkpt lat="46.0890377" lon="12.1754558"><ele>375.3333333333333</ele><time>2026-04-24T17:51:58.386Z</time></trkpt><trkpt lat="46.0890742" lon="12.1755575"><ele>375.66666666666663</ele><time>2026-04-24T17:52:00.397Z</time></trkpt><trkpt lat="46.0891104" lon="12.1756596"><ele>376.0</ele><time>2026-04-24T17:52:02.385Z</time></trkpt><trkpt lat="46.0891465" lon="12.1757618"><ele>376.57142857142856</ele><time>2026-04-24T17:52:04.378Z</time></trkpt><trkpt lat="46.0891714" lon="12.1758637"><ele>377.1428571428571</ele><time>2026-04-24T17:52:06.383Z</time></trkpt><trkpt lat="46.0891937" lon="12.175958"><ele>377.7142857142857</ele><time>2026-04-24T17:52:08.385Z</time></trkpt><trkpt lat="46.0892254" lon="12.1760494"><ele>378.2857142857143</ele><time>2026-04-24T17:52:10.383Z</time></trkpt><trkpt lat="46.0892532" lon="12.1761433"><ele>378.8571428571429</ele><time>2026-04-24T17:52:12.383Z</time></trkpt><trkpt lat="46.0892818" lon="12.1762294"><ele>379.42857142857144</ele><time>2026-04-24T17:52:14.382Z</time></trkpt><trkpt lat="46.0893202" lon="12.1763391"><ele>380.0</ele><time>2026-04-24T17:52:17.376Z</time></trkpt><trkpt lat="46.089364" lon="12.1764576"><ele>380.33333333333337</ele><time>2026-04-24T17:52:20.4Z</time></trkpt><trkpt lat="46.0894078" lon="12.1765481"><ele>380.6666666666667</ele><time>2026-04-24T17:52:22.384Z</time></trkpt><trkpt lat="46.0894485" lon="12.1766539"><ele>381.0</ele><time>2026-04-24T17:52:24.385Z</time></trkpt><trkpt lat="46.0894943" lon="12.176766"><ele>381.3333333333333</ele><time>2026-04-24T17:52:26.383Z</time></trkpt><trkpt lat="46.0895488" lon="12.1768737"><ele>381.66666666666663</ele><time>2026-04-24T17:52:28.386Z</time></trkpt><trkpt lat="46.0896052" lon="12.1770007"><ele>382.0</ele><time>2026-04-24T17:52:30.392Z</time></trkpt><trkpt lat="46.0896638" lon="12.1771272"><ele>382.0</ele><time>2026-04-24T17:52:32.379Z</time></trkpt><trkpt lat="46.0897204" lon="12.1772522"><ele>382.0</ele><time>2026-04-24T17:52:34.379Z</time></trkpt><trkpt lat="46.0897854" lon="12.1773726"><ele>382.0</ele><time>2026-04-24T17:52:36.382Z</time></trkpt><trkpt lat="46.0898483" lon="12.177508"><ele>382.0</ele><time>2026-04-24T17:52:38.385Z</time></trkpt><trkpt lat="46.0899064" lon="12.1776485"><ele>382.0</ele><time>2026-04-24T17:52:40.381Z</time></trkpt><trkpt lat="46.0899613" lon="12.177783"><ele>381.6</ele><time>2026-04-24T17:52:42.383Z</time></trkpt><trkpt lat="46.090021" lon="12.1779075"><ele>381.20000000000005</ele><time>2026-04-24T17:52:44.386Z</time></trkpt><trkpt lat="46.0900808" lon="12.1780158"><ele>380.8</ele><time>2026-04-24T17:52:46.385Z</time></trkpt><trkpt lat="46.0901351" lon="12.1781145"><ele>380.4</ele><time>2026-04-24T17:52:48.385Z</time></trkpt><trkpt lat="46.0901832" lon="12.1782034"><ele>380.0</ele><time>2026-04-24T17:52:50.386Z</time></trkpt><trkpt lat="46.0902456" lon="12.1782918"><ele>380.0</ele><time>2026-04-24T17:52:52.378Z</time></trkpt><trkpt lat="46.0903118" lon="12.1783743"><ele>380.0</ele><time>2026-04-24T17:52:54.389Z</time></trkpt><trkpt lat="46.090382" lon="12.1784493"><ele>380.0</ele><time>2026-04-24T17:52:56.387Z</time></trkpt><trkpt lat="46.0904567" lon="12.1785302"><ele>380.0</ele><time>2026-04-24T17:52:58.383Z</time></trkpt><trkpt lat="46.0905303" lon="12.1786022"><ele>380.0</ele><time>2026-04-24T17:53:00.378Z</time></trkpt><trkpt lat="46.0906007" lon="12.178669"><ele>380.0</ele><time>2026-04-24T17:53:02.384Z</time></trkpt><trkpt lat="46.0906691" lon="12.1787446"><ele>380.0</ele><time>2026-04-24T17:53:04.376Z</time></trkpt><trkpt lat="46.0907362" lon="12.1788094"><ele>380.0</ele><time>2026-04-24T17:53:06.387Z</time></trkpt><trkpt lat="46.0907985" lon="12.1788738"><ele>380.0</ele><time>2026-04-24T17:53:08.387Z</time></trkpt><trkpt lat="46.0908551" lon="12.1789297"><ele>380.0</ele><time>2026-04-24T17:53:10.386Z</time></trkpt><trkpt lat="46.0909103" lon="12.1789807"><ele>380.0</ele><time>2026-04-24T17:53:12.385Z</time></trkpt><trkpt lat="46.0909648" lon="12.1790394"><ele>380.0</ele><time>2026-04-24T17:53:14.388Z</time></trkpt><trkpt lat="46.0910331" lon="12.1790916"><ele>380.0</ele><time>2026-04-24T17:53:16.38Z</time></trkpt><trkpt lat="46.0911178" lon="12.1791441"><ele>380.0</ele><time>2026-04-24T17:53:18.386Z</time></trkpt><trkpt lat="46.0912265" lon="12.1792046"><ele>380.0</ele><time>2026-04-24T17:53:20.377Z</time></trkpt><trkpt lat="46.0912919" lon="12.1792282"><ele>380.0</ele><time>2026-04-24T17:53:21.389Z</time></trkpt><trkpt lat="46.091362" lon="12.179261"><ele>380.0</ele><time>2026-04-24T17:53:22.383Z</time></trkpt><trkpt lat="46.091439" lon="12.1792964"><ele>380.0</ele><time>2026-04-24T17:53:23.382Z</time></trkpt><trkpt lat="46.0915192" lon="12.1793262"><ele>380.0</ele><time>2026-04-24T17:53:24.383Z</time></trkpt><trkpt lat="46.0916049" lon="12.1793603"><ele>378.4</ele><time>2026-04-24T17:53:25.381Z</time></trkpt><trkpt lat="46.0916914" lon="12.1793891"><ele>376.8</ele><time>2026-04-24T17:53:26.384Z</time></trkpt><trkpt lat="46.0917686" lon="12.1794161"><ele>375.20000000000005</ele><time>2026-04-24T17:53:27.385Z</time></trkpt><trkpt lat="46.0918437" lon="12.179437"><ele>373.6</ele><time>2026-04-24T17:53:28.384Z</time></trkpt><trkpt lat="46.091919" lon="12.1794613"><ele>372.0</ele><time>2026-04-24T17:53:29.384Z</time></trkpt><trkpt lat="46.0920478" lon="12.1795188"><ele>372.0</ele><time>2026-04-24T17:53:31.376Z</time></trkpt><trkpt lat="46.0921226" lon="12.1795268"><ele>372.0</ele><time>2026-04-24T17:53:32.374Z</time></trkpt><trkpt lat="46.0921946" lon="12.1795526"><ele>372.0</ele><time>2026-04-24T17:53:33.379Z</time></trkpt><trkpt lat="46.0922754" lon="12.1795335"><ele>372.0</ele><time>2026-04-24T17:53:34.375Z</time></trkpt><trkpt lat="46.0923782" lon="12.1794871"><ele>372.0</ele><time>2026-04-24T17:53:35.381Z</time></trkpt><trkpt lat="46.0924585" lon="12.179466"><ele>372.0</ele><time>2026-04-24T17:53:36.372Z</time></trkpt><trkpt lat="46.0925508" lon="12.17945"><ele>370.0</ele><time>2026-04-24T17:53:37.377Z</time></trkpt><trkpt lat="46.0926434" lon="12.1794338"><ele>368.0</ele><time>2026-04-24T17:53:38.385Z</time></trkpt><trkpt lat="46.0927427" lon="12.17942"><ele>366.0</ele><time>2026-04-24T17:53:39.374Z</time></trkpt><trkpt lat="46.0928436" lon="12.1794086"><ele>364.0</ele><time>2026-04-24T17:53:40.385Z</time></trkpt><trkpt lat="46.0929475" lon="12.1794066"><ele>362.0</ele><time>2026-04-24T17:53:41.38Z</time></trkpt><trkpt lat="46.0930525" lon="12.1794231"><ele>362.0</ele><time>2026-04-24T17:53:42.377Z</time></trkpt><trkpt lat="46.0931546" lon="12.1794522"><ele>362.0</ele><time>2026-04-24T17:53:43.381Z</time></trkpt><trkpt lat="46.0932561" lon="12.1794845"><ele>362.0</ele><time>2026-04-24T17:53:44.391Z</time></trkpt><trkpt lat="46.0933536" lon="12.179548"><ele>362.0</ele><time>2026-04-24T17:53:45.385Z</time></trkpt><trkpt lat="46.0934446" lon="12.179632"><ele>362.0</ele><time>2026-04-24T17:53:46.376Z</time></trkpt><trkpt lat="46.0935329" lon="12.1797347"><ele>361.25</ele><time>2026-04-24T17:53:47.377Z</time></trkpt><trkpt lat="46.0936095" lon="12.1798647"><ele>360.5</ele><time>2026-04-24T17:53:48.377Z</time></trkpt><trkpt lat="46.0936701" lon="12.1800046"><ele>359.75</ele><time>2026-04-24T17:53:49.383Z</time></trkpt><trkpt lat="46.093715" lon="12.1801511"><ele>359.0</ele><time>2026-04-24T17:53:50.385Z</time></trkpt><trkpt lat="46.0937597" lon="12.1802975"><ele>359.0</ele><time>2026-04-24T17:53:51.38Z</time></trkpt><trkpt lat="46.0938078" lon="12.1804384"><ele>359.0</ele><time>2026-04-24T17:53:52.38Z</time></trkpt><trkpt lat="46.0938522" lon="12.1805808"><ele>359.0</ele><time>2026-04-24T17:53:53.394Z</time></trkpt><trkpt lat="46.0938922" lon="12.1807202"><ele>359.0</ele><time>2026-04-24T17:53:54.384Z</time></trkpt><trkpt lat="46.0939367" lon="12.1808546"><ele>359.0</ele><time>2026-04-24T17:53:55.386Z</time></trkpt><trkpt lat="46.0939771" lon="12.1809898"><ele>359.33333333333337</ele><time>2026-04-24T17:53:56.376Z</time></trkpt><trkpt lat="46.0940126" lon="12.1811208"><ele>359.6666666666667</ele><time>2026-04-24T17:53:57.409Z</time></trkpt><trkpt lat="46.0940488" lon="12.1812474"><ele>360.0</ele><time>2026-04-24T17:53:58.379Z</time></trkpt><trkpt lat="46.0940844" lon="12.1813668"><ele>360.3333333333333</ele><time>2026-04-24T17:53:59.374Z</time></trkpt><trkpt lat="46.094118" lon="12.1814805"><ele>360.66666666666663</ele><time>2026-04-24T17:54:00.376Z</time></trkpt><trkpt lat="46.0941529" lon="12.1815848"><ele>361.0</ele><time>2026-04-24T17:54:01.389Z</time></trkpt><trkpt lat="46.0941904" lon="12.1816803"><ele>359.8</ele><time>2026-04-24T17:54:02.387Z</time></trkpt><trkpt lat="46.0942369" lon="12.1817617"><ele>358.6</ele><time>2026-04-24T17:54:03.388Z</time></trkpt><trkpt lat="46.0942917" lon="12.1818216"><ele>357.4</ele><time>2026-04-24T17:54:04.377Z</time></trkpt><trkpt lat="46.0944051" lon="12.1818771"><ele>356.2</ele><time>2026-04-24T17:54:06.386Z</time></trkpt><trkpt lat="46.0945191" lon="12.1818956"><ele>355.0</ele><time>2026-04-24T17:54:08.384Z</time></trkpt><trkpt lat="46.0946317" lon="12.1819119"><ele>355.0</ele><time>2026-04-24T17:54:10.38Z</time></trkpt><trkpt lat="46.0947468" lon="12.1819157"><ele>355.0</ele><time>2026-04-24T17:54:12.386Z</time></trkpt><trkpt lat="46.0948763" lon="12.1819211"><ele>355.0</ele><time>2026-04-24T17:54:14.385Z</time></trkpt><trkpt lat="46.0949447" lon="12.1819211"><ele>355.0</ele><time>2026-04-24T17:54:15.386Z</time></trkpt><trkpt lat="46.0950148" lon="12.1819224"><ele>355.0</ele><time>2026-04-24T17:54:16.384Z</time></trkpt><trkpt lat="46.0950793" lon="12.1819225"><ele>355.0</ele><time>2026-04-24T17:54:17.39Z</time></trkpt><trkpt lat="46.0951465" lon="12.1819196"><ele>354.57142857142856</ele><time>2026-04-24T17:54:18.388Z</time></trkpt><trkpt lat="46.0952164" lon="12.181924"><ele>354.14285714285717</ele><time>2026-04-24T17:54:19.38Z</time></trkpt><trkpt lat="46.0952842" lon="12.181924"><ele>353.7142857142857</ele><time>2026-04-24T17:54:20.398Z</time></trkpt><trkpt lat="46.0953519" lon="12.181929"><ele>353.2857142857143</ele><time>2026-04-24T17:54:21.383Z</time></trkpt><trkpt lat="46.0954215" lon="12.1819328"><ele>352.85714285714283</ele><time>2026-04-24T17:54:22.389Z</time></trkpt><trkpt lat="46.0954888" lon="12.1819308"><ele>352.42857142857144</ele><time>2026-04-24T17:54:23.386Z</time></trkpt><trkpt lat="46.0955563" lon="12.1819348"><ele>352.0</ele><time>2026-04-24T17:54:24.386Z</time></trkpt><trkpt lat="46.0956222" lon="12.1819345"><ele>352.0</ele><time>2026-04-24T17:54:25.387Z</time></trkpt><trkpt lat="46.0957467" lon="12.181936"><ele>352.0</ele><time>2026-04-24T17:54:27.379Z</time></trkpt><trkpt lat="46.0958129" lon="12.181938"><ele>352.0</ele><time>2026-04-24T17:54:28.369Z</time></trkpt><trkpt lat="46.0958818" lon="12.1819408"><ele>352.0</ele><time>2026-04-24T17:54:29.388Z</time></trkpt><trkpt lat="46.0959473" lon="12.1819361"><ele>352.0</ele><time>2026-04-24T17:54:30.388Z</time></trkpt><trkpt lat="46.0960147" lon="12.1819396"><ele>352.0</ele><time>2026-04-24T17:54:31.384Z</time></trkpt><trkpt lat="46.0960835" lon="12.1819447"><ele>351.66666666666663</ele><time>2026-04-24T17:54:32.372Z</time></trkpt><trkpt lat="46.0961503" lon="12.1819467"><ele>351.3333333333333</ele><time>2026-04-24T17:54:33.386Z</time></trkpt><trkpt lat="46.0962138" lon="12.1819462"><ele>351.0</ele><time>2026-04-24T17:54:34.383Z</time></trkpt><trkpt lat="46.0962806" lon="12.1819488"><ele>350.6666666666667</ele><time>2026-04-24T17:54:35.385Z</time></trkpt><trkpt lat="46.0964034" lon="12.1819506"><ele>350.33333333333337</ele><time>2026-04-24T17:54:37.384Z</time></trkpt><trkpt lat="46.0964669" lon="12.1819534"><ele>350.0</ele><time>2026-04-24T17:54:38.387Z</time></trkpt><trkpt lat="46.0965892" lon="12.181955"><ele>349.8</ele><time>2026-04-24T17:54:40.386Z</time></trkpt><trkpt lat="46.0967117" lon="12.1819638"><ele>349.6</ele><time>2026-04-24T17:54:42.385Z</time></trkpt><trkpt lat="46.0968328" lon="12.1819679"><ele>349.4</ele><time>2026-04-24T17:54:44.371Z</time></trkpt><trkpt lat="46.0969556" lon="12.1819747"><ele>349.2</ele><time>2026-04-24T17:54:46.385Z</time></trkpt><trkpt lat="46.097019" lon="12.1819775"><ele>349.0</ele><time>2026-04-24T17:54:47.374Z</time></trkpt><trkpt lat="46.0971412" lon="12.1819823"><ele>349.0</ele><time>2026-04-24T17:54:49.388Z</time></trkpt><trkpt lat="46.0972556" lon="12.1819789"><ele>349.0</ele><time>2026-04-24T17:54:51.377Z</time></trkpt><trkpt lat="46.0973735" lon="12.1819879"><ele>349.0</ele><time>2026-04-24T17:54:53.379Z</time></trkpt><trkpt lat="46.097479" lon="12.1819936"><ele>349.0</ele><time>2026-04-24T17:54:55.38Z</time></trkpt><trkpt lat="46.0975816" lon="12.1819906"><ele>349.0</ele><time>2026-04-24T17:54:57.377Z</time></trkpt><trkpt lat="46.0976718" lon="12.1819903"><ele>350.0</ele><time>2026-04-24T17:54:59.385Z</time></trkpt><trkpt lat="46.0977567" lon="12.1819953"><ele>351.0</ele><time>2026-04-24T17:55:01.406Z</time></trkpt><trkpt lat="46.0978424" lon="12.1820045"><ele>352.0</ele><time>2026-04-24T17:55:03.381Z</time></trkpt><trkpt lat="46.097922" lon="12.1820048"><ele>353.0</ele><time>2026-04-24T17:55:05.391Z</time></trkpt><trkpt lat="46.0980005" lon="12.1820099"><ele>354.0</ele><time>2026-04-24T17:55:07.391Z</time></trkpt><trkpt lat="46.0980773" lon="12.1820079"><ele>355.0</ele><time>2026-04-24T17:55:09.393Z</time></trkpt><trkpt lat="46.0981531" lon="12.1820087"><ele>355.0</ele><time>2026-04-24T17:55:11.381Z</time></trkpt><trkpt lat="46.0982293" lon="12.1820061"><ele>355.0</ele><time>2026-04-24T17:55:13.373Z</time></trkpt><trkpt lat="46.0983054" lon="12.1820101"><ele>355.0</ele><time>2026-04-24T17:55:15.372Z</time></trkpt><trkpt lat="46.098379" lon="12.1820121"><ele>355.0</ele><time>2026-04-24T17:55:17.376Z</time></trkpt><trkpt lat="46.0984465" lon="12.1820103"><ele>355.0</ele><time>2026-04-24T17:55:19.374Z</time></trkpt><trkpt lat="46.0985389" lon="12.1820026"><ele>355.0</ele><time>2026-04-24T17:55:22.379Z</time></trkpt><trkpt lat="46.098623" lon="12.1819733"><ele>355.8333333333333</ele><time>2026-04-24T17:55:25.387Z</time></trkpt><trkpt lat="46.0987074" lon="12.1819602"><ele>356.66666666666663</ele><time>2026-04-24T17:55:28.386Z</time></trkpt><trkpt lat="46.0987948" lon="12.1819379"><ele>357.5</ele><time>2026-04-24T17:55:31.383Z</time></trkpt><trkpt lat="46.098874" lon="12.1819172"><ele>358.3333333333333</ele><time>2026-04-24T17:55:34.387Z</time></trkpt><trkpt lat="46.0989471" lon="12.1818993"><ele>359.1666666666667</ele><time>2026-04-24T17:55:37.387Z</time></trkpt><trkpt lat="46.0990256" lon="12.1818779"><ele>360.0</ele><time>2026-04-24T17:55:41.389Z</time></trkpt><trkpt lat="46.0990758" lon="12.1818096"><ele>360.3333333333333</ele><time>2026-04-24T17:55:44.377Z</time></trkpt><trkpt lat="46.0991559" lon="12.1817731"><ele>360.6666666666667</ele><time>2026-04-24T17:55:47.391Z</time></trkpt><trkpt lat="46.0992264" lon="12.1817853"><ele>361.0</ele><time>2026-04-24T17:55:49.373Z</time></trkpt><trkpt lat="46.099315" lon="12.1818304"><ele>361.33333333333337</ele><time>2026-04-24T17:55:51.385Z</time></trkpt><trkpt lat="46.0994125" lon="12.1819184"><ele>361.6666666666667</ele><time>2026-04-24T17:55:53.374Z</time></trkpt><trkpt lat="46.099464" lon="12.1819832"><ele>362.0</ele><time>2026-04-24T17:55:54.386Z</time></trkpt><trkpt lat="46.0995269" lon="12.182046"><ele>362.0</ele><time>2026-04-24T17:55:55.383Z</time></trkpt><trkpt lat="46.0995907" lon="12.1821248"><ele>362.0</ele><time>2026-04-24T17:55:56.385Z</time></trkpt><trkpt lat="46.0996574" lon="12.1822014"><ele>362.0</ele><time>2026-04-24T17:55:57.387Z</time></trkpt><trkpt lat="46.0997205" lon="12.1822695"><ele>362.0</ele><time>2026-04-24T17:55:58.375Z</time></trkpt><trkpt lat="46.0997774" lon="12.182345"><ele>362.0</ele><time>2026-04-24T17:55:59.373Z</time></trkpt><trkpt lat="46.0998364" lon="12.1824201"><ele>362.0</ele><time>2026-04-24T17:56:00.375Z</time></trkpt><trkpt lat="46.0998999" lon="12.1824929"><ele>360.6</ele><time>2026-04-24T17:56:01.386Z</time></trkpt><trkpt lat="46.09996" lon="12.1825682"><ele>359.20000000000005</ele><time>2026-04-24T17:56:02.383Z</time></trkpt><trkpt lat="46.1000077" lon="12.182631"><ele>357.8</ele><time>2026-04-24T17:56:03.383Z</time></trkpt><trkpt lat="46.1000628" lon="12.1826757"><ele>356.4</ele><time>2026-04-24T17:56:04.386Z</time></trkpt><trkpt lat="46.1001916" lon="12.182654"><ele>355.0</ele><time>2026-04-24T17:56:06.412Z</time></trkpt><trkpt lat="46.1003314" lon="12.1826054"><ele>355.0</ele><time>2026-04-24T17:56:08.376Z</time></trkpt><trkpt lat="46.1004142" lon="12.1825759"><ele>355.0</ele><time>2026-04-24T17:56:09.386Z</time></trkpt><trkpt lat="46.1004995" lon="12.182546"><ele>355.0</ele><time>2026-04-24T17:56:10.375Z</time></trkpt><trkpt lat="46.1005837" lon="12.1825153"><ele>355.0</ele><time>2026-04-24T17:56:11.387Z</time></trkpt><trkpt lat="46.100665" lon="12.1824814"><ele>355.0</ele><time>2026-04-24T17:56:12.384Z</time></trkpt><trkpt lat="46.1007412" lon="12.1824474"><ele>355.0</ele><time>2026-04-24T17:56:13.382Z</time></trkpt><trkpt lat="46.1008161" lon="12.1824151"><ele>354.2857142857143</ele><time>2026-04-24T17:56:14.388Z</time></trkpt><trkpt lat="46.1008935" lon="12.1823768"><ele>353.57142857142856</ele><time>2026-04-24T17:56:15.387Z</time></trkpt><trkpt lat="46.100964" lon="12.1823402"><ele>352.8571428571429</ele><time>2026-04-24T17:56:16.374Z</time></trkpt><trkpt lat="46.1010323" lon="12.1823024"><ele>352.1428571428571</ele><time>2026-04-24T17:56:17.38Z</time></trkpt><trkpt lat="46.1010992" lon="12.1822674"><ele>351.42857142857144</ele><time>2026-04-24T17:56:18.374Z</time></trkpt><trkpt lat="46.1011647" lon="12.182227"><ele>350.7142857142857</ele><time>2026-04-24T17:56:19.374Z</time></trkpt><trkpt lat="46.101232" lon="12.1821915"><ele>350.0</ele><time>2026-04-24T17:56:20.382Z</time></trkpt><trkpt lat="46.1013003" lon="12.18216"><ele>349.83333333333337</ele><time>2026-04-24T17:56:21.382Z</time></trkpt><trkpt lat="46.1013661" lon="12.1821247"><ele>349.6666666666667</ele><time>2026-04-24T17:56:22.384Z</time></trkpt><trkpt lat="46.101425" lon="12.1820807"><ele>349.5</ele><time>2026-04-24T17:56:23.386Z</time></trkpt><trkpt lat="46.1014806" lon="12.1820281"><ele>349.3333333333333</ele><time>2026-04-24T17:56:24.377Z</time></trkpt><trkpt lat="46.1015379" lon="12.1819747"><ele>349.16666666666663</ele><time>2026-04-24T17:56:25.381Z</time></trkpt><trkpt lat="46.1016531" lon="12.181907"><ele>349.0</ele><time>2026-04-24T17:56:27.371Z</time></trkpt><trkpt lat="46.1017127" lon="12.1818747"><ele>349.0</ele><time>2026-04-24T17:56:28.382Z</time></trkpt><trkpt lat="46.1018292" lon="12.1818236"><ele>349.0</ele><time>2026-04-24T17:56:30.383Z</time></trkpt><trkpt lat="46.1019478" lon="12.181789"><ele>349.0</ele><time>2026-04-24T17:56:32.374Z</time></trkpt><trkpt lat="46.10201" lon="12.181772"><ele>349.0</ele><time>2026-04-24T17:56:33.374Z</time></trkpt><trkpt lat="46.1020726" lon="12.1817604"><ele>349.0</ele><time>2026-04-24T17:56:34.388Z</time></trkpt><trkpt lat="46.1021482" lon="12.1817425"><ele>349.0</ele><time>2026-04-24T17:56:35.379Z</time></trkpt><trkpt lat="46.1022233" lon="12.1817239"><ele>349.0</ele><time>2026-04-24T17:56:36.388Z</time></trkpt><trkpt lat="46.102303" lon="12.1817001"><ele>349.0</ele><time>2026-04-24T17:56:37.388Z</time></trkpt><trkpt lat="46.1023798" lon="12.1816734"><ele>349.0</ele><time>2026-04-24T17:56:38.373Z</time></trkpt><trkpt lat="46.1024712" lon="12.1816524"><ele>349.0</ele><time>2026-04-24T17:56:39.375Z</time></trkpt><trkpt lat="46.1025619" lon="12.1816352"><ele>349.0</ele><time>2026-04-24T17:56:40.376Z</time></trkpt><trkpt lat="46.1026506" lon="12.1816484"><ele>349.0</ele><time>2026-04-24T17:56:41.377Z</time></trkpt><trkpt lat="46.1027236" lon="12.1816945"><ele>348.0</ele><time>2026-04-24T17:56:42.385Z</time></trkpt><trkpt lat="46.1027867" lon="12.1817344"><ele>347.0</ele><time>2026-04-24T17:56:43.373Z</time></trkpt><trkpt lat="46.1028912" lon="12.1817975"><ele>346.0</ele><time>2026-04-24T17:56:45.383Z</time></trkpt><trkpt lat="46.1029739" lon="12.1818827"><ele>345.0</ele><time>2026-04-24T17:56:47.373Z</time></trkpt><trkpt lat="46.1030482" lon="12.1819554"><ele>344.0</ele><time>2026-04-24T17:56:49.378Z</time></trkpt><trkpt lat="46.1031228" lon="12.182029"><ele>344.0</ele><time>2026-04-24T17:56:51.386Z</time></trkpt><trkpt lat="46.1031929" lon="12.1821082"><ele>344.0</ele><time>2026-04-24T17:56:53.389Z</time></trkpt><trkpt lat="46.1032586" lon="12.1821939"><ele>344.0</ele><time>2026-04-24T17:56:55.389Z</time></trkpt><trkpt lat="46.1033225" lon="12.1822896"><ele>344.0</ele><time>2026-04-24T17:56:57.383Z</time></trkpt><trkpt lat="46.1033698" lon="12.1824003"><ele>344.0</ele><time>2026-04-24T17:56:59.376Z</time></trkpt><trkpt lat="46.103414" lon="12.1825273"><ele>344.4</ele><time>2026-04-24T17:57:01.381Z</time></trkpt><trkpt lat="46.1034617" lon="12.1826584"><ele>344.79999999999995</ele><time>2026-04-24T17:57:03.377Z</time></trkpt><trkpt lat="46.1035074" lon="12.1827956"><ele>345.20000000000005</ele><time>2026-04-24T17:57:05.376Z</time></trkpt><trkpt lat="46.1035546" lon="12.1829161"><ele>345.6</ele><time>2026-04-24T17:57:07.375Z</time></trkpt><trkpt lat="46.1035993" lon="12.1830343"><ele>346.0</ele><time>2026-04-24T17:57:09.4Z</time></trkpt><trkpt lat="46.1036432" lon="12.1831434"><ele>346.5</ele><time>2026-04-24T17:57:11.38Z</time></trkpt><trkpt lat="46.1036878" lon="12.1832512"><ele>347.0</ele><time>2026-04-24T17:57:13.395Z</time></trkpt><trkpt lat="46.1037292" lon="12.1833581"><ele>347.5</ele><time>2026-04-24T17:57:15.373Z</time></trkpt><trkpt lat="46.1037699" lon="12.1834661"><ele>348.0</ele><time>2026-04-24T17:57:17.376Z</time></trkpt><trkpt lat="46.1037582" lon="12.1835814"><ele>348.5</ele><time>2026-04-24T17:57:19.379Z</time></trkpt><trkpt lat="46.103704" lon="12.1836715"><ele>349.0</ele><time>2026-04-24T17:57:21.383Z</time></trkpt><trkpt lat="46.1037419" lon="12.1837707"><ele>349.0</ele><time>2026-04-24T17:57:23.381Z</time></trkpt><trkpt lat="46.1037622" lon="12.183896"><ele>349.0</ele><time>2026-04-24T17:57:25.39Z</time></trkpt><trkpt lat="46.1037686" lon="12.1840292"><ele>349.0</ele><time>2026-04-24T17:57:27.379Z</time></trkpt><trkpt lat="46.1037801" lon="12.1841641"><ele>349.0</ele><time>2026-04-24T17:57:29.379Z</time></trkpt><trkpt lat="46.1037937" lon="12.1842951"><ele>349.0</ele><time>2026-04-24T17:57:31.386Z</time></trkpt><trkpt lat="46.10381" lon="12.1844203"><ele>349.4</ele><time>2026-04-24T17:57:33.383Z</time></trkpt><trkpt lat="46.1038246" lon="12.1845478"><ele>349.79999999999995</ele><time>2026-04-24T17:57:35.375Z</time></trkpt><trkpt lat="46.1038354" lon="12.1846759"><ele>350.20000000000005</ele><time>2026-04-24T17:57:37.385Z</time></trkpt><trkpt lat="46.1038343" lon="12.184804"><ele>350.6</ele><time>2026-04-24T17:57:39.379Z</time></trkpt><trkpt lat="46.1038258" lon="12.1849336"><ele>351.0</ele><time>2026-04-24T17:57:41.383Z</time></trkpt><trkpt lat="46.1038224" lon="12.1850662"><ele>351.4</ele><time>2026-04-24T17:57:43.385Z</time></trkpt><trkpt lat="46.1038296" lon="12.1851986"><ele>351.8</ele><time>2026-04-24T17:57:45.385Z</time></trkpt><trkpt lat="46.1038313" lon="12.1853385"><ele>352.2</ele><time>2026-04-24T17:57:47.406Z</time></trkpt><trkpt lat="46.1038313" lon="12.1854725"><ele>352.59999999999997</ele><time>2026-04-24T17:57:49.382Z</time></trkpt><trkpt lat="46.1038368" lon="12.1856071"><ele>353.0</ele><time>2026-04-24T17:57:51.38Z</time></trkpt><trkpt lat="46.1038381" lon="12.1857418"><ele>353.2</ele><time>2026-04-24T17:57:53.378Z</time></trkpt><trkpt lat="46.1038448" lon="12.1858788"><ele>353.4</ele><time>2026-04-24T17:57:55.374Z</time></trkpt><trkpt lat="46.1038488" lon="12.1860153"><ele>353.59999999999997</ele><time>2026-04-24T17:57:57.384Z</time></trkpt><trkpt lat="46.1038511" lon="12.1861548"><ele>353.79999999999995</ele><time>2026-04-24T17:57:59.374Z</time></trkpt><trkpt lat="46.1038542" lon="12.1863014"><ele>354.0</ele><time>2026-04-24T17:58:01.385Z</time></trkpt><trkpt lat="46.1038574" lon="12.1864454"><ele>353.79999999999995</ele><time>2026-04-24T17:58:03.409Z</time></trkpt><trkpt lat="46.1038649" lon="12.1865792"><ele>353.59999999999997</ele><time>2026-04-24T17:58:05.388Z</time></trkpt><trkpt lat="46.1038738" lon="12.1867148"><ele>353.4</ele><time>2026-04-24T17:58:07.38Z</time></trkpt><trkpt lat="46.1038752" lon="12.1868551"><ele>353.2</ele><time>2026-04-24T17:58:09.385Z</time></trkpt><trkpt lat="46.103884" lon="12.1869882"><ele>353.0</ele><time>2026-04-24T17:58:11.383Z</time></trkpt><trkpt lat="46.1038958" lon="12.1871166"><ele>353.0</ele><time>2026-04-24T17:58:13.376Z</time></trkpt><trkpt lat="46.1039147" lon="12.1872541"><ele>353.0</ele><time>2026-04-24T17:58:15.381Z</time></trkpt><trkpt lat="46.1039407" lon="12.1873765"><ele>353.0</ele><time>2026-04-24T17:58:17.375Z</time></trkpt><trkpt lat="46.103972" lon="12.1874947"><ele>353.0</ele><time>2026-04-24T17:58:19.375Z</time></trkpt><trkpt lat="46.1040055" lon="12.187613"><ele>353.0</ele><time>2026-04-24T17:58:21.394Z</time></trkpt><trkpt lat="46.1040414" lon="12.1877351"><ele>353.4</ele><time>2026-04-24T17:58:23.38Z</time></trkpt><trkpt lat="46.1040777" lon="12.1878574"><ele>353.79999999999995</ele><time>2026-04-24T17:58:25.384Z</time></trkpt><trkpt lat="46.1041172" lon="12.1879763"><ele>354.2</ele><time>2026-04-24T17:58:27.383Z</time></trkpt><trkpt lat="46.1041598" lon="12.1880947"><ele>354.6</ele><time>2026-04-24T17:58:29.385Z</time></trkpt><trkpt lat="46.1041988" lon="12.1882058"><ele>355.0</ele><time>2026-04-24T17:58:31.375Z</time></trkpt><trkpt lat="46.1042416" lon="12.1883302"><ele>355.5</ele><time>2026-04-24T17:58:33.39Z</time></trkpt><trkpt lat="46.1042808" lon="12.1884526"><ele>356.0</ele><time>2026-04-24T17:58:35.376Z</time></trkpt><trkpt lat="46.1043175" lon="12.1885776"><ele>356.5</ele><time>2026-04-24T17:58:37.374Z</time></trkpt><trkpt lat="46.1043552" lon="12.1886988"><ele>357.0</ele><time>2026-04-24T17:58:39.38Z</time></trkpt><trkpt lat="46.1043903" lon="12.1888124"><ele>357.5</ele><time>2026-04-24T17:58:41.383Z</time></trkpt><trkpt lat="46.1044082" lon="12.1889222"><ele>358.0</ele><time>2026-04-24T17:58:43.382Z</time></trkpt><trkpt lat="46.1044219" lon="12.1890482"><ele>358.4</ele><time>2026-04-24T17:58:46.374Z</time></trkpt><trkpt lat="46.1044717" lon="12.1891276"><ele>358.79999999999995</ele><time>2026-04-24T17:58:48.381Z</time></trkpt><trkpt lat="46.104554" lon="12.1891622"><ele>359.2</ele><time>2026-04-24T17:58:50.385Z</time></trkpt><trkpt lat="46.104644" lon="12.1891958"><ele>359.6</ele><time>2026-04-24T17:58:52.375Z</time></trkpt><trkpt lat="46.1047383" lon="12.1892441"><ele>360.0</ele><time>2026-04-24T17:58:54.388Z</time></trkpt><trkpt lat="46.1048286" lon="12.1893249"><ele>359.75</ele><time>2026-04-24T17:58:56.373Z</time></trkpt><trkpt lat="46.1049159" lon="12.1894259"><ele>359.5</ele><time>2026-04-24T17:58:58.384Z</time></trkpt><trkpt lat="46.1049983" lon="12.1895466"><ele>359.25</ele><time>2026-04-24T17:59:00.374Z</time></trkpt><trkpt lat="46.1050782" lon="12.1896787"><ele>359.0</ele><time>2026-04-24T17:59:02.373Z</time></trkpt><trkpt lat="46.1051567" lon="12.189813"><ele>359.2</ele><time>2026-04-24T17:59:04.384Z</time></trkpt><trkpt lat="46.1051951" lon="12.1898877"><ele>359.4</ele><time>2026-04-24T17:59:05.384Z</time></trkpt><trkpt lat="46.1052782" lon="12.1900163"><ele>359.6</ele><time>2026-04-24T17:59:07.382Z</time></trkpt><trkpt lat="46.1053592" lon="12.1901453"><ele>359.8</ele><time>2026-04-24T17:59:09.375Z</time></trkpt><trkpt lat="46.1054365" lon="12.190277"><ele>360.0</ele><time>2026-04-24T17:59:11.384Z</time></trkpt><trkpt lat="46.1055133" lon="12.190407"><ele>360.0</ele><time>2026-04-24T17:59:13.383Z</time></trkpt><trkpt lat="46.1055906" lon="12.1905313"><ele>360.0</ele><time>2026-04-24T17:59:15.384Z</time></trkpt><trkpt lat="46.1056691" lon="12.1906574"><ele>360.0</ele><time>2026-04-24T17:59:17.376Z</time></trkpt><trkpt lat="46.105748" lon="12.1907846"><ele>360.0</ele><time>2026-04-24T17:59:19.411Z</time></trkpt><trkpt lat="46.1058173" lon="12.1909065"><ele>360.1666666666667</ele><time>2026-04-24T17:59:21.373Z</time></trkpt><trkpt lat="46.1058875" lon="12.1910085"><ele>360.3333333333333</ele><time>2026-04-24T17:59:23.37Z</time></trkpt><trkpt lat="46.1059797" lon="12.1910331"><ele>360.5</ele><time>2026-04-24T17:59:25.379Z</time></trkpt><trkpt lat="46.1060662" lon="12.1910342"><ele>360.66666666666663</ele><time>2026-04-24T17:59:27.375Z</time></trkpt><trkpt lat="46.1061509" lon="12.1910335"><ele>360.8333333333333</ele><time>2026-04-24T17:59:29.373Z</time></trkpt><trkpt lat="46.1062193" lon="12.1910413"><ele>361.0</ele><time>2026-04-24T17:59:31.384Z</time></trkpt><trkpt lat="46.1063039" lon="12.191046"><ele>361.0</ele><time>2026-04-24T17:59:33.383Z</time></trkpt><trkpt lat="46.1063929" lon="12.1910533"><ele>361.0</ele><time>2026-04-24T17:59:35.394Z</time></trkpt><trkpt lat="46.1064882" lon="12.1910599"><ele>361.0</ele><time>2026-04-24T17:59:37.374Z</time></trkpt><trkpt lat="46.1065713" lon="12.1911052"><ele>361.0</ele><time>2026-04-24T17:59:39.383Z</time></trkpt><trkpt lat="46.106648" lon="12.1911248"><ele>361.0</ele><time>2026-04-24T17:59:41.377Z</time></trkpt><trkpt lat="46.1066437" lon="12.1910224"><ele>361.0</ele><time>2026-04-24T17:59:44.386Z</time></trkpt><trkpt lat="46.1066192" lon="12.190922"><ele>361.0</ele><time>2026-04-24T17:59:46.383Z</time></trkpt><trkpt lat="46.1065931" lon="12.1907979"><ele>361.0</ele><time>2026-04-24T17:59:48.382Z</time></trkpt><trkpt lat="46.1065635" lon="12.1906914"><ele>361.0</ele><time>2026-04-24T17:59:50.374Z</time></trkpt><trkpt lat="46.1066015" lon="12.1908001"><ele>361.0</ele><time>2026-04-24T17:59:56.397Z</time></trkpt><trkpt lat="46.1066294" lon="12.1908907"><ele>361.0</ele><time>2026-04-24T17:59:59.373Z</time></trkpt><trkpt lat="46.106772" lon="12.1907135"><ele>360.7142857142857</ele><time>2026-04-24T18:00:05.375Z</time></trkpt><trkpt lat="46.1067986" lon="12.1907985"><ele>360.4285714285714</ele><time>2026-04-24T18:00:10.381Z</time></trkpt><trkpt lat="46.106835" lon="12.190897"><ele>360.1428571428571</ele><time>2026-04-24T18:00:13.375Z</time></trkpt><trkpt lat="46.1068969" lon="12.1909231"><ele>359.8571428571429</ele><time>2026-04-24T18:00:15.383Z</time></trkpt><trkpt lat="46.1069602" lon="12.1909411"><ele>359.57142857142856</ele><time>2026-04-24T18:00:17.383Z</time></trkpt><trkpt lat="46.1070326" lon="12.1909803"><ele>359.2857142857143</ele><time>2026-04-24T18:00:20.374Z</time></trkpt><trkpt lat="46.1071019" lon="12.1910646"><ele>359.0</ele><time>2026-04-24T18:00:23.378Z</time></trkpt><trkpt lat="46.107172" lon="12.1910975"><ele>359.0</ele><time>2026-04-24T18:00:25.388Z</time></trkpt><trkpt lat="46.1072554" lon="12.1911302"><ele>359.0</ele><time>2026-04-24T18:00:27.382Z</time></trkpt><trkpt lat="46.107332" lon="12.1911693"><ele>359.0</ele><time>2026-04-24T18:00:29.383Z</time></trkpt><trkpt lat="46.1073819" lon="12.1912716"><ele>359.0</ele><time>2026-04-24T18:00:33.389Z</time></trkpt><trkpt lat="46.1074518" lon="12.1912868"><ele>359.0</ele><time>2026-04-24T18:00:35.387Z</time></trkpt><trkpt lat="46.1075365" lon="12.1912604"><ele>359.0</ele><time>2026-04-24T18:00:37.384Z</time></trkpt><trkpt lat="46.1076358" lon="12.1912736"><ele>358.0</ele><time>2026-04-24T18:00:39.41Z</time></trkpt><trkpt lat="46.1077446" lon="12.1912693"><ele>357.0</ele><time>2026-04-24T18:00:41.385Z</time></trkpt><trkpt lat="46.1078616" lon="12.1912546"><ele>356.0</ele><time>2026-04-24T18:00:43.385Z</time></trkpt><trkpt lat="46.1079736" lon="12.1912304"><ele>355.0</ele><time>2026-04-24T18:00:45.375Z</time></trkpt><trkpt lat="46.1080872" lon="12.1911764"><ele>355.0</ele><time>2026-04-24T18:00:47.384Z</time></trkpt><trkpt lat="46.108188" lon="12.1910952"><ele>355.0</ele><time>2026-04-24T18:00:49.375Z</time></trkpt><trkpt lat="46.1082878" lon="12.1909993"><ele>355.0</ele><time>2026-04-24T18:00:51.383Z</time></trkpt><trkpt lat="46.1083899" lon="12.1908937"><ele>355.0</ele><time>2026-04-24T18:00:53.383Z</time></trkpt><trkpt lat="46.1084415" lon="12.1908364"><ele>355.0</ele><time>2026-04-24T18:00:54.384Z</time></trkpt><trkpt lat="46.1084939" lon="12.1907846"><ele>354.85714285714283</ele><time>2026-04-24T18:00:55.383Z</time></trkpt><trkpt lat="46.1085514" lon="12.1907392"><ele>354.7142857142857</ele><time>2026-04-24T18:00:56.382Z</time></trkpt><trkpt lat="46.1086085" lon="12.1906909"><ele>354.57142857142856</ele><time>2026-04-24T18:00:57.377Z</time></trkpt><trkpt lat="46.1086655" lon="12.190646"><ele>354.42857142857144</ele><time>2026-04-24T18:00:58.383Z</time></trkpt><trkpt lat="46.1087197" lon="12.1905953"><ele>354.2857142857143</ele><time>2026-04-24T18:00:59.383Z</time></trkpt><trkpt lat="46.1087744" lon="12.1905443"><ele>354.14285714285717</ele><time>2026-04-24T18:01:00.373Z</time></trkpt><trkpt lat="46.1088275" lon="12.1904938"><ele>354.0</ele><time>2026-04-24T18:01:01.376Z</time></trkpt><trkpt lat="46.1088845" lon="12.1904462"><ele>353.6</ele><time>2026-04-24T18:01:02.374Z</time></trkpt><trkpt lat="46.1089396" lon="12.1904016"><ele>353.2</ele><time>2026-04-24T18:01:03.383Z</time></trkpt><trkpt lat="46.1089944" lon="12.1903535"><ele>352.8</ele><time>2026-04-24T18:01:04.378Z</time></trkpt><trkpt lat="46.1090999" lon="12.1902571"><ele>352.40000000000003</ele><time>2026-04-24T18:01:06.375Z</time></trkpt><trkpt lat="46.1092095" lon="12.1901737"><ele>352.0</ele><time>2026-04-24T18:01:08.375Z</time></trkpt><trkpt lat="46.109311" lon="12.1900785"><ele>352.0</ele><time>2026-04-24T18:01:10.376Z</time></trkpt><trkpt lat="46.1094071" lon="12.1899842"><ele>352.0</ele><time>2026-04-24T18:01:12.383Z</time></trkpt><trkpt lat="46.1095021" lon="12.1898891"><ele>352.0</ele><time>2026-04-24T18:01:14.368Z</time></trkpt><trkpt lat="46.1096022" lon="12.1897882"><ele>352.0</ele><time>2026-04-24T18:01:16.382Z</time></trkpt><trkpt lat="46.1097" lon="12.1896945"><ele>352.0</ele><time>2026-04-24T18:01:18.379Z</time></trkpt><trkpt lat="46.1097985" lon="12.1895944"><ele>352.0</ele><time>2026-04-24T18:01:20.373Z</time></trkpt><trkpt lat="46.1098938" lon="12.1894961"><ele>352.0</ele><time>2026-04-24T18:01:22.382Z</time></trkpt><trkpt lat="46.1099896" lon="12.1893855"><ele>352.0</ele><time>2026-04-24T18:01:24.372Z</time></trkpt><trkpt lat="46.1100883" lon="12.1892779"><ele>351.0</ele><time>2026-04-24T18:01:26.387Z</time></trkpt><trkpt lat="46.1101877" lon="12.1891813"><ele>350.0</ele><time>2026-04-24T18:01:28.384Z</time></trkpt><trkpt lat="46.1102918" lon="12.1890944"><ele>349.0</ele><time>2026-04-24T18:01:30.376Z</time></trkpt><trkpt lat="46.1104106" lon="12.1890594"><ele>348.0</ele><time>2026-04-24T18:01:32.382Z</time></trkpt><trkpt lat="46.110529" lon="12.1890365"><ele>348.0</ele><time>2026-04-24T18:01:34.382Z</time></trkpt><trkpt lat="46.1105933" lon="12.189031"><ele>348.0</ele><time>2026-04-24T18:01:35.381Z</time></trkpt><trkpt lat="46.1107093" lon="12.1890186"><ele>348.0</ele><time>2026-04-24T18:01:37.376Z</time></trkpt><trkpt lat="46.1108229" lon="12.1889995"><ele>348.0</ele><time>2026-04-24T18:01:39.384Z</time></trkpt><trkpt lat="46.1109333" lon="12.1889792"><ele>348.0</ele><time>2026-04-24T18:01:41.376Z</time></trkpt><trkpt lat="46.1110525" lon="12.1889443"><ele>347.4</ele><time>2026-04-24T18:01:43.382Z</time></trkpt><trkpt lat="46.1111655" lon="12.1888981"><ele>346.79999999999995</ele><time>2026-04-24T18:01:45.384Z</time></trkpt><trkpt lat="46.1112833" lon="12.1888565"><ele>346.2</ele><time>2026-04-24T18:01:47.376Z</time></trkpt><trkpt lat="46.1113445" lon="12.1888307"><ele>345.6</ele><time>2026-04-24T18:01:48.375Z</time></trkpt><trkpt lat="46.1114664" lon="12.1888019"><ele>345.0</ele><time>2026-04-24T18:01:50.384Z</time></trkpt><trkpt lat="46.1115311" lon="12.1887833"><ele>345.6</ele><time>2026-04-24T18:01:51.375Z</time></trkpt><trkpt lat="46.1115932" lon="12.1887666"><ele>346.2</ele><time>2026-04-24T18:01:52.378Z</time></trkpt><trkpt lat="46.1116562" lon="12.1887604"><ele>346.79999999999995</ele><time>2026-04-24T18:01:53.383Z</time></trkpt><trkpt lat="46.111759" lon="12.188752"><ele>347.4</ele><time>2026-04-24T18:01:55.383Z</time></trkpt><trkpt lat="46.1118775" lon="12.1887381"><ele>348.0</ele><time>2026-04-24T18:01:57.384Z</time></trkpt><trkpt lat="46.1120007" lon="12.1887031"><ele>348.0</ele><time>2026-04-24T18:01:59.375Z</time></trkpt><trkpt lat="46.1120601" lon="12.188665"><ele>348.0</ele><time>2026-04-24T18:02:00.382Z</time></trkpt><trkpt lat="46.1121006" lon="12.1885915"><ele>348.0</ele><time>2026-04-24T18:02:01.492Z</time></trkpt><trkpt lat="46.1121813" lon="12.1884604"><ele>348.0</ele><time>2026-04-24T18:02:03.383Z</time></trkpt><trkpt lat="46.1122599" lon="12.1883861"><ele>348.0</ele><time>2026-04-24T18:02:05.383Z</time></trkpt><trkpt lat="46.1123218" lon="12.188352"><ele>348.0</ele><time>2026-04-24T18:02:08.38Z</time></trkpt><trkpt lat="46.1123437" lon="12.1884394"><ele>348.0</ele><time>2026-04-24T18:02:37.383Z</time></trkpt></trkseg></trk></gpx>